Time,TemperatureF,DewpointF,PressureIn,WindDirection,WindDirectionDegrees,WindSpeedMPH,WindSpeedGustMPH,Humidity,HourlyPrecipIn,Conditions,Clouds,dailyrainin,SoftwareType,DateUTC
2013-05-11 00:00:00,64.2,59.6,29.90,West,263,0.0,6.0,85,0.02,,,0.00,VWS V14.01,2013-05-11 04:00:00,
2013-05-11 00:01:00,64.1,59.5,29.90,West,263,0.0,0.0,85,0.03,,,0.01,VWS V14.01,2013-05-11 04:01:00,
2013-05-11 00:02:00,64.1,59.5,29.90,West,263,1.0,1.0,85,0.03,,,0.01,VWS V14.01,2013-05-11 04:02:00,
2013-05-11 00:03:00,64.1,59.8,29.90,West,263,0.0,1.0,86,0.03,,,0.01,VWS V14.01,2013-05-11 04:03:00,
2013-05-11 00:04:00,64.0,59.7,29.90,West,263,0.0,1.0,86,0.03,,,0.01,VWS V14.01,2013-05-11 04:04:00,
2013-05-11 00:05:00,64.0,59.7,29.90,West,263,0.0,1.0,86,0.04,,,0.02,VWS V14.01,2013-05-11 04:05:00,
2013-05-11 00:06:00,63.9,59.6,29.90,West,263,0.0,1.0,86,0.04,,,0.02,VWS V14.01,2013-05-11 04:06:00,
2013-05-11 00:07:00,63.9,59.6,29.90,West,263,0.0,1.0,86,0.04,,,0.02,VWS V14.01,2013-05-11 04:07:00,
2013-05-11 00:08:00,63.8,59.5,29.90,West,263,0.0,1.0,86,0.05,,,0.03,VWS V14.01,2013-05-11 04:08:00,
2013-05-11 00:09:00,63.8,59.5,29.90,West,263,0.0,3.0,86,0.05,,,0.03,VWS V14.01,2013-05-11 04:09:00,
2013-05-11 00:10:00,63.7,59.4,29.90,West,263,0.0,3.0,86,0.05,,,0.03,VWS V14.01,2013-05-11 04:10:00,
2013-05-11 00:11:00,63.7,59.4,29.90,West,263,0.0,0.0,86,0.06,,,0.04,VWS V14.01,2013-05-11 04:11:00,
2013-05-11 00:12:00,63.6,59.3,29.90,West,263,0.0,0.0,86,0.06,,,0.04,VWS V14.01,2013-05-11 04:12:00,
2013-05-11 00:13:00,63.6,59.3,29.90,West,263,0.0,0.0,86,0.06,,,0.04,VWS V14.01,2013-05-11 04:13:00,
2013-05-11 00:14:00,63.5,59.2,29.90,West,263,0.0,0.0,86,0.07,,,0.05,VWS V14.01,2013-05-11 04:14:00,
2013-05-11 00:15:00,63.5,59.6,29.90,West,263,0.0,0.0,87,0.07,,,0.05,VWS V14.01,2013-05-11 04:15:00,
2013-05-11 00:16:00,63.5,59.6,29.90,West,263,0.0,0.0,87,0.07,,,0.05,VWS V14.01,2013-05-11 04:16:00,
2013-05-11 00:17:00,63.4,59.5,29.90,West,263,0.0,0.0,87,0.07,,,0.05,VWS V14.01,2013-05-11 04:17:00,
2013-05-11 00:18:00,63.4,59.5,29.90,West,263,0.0,0.0,87,0.07,,,0.05,VWS V14.01,2013-05-11 04:18:00,
2013-05-11 00:19:00,63.3,59.4,29.90,West,263,0.0,2.0,87,0.08,,,0.06,VWS V14.01,2013-05-11 04:19:00,
2013-05-11 00:20:00,63.2,59.3,29.90,West,263,0.0,2.0,87,0.08,,,0.06,VWS V14.01,2013-05-11 04:20:00,
2013-05-11 00:21:00,63.2,59.3,29.90,West,263,0.0,0.0,87,0.08,,,0.06,VWS V14.01,2013-05-11 04:21:00,
2013-05-11 00:22:00,63.2,59.3,29.90,West,263,0.0,0.0,87,0.08,,,0.06,VWS V14.01,2013-05-11 04:22:00,
2013-05-11 00:23:00,63.2,59.3,29.90,West,263,0.0,0.0,87,0.09,,,0.07,VWS V14.01,2013-05-11 04:23:00,
2013-05-11 00:24:00,63.1,59.2,29.90,West,263,0.0,0.0,87,0.09,,,0.07,VWS V14.01,2013-05-11 04:24:00,
2013-05-11 00:25:00,63.1,59.5,29.90,West,263,0.0,0.0,88,0.09,,,0.07,VWS V14.01,2013-05-11 04:25:00,
2013-05-11 00:26:00,63.1,59.5,29.90,West,263,0.0,0.0,88,0.09,,,0.08,VWS V14.01,2013-05-11 04:26:00,
2013-05-11 00:27:00,63.0,59.4,29.90,West,263,0.0,1.0,88,0.10,,,0.08,VWS V14.01,2013-05-11 04:27:00,
2013-05-11 00:28:00,63.0,59.4,29.90,West,263,0.0,1.0,88,0.10,,,0.08,VWS V14.01,2013-05-11 04:28:00,
2013-05-11 00:29:00,63.0,59.4,29.90,West,263,0.0,1.0,88,0.11,,,0.09,VWS V14.01,2013-05-11 04:29:00,
2013-05-11 00:30:00,62.9,59.3,29.89,West,263,2.0,3.0,88,0.11,,,0.09,VWS V14.01,2013-05-11 04:30:00,
2013-05-11 00:31:00,62.9,59.3,29.89,West,263,0.0,2.0,88,0.11,,,0.09,VWS V14.01,2013-05-11 04:31:00,
2013-05-11 00:32:00,62.9,59.3,29.89,West,263,0.0,2.0,88,0.11,,,0.09,VWS V14.01,2013-05-11 04:32:00,
2013-05-11 00:33:00,62.8,59.2,29.89,West,263,0.0,2.0,88,0.11,,,0.09,VWS V14.01,2013-05-11 04:33:00,
2013-05-11 00:34:00,62.8,59.2,29.89,West,263,0.0,2.0,88,0.11,,,0.09,VWS V14.01,2013-05-11 04:34:00,
2013-05-11 00:35:00,62.7,59.1,29.89,West,263,0.0,2.0,88,0.11,,,0.09,VWS V14.01,2013-05-11 04:35:00,
2013-05-11 00:36:00,62.7,59.1,29.89,West,263,0.0,2.0,88,0.11,,,0.09,VWS V14.01,2013-05-11 04:36:00,
2013-05-11 00:37:00,62.7,59.1,29.89,West,263,0.0,2.0,88,0.12,,,0.10,VWS V14.01,2013-05-11 04:37:00,
2013-05-11 00:38:00,62.6,59.0,29.89,West,263,0.0,2.0,88,0.12,,,0.10,VWS V14.01,2013-05-11 04:38:00,
2013-05-11 00:39:00,62.6,59.0,29.89,West,263,0.0,2.0,88,0.12,,,0.10,VWS V14.01,2013-05-11 04:39:00,
2013-05-11 00:40:00,62.5,58.9,29.89,West,263,0.0,2.0,88,0.12,,,0.10,VWS V14.01,2013-05-11 04:40:00,
2013-05-11 00:41:00,62.5,59.2,29.89,West,263,0.0,0.0,89,0.12,,,0.10,VWS V14.01,2013-05-11 04:41:00,
2013-05-11 00:42:00,62.5,59.2,29.89,West,263,0.0,0.0,89,0.12,,,0.10,VWS V14.01,2013-05-11 04:42:00,
2013-05-11 00:43:00,62.5,59.2,29.89,West,263,0.0,0.0,89,0.13,,,0.11,VWS V14.01,2013-05-11 04:43:00,
2013-05-11 00:44:00,62.5,59.2,29.89,West,263,0.0,0.0,89,0.13,,,0.11,VWS V14.01,2013-05-11 04:44:00,
2013-05-11 00:45:00,62.4,59.1,29.88,West,263,0.0,0.0,89,0.13,,,0.11,VWS V14.01,2013-05-11 04:45:00,
2013-05-11 00:46:00,62.4,59.1,29.88,West,263,0.0,0.0,89,0.13,,,0.11,VWS V14.01,2013-05-11 04:46:00,
2013-05-11 00:47:00,62.4,59.1,29.88,West,263,0.0,0.0,89,0.13,,,0.11,VWS V14.01,2013-05-11 04:47:00,
2013-05-11 00:48:00,62.3,59.0,29.88,West,263,0.0,0.0,89,0.13,,,0.11,VWS V14.01,2013-05-11 04:48:00,
2013-05-11 00:49:00,62.3,59.0,29.88,West,263,0.0,0.0,89,0.14,,,0.12,VWS V14.01,2013-05-11 04:49:00,
2013-05-11 00:50:00,62.3,59.0,29.88,West,263,0.0,0.0,89,0.14,,,0.12,VWS V14.01,2013-05-11 04:50:00,
2013-05-11 00:51:00,62.3,59.0,29.88,West,263,0.0,0.0,89,0.13,,,0.12,VWS V14.01,2013-05-11 04:51:00,
2013-05-11 00:52:00,62.2,58.9,29.88,West,263,0.0,0.0,89,0.13,,,0.12,VWS V14.01,2013-05-11 04:52:00,
2013-05-11 00:53:00,62.2,58.9,29.88,West,263,0.0,0.0,89,0.13,,,0.12,VWS V14.01,2013-05-11 04:53:00,
2013-05-11 00:54:00,62.2,58.9,29.88,West,263,0.0,0.0,89,0.14,,,0.13,VWS V14.01,2013-05-11 04:54:00,
2013-05-11 00:55:00,62.2,58.9,29.88,West,263,0.0,0.0,89,0.14,,,0.13,VWS V14.01,2013-05-11 04:55:00,
2013-05-11 00:56:00,62.1,58.8,29.88,West,263,0.0,0.0,89,0.14,,,0.13,VWS V14.01,2013-05-11 04:56:00,
2013-05-11 00:57:00,62.1,58.8,29.88,West,263,0.0,0.0,89,0.14,,,0.13,VWS V14.01,2013-05-11 04:57:00,
2013-05-11 00:58:00,62.1,58.8,29.88,West,263,0.0,0.0,89,0.14,,,0.13,VWS V14.01,2013-05-11 04:58:00,
2013-05-11 00:59:00,62.1,58.8,29.88,West,263,0.0,0.0,89,0.14,,,0.13,VWS V14.01,2013-05-11 04:59:00,
2013-05-11 01:00:00,62.1,58.8,29.87,West,263,0.0,0.0,89,0.14,,,0.13,VWS V14.01,2013-05-11 05:00:00,
2013-05-11 01:01:00,62.0,58.7,29.87,West,263,0.0,0.0,89,0.14,,,0.14,VWS V14.01,2013-05-11 05:01:00,
2013-05-11 01:02:00,62.0,58.7,29.87,West,263,0.0,0.0,89,0.14,,,0.14,VWS V14.01,2013-05-11 05:02:00,
2013-05-11 01:03:00,62.0,58.7,29.87,West,263,0.0,0.0,89,0.14,,,0.14,VWS V14.01,2013-05-11 05:03:00,
2013-05-11 01:04:00,62.0,58.7,29.87,West,263,0.0,0.0,89,0.14,,,0.14,VWS V14.01,2013-05-11 05:04:00,
2013-05-11 01:05:00,62.0,58.7,29.87,West,263,0.0,0.0,89,0.14,,,0.14,VWS V14.01,2013-05-11 05:05:00,
2013-05-11 01:06:00,62.0,58.7,29.87,West,263,0.0,0.0,89,0.15,,,0.15,VWS V14.01,2013-05-11 05:06:00,
2013-05-11 01:07:00,61.9,58.6,29.87,West,263,0.0,0.0,89,0.15,,,0.15,VWS V14.01,2013-05-11 05:07:00,
2013-05-11 01:08:00,61.9,58.9,29.87,West,263,0.0,0.0,90,0.15,,,0.15,VWS V14.01,2013-05-11 05:08:00,
2013-05-11 01:09:00,61.9,58.9,29.87,West,263,0.0,0.0,90,0.15,,,0.15,VWS V14.01,2013-05-11 05:09:00,
2013-05-11 01:10:00,61.9,58.9,29.87,West,263,0.0,0.0,90,0.15,,,0.15,VWS V14.01,2013-05-11 05:10:00,
2013-05-11 01:11:00,61.9,58.9,29.87,West,263,0.0,0.0,90,0.12,,,0.15,VWS V14.01,2013-05-11 05:11:00,
2013-05-11 01:12:00,61.9,58.9,29.87,West,263,0.0,0.0,90,0.12,,,0.15,VWS V14.01,2013-05-11 05:12:00,
2013-05-11 01:13:00,61.9,58.9,29.87,West,263,0.0,0.0,90,0.12,,,0.15,VWS V14.01,2013-05-11 05:13:00,
2013-05-11 01:14:00,61.9,58.9,29.87,West,263,0.0,0.0,90,0.12,,,0.15,VWS V14.01,2013-05-11 05:14:00,
2013-05-11 01:15:00,61.9,58.9,29.86,West,263,0.0,0.0,90,0.12,,,0.15,VWS V14.01,2013-05-11 05:15:00,
2013-05-11 01:16:00,61.8,58.8,29.86,West,263,0.0,0.0,90,0.12,,,0.15,VWS V14.01,2013-05-11 05:16:00,
2013-05-11 01:17:00,61.8,58.8,29.86,West,263,0.0,0.0,90,0.12,,,0.15,VWS V14.01,2013-05-11 05:17:00,
2013-05-11 01:18:00,61.8,58.8,29.86,West,263,0.0,0.0,90,0.13,,,0.16,VWS V14.01,2013-05-11 05:18:00,
2013-05-11 01:19:00,61.8,58.8,29.86,West,263,0.0,0.0,90,0.13,,,0.16,VWS V14.01,2013-05-11 05:19:00,
2013-05-11 01:20:00,61.8,58.8,29.86,West,263,0.0,0.0,90,0.13,,,0.16,VWS V14.01,2013-05-11 05:20:00,
2013-05-11 01:21:00,61.8,58.8,29.86,West,263,0.0,0.0,90,0.10,,,0.16,VWS V14.01,2013-05-11 05:21:00,
2013-05-11 01:22:00,61.8,58.8,29.86,West,263,0.0,0.0,90,0.10,,,0.16,VWS V14.01,2013-05-11 05:22:00,
2013-05-11 01:23:00,61.7,58.7,29.86,West,263,0.0,0.0,90,0.10,,,0.16,VWS V14.01,2013-05-11 05:23:00,
2013-05-11 01:24:00,61.7,58.7,29.86,West,263,0.0,0.0,90,0.10,,,0.16,VWS V14.01,2013-05-11 05:24:00,
2013-05-11 01:25:00,61.7,58.7,29.86,West,263,0.0,0.0,90,0.10,,,0.16,VWS V14.01,2013-05-11 05:25:00,
2013-05-11 01:26:00,61.7,58.7,29.86,West,263,0.0,1.0,90,0.10,,,0.16,VWS V14.01,2013-05-11 05:26:00,
2013-05-11 01:27:00,61.7,58.7,29.86,West,263,0.0,1.0,90,0.10,,,0.16,VWS V14.01,2013-05-11 05:27:00,
2013-05-11 01:28:00,61.7,58.7,29.86,West,263,0.0,1.0,90,0.11,,,0.17,VWS V14.01,2013-05-11 05:28:00,
2013-05-11 01:29:00,61.7,58.7,29.86,West,263,0.0,1.0,90,0.11,,,0.17,VWS V14.01,2013-05-11 05:29:00,
2013-05-11 01:30:00,61.7,58.7,29.85,West,263,0.0,1.0,90,0.11,,,0.17,VWS V14.01,2013-05-11 05:30:00,
2013-05-11 01:31:00,61.7,58.7,29.85,West,263,0.0,0.0,90,0.08,,,0.17,VWS V14.01,2013-05-11 05:31:00,
2013-05-11 01:32:00,61.7,59.0,29.85,West,263,0.0,0.0,91,0.08,,,0.17,VWS V14.01,2013-05-11 05:32:00,
2013-05-11 01:33:00,61.7,59.0,29.85,West,263,0.0,0.0,91,0.08,,,0.17,VWS V14.01,2013-05-11 05:33:00,
2013-05-11 01:34:00,61.6,59.0,29.85,West,263,0.0,0.0,91,0.08,,,0.17,VWS V14.01,2013-05-11 05:34:00,
2013-05-11 01:35:00,61.6,59.0,29.85,West,263,0.0,0.0,91,0.08,,,0.17,VWS V14.01,2013-05-11 05:35:00,
2013-05-11 01:36:00,61.6,59.0,29.85,West,263,0.0,0.0,91,0.08,,,0.17,VWS V14.01,2013-05-11 05:36:00,
2013-05-11 01:37:00,61.6,59.0,29.85,West,263,0.0,0.0,91,0.08,,,0.17,VWS V14.01,2013-05-11 05:37:00,
2013-05-11 01:38:00,61.6,59.0,29.85,West,263,0.0,0.0,91,0.08,,,0.17,VWS V14.01,2013-05-11 05:38:00,
2013-05-11 01:39:00,61.6,59.0,29.85,West,263,0.0,0.0,91,0.08,,,0.17,VWS V14.01,2013-05-11 05:39:00,
2013-05-11 01:40:00,61.6,59.0,29.85,West,263,0.0,0.0,91,0.08,,,0.17,VWS V14.01,2013-05-11 05:40:00,
2013-05-11 01:41:00,61.6,59.0,29.85,West,263,0.0,0.0,91,0.08,,,0.18,VWS V14.01,2013-05-11 05:41:00,
2013-05-11 01:42:00,61.6,59.0,29.85,West,263,0.0,0.0,91,0.08,,,0.18,VWS V14.01,2013-05-11 05:42:00,
2013-05-11 01:43:00,61.6,59.0,29.85,West,263,0.0,0.0,91,0.08,,,0.18,VWS V14.01,2013-05-11 05:43:00,
2013-05-11 01:44:00,61.6,59.0,29.85,West,263,0.0,0.0,91,0.08,,,0.18,VWS V14.01,2013-05-11 05:44:00,
2013-05-11 01:45:00,61.6,59.0,29.84,West,263,0.0,0.0,91,0.08,,,0.18,VWS V14.01,2013-05-11 05:45:00,
2013-05-11 01:46:00,61.6,59.0,29.84,West,263,0.0,0.0,91,0.08,,,0.18,VWS V14.01,2013-05-11 05:46:00,
2013-05-11 01:47:00,61.6,59.0,29.84,West,263,0.0,0.0,91,0.08,,,0.18,VWS V14.01,2013-05-11 05:47:00,
2013-05-11 01:48:00,61.6,59.0,29.84,West,263,0.0,0.0,91,0.09,,,0.19,VWS V14.01,2013-05-11 05:48:00,
2013-05-11 01:49:00,61.6,59.0,29.84,West,263,0.0,0.0,91,0.09,,,0.19,VWS V14.01,2013-05-11 05:49:00,
2013-05-11 01:50:00,61.6,59.3,29.84,West,263,0.0,0.0,92,0.09,,,0.19,VWS V14.01,2013-05-11 05:50:00,
2013-05-11 01:51:00,61.6,59.3,29.84,West,263,0.0,0.0,92,0.07,,,0.19,VWS V14.01,2013-05-11 05:51:00,
2013-05-11 01:52:00,61.5,59.2,29.84,West,263,0.0,0.0,92,0.07,,,0.19,VWS V14.01,2013-05-11 05:52:00,
2013-05-11 01:53:00,61.5,59.2,29.84,West,263,0.0,0.0,92,0.07,,,0.19,VWS V14.01,2013-05-11 05:53:00,
2013-05-11 01:54:00,61.5,59.2,29.84,West,263,0.0,0.0,92,0.07,,,0.19,VWS V14.01,2013-05-11 05:54:00,
2013-05-11 01:55:00,61.5,59.2,29.84,West,263,0.0,0.0,92,0.07,,,0.19,VWS V14.01,2013-05-11 05:55:00,
2013-05-11 01:56:00,61.5,59.2,29.84,West,263,0.0,0.0,92,0.07,,,0.19,VWS V14.01,2013-05-11 05:56:00,
2013-05-11 01:57:00,61.5,59.2,29.84,West,263,0.0,0.0,92,0.07,,,0.19,VWS V14.01,2013-05-11 05:57:00,
2013-05-11 01:58:00,61.5,59.2,29.84,West,263,0.0,0.0,92,0.07,,,0.19,VWS V14.01,2013-05-11 05:58:00,
2013-05-11 01:59:00,61.5,59.2,29.84,West,263,0.0,0.0,92,0.08,,,0.20,VWS V14.01,2013-05-11 05:59:00,
2013-05-11 02:00:00,61.5,59.2,29.83,West,263,0.0,0.0,92,0.08,,,0.20,VWS V14.01,2013-05-11 06:00:00,
2013-05-11 02:01:00,61.5,59.2,29.83,West,263,0.0,0.0,92,0.07,,,0.20,VWS V14.01,2013-05-11 06:01:00,
2013-05-11 02:02:00,61.5,59.2,29.83,West,263,0.0,0.0,92,0.07,,,0.20,VWS V14.01,2013-05-11 06:02:00,
2013-05-11 02:03:00,61.4,59.1,29.83,West,263,0.0,0.0,92,0.07,,,0.20,VWS V14.01,2013-05-11 06:03:00,
2013-05-11 02:04:00,61.4,59.1,29.83,West,263,0.0,0.0,92,0.07,,,0.20,VWS V14.01,2013-05-11 06:04:00,
2013-05-11 02:05:00,61.4,59.1,29.83,West,263,0.0,0.0,92,0.07,,,0.20,VWS V14.01,2013-05-11 06:05:00,
2013-05-11 02:06:00,61.4,59.1,29.83,West,263,0.0,0.0,92,0.07,,,0.20,VWS V14.01,2013-05-11 06:06:00,
2013-05-11 02:07:00,61.4,59.1,29.83,West,263,0.0,0.0,92,0.07,,,0.20,VWS V14.01,2013-05-11 06:07:00,
2013-05-11 02:08:00,61.4,59.1,29.83,West,263,0.0,0.0,92,0.07,,,0.20,VWS V14.01,2013-05-11 06:08:00,
2013-05-11 02:09:00,61.4,59.1,29.83,West,263,0.0,0.0,92,0.07,,,0.20,VWS V14.01,2013-05-11 06:09:00,
2013-05-11 02:10:00,61.4,59.1,29.83,West,263,0.0,0.0,92,0.07,,,0.20,VWS V14.01,2013-05-11 06:10:00,
2013-05-11 02:11:00,61.4,59.1,29.83,West,263,0.0,0.0,92,0.05,,,0.20,VWS V14.01,2013-05-11 06:11:00,
2013-05-11 02:12:00,61.3,59.0,29.83,West,263,0.0,0.0,92,0.05,,,0.20,VWS V14.01,2013-05-11 06:12:00,
2013-05-11 02:13:00,61.3,59.0,29.83,West,263,0.0,0.0,92,0.06,,,0.21,VWS V14.01,2013-05-11 06:13:00,
2013-05-11 02:14:00,61.3,59.0,29.83,West,263,0.0,0.0,92,0.06,,,0.21,VWS V14.01,2013-05-11 06:14:00,
2013-05-11 02:15:00,61.3,59.0,29.84,West,263,0.0,0.0,92,0.06,,,0.21,VWS V14.01,2013-05-11 06:15:00,
2013-05-11 02:16:00,61.3,59.0,29.84,West,263,0.0,0.0,92,0.06,,,0.21,VWS V14.01,2013-05-11 06:16:00,
2013-05-11 02:17:00,61.3,59.0,29.84,West,263,0.0,0.0,92,0.06,,,0.21,VWS V14.01,2013-05-11 06:17:00,
2013-05-11 02:18:00,61.3,59.0,29.84,West,263,1.0,1.0,92,0.06,,,0.21,VWS V14.01,2013-05-11 06:18:00,
2013-05-11 02:19:00,61.3,59.0,29.84,West,263,0.0,1.0,92,0.06,,,0.21,VWS V14.01,2013-05-11 06:19:00,
2013-05-11 02:20:00,61.3,59.0,29.84,West,263,0.0,1.0,92,0.06,,,0.21,VWS V14.01,2013-05-11 06:20:00,
2013-05-11 02:21:00,61.3,59.0,29.84,West,263,0.0,0.0,92,0.05,,,0.21,VWS V14.01,2013-05-11 06:21:00,
2013-05-11 02:22:00,61.3,59.0,29.84,West,263,0.0,0.0,92,0.06,,,0.22,VWS V14.01,2013-05-11 06:22:00,
2013-05-11 02:23:00,61.3,59.0,29.84,West,263,0.0,0.0,92,0.06,,,0.22,VWS V14.01,2013-05-11 06:23:00,
2013-05-11 02:24:00,61.3,59.0,29.84,West,263,0.0,0.0,92,0.06,,,0.22,VWS V14.01,2013-05-11 06:24:00,
2013-05-11 02:25:00,61.3,59.0,29.84,West,263,0.0,0.0,92,0.06,,,0.22,VWS V14.01,2013-05-11 06:25:00,
2013-05-11 02:26:00,61.3,59.3,29.84,West,263,0.0,0.0,93,0.07,,,0.23,VWS V14.01,2013-05-11 06:26:00,
2013-05-11 02:27:00,61.3,59.3,29.84,West,263,0.0,0.0,93,0.07,,,0.23,VWS V14.01,2013-05-11 06:27:00,
2013-05-11 02:28:00,61.3,59.3,29.84,West,263,0.0,0.0,93,0.07,,,0.23,VWS V14.01,2013-05-11 06:28:00,
2013-05-11 02:29:00,61.3,59.3,29.84,West,263,0.0,0.0,93,0.07,,,0.23,VWS V14.01,2013-05-11 06:29:00,
2013-05-11 02:30:00,61.3,59.3,29.83,West,263,0.0,0.0,93,0.07,,,0.23,VWS V14.01,2013-05-11 06:30:00,
2013-05-11 02:31:00,61.3,59.3,29.83,West,263,0.0,0.0,93,0.06,,,0.23,VWS V14.01,2013-05-11 06:31:00,
2013-05-11 02:32:00,61.3,59.3,29.83,South,188,2.0,2.0,93,0.06,,,0.23,VWS V14.01,2013-05-11 06:32:00,
2013-05-11 02:33:00,61.3,59.3,29.83,South,188,0.0,3.0,93,0.06,,,0.23,VWS V14.01,2013-05-11 06:33:00,
2013-05-11 02:34:00,61.3,59.3,29.83,South,188,0.0,3.0,93,0.06,,,0.23,VWS V14.01,2013-05-11 06:34:00,
2013-05-11 02:35:00,61.3,59.3,29.83,South,176,2.0,3.0,93,0.06,,,0.23,VWS V14.01,2013-05-11 06:35:00,
2013-05-11 02:36:00,61.3,59.3,29.83,South,175,0.0,3.0,93,0.06,,,0.23,VWS V14.01,2013-05-11 06:36:00,
2013-05-11 02:37:00,61.2,59.2,29.83,South,175,0.0,3.0,93,0.06,,,0.23,VWS V14.01,2013-05-11 06:37:00,
2013-05-11 02:38:00,61.2,59.2,29.83,South,175,0.0,3.0,93,0.06,,,0.23,VWS V14.01,2013-05-11 06:38:00,
2013-05-11 02:39:00,61.2,59.2,29.83,South,175,0.0,3.0,93,0.06,,,0.23,VWS V14.01,2013-05-11 06:39:00,
2013-05-11 02:40:00,61.1,59.1,29.83,South,175,0.0,3.0,93,0.06,,,0.23,VWS V14.01,2013-05-11 06:40:00,
2013-05-11 02:41:00,61.1,59.1,29.83,South,175,0.0,0.0,93,0.05,,,0.23,VWS V14.01,2013-05-11 06:41:00,
2013-05-11 02:42:00,61.1,59.1,29.83,South,175,0.0,0.0,93,0.05,,,0.23,VWS V14.01,2013-05-11 06:42:00,
2013-05-11 02:43:00,61.1,59.1,29.83,South,175,0.0,0.0,93,0.05,,,0.23,VWS V14.01,2013-05-11 06:43:00,
2013-05-11 02:44:00,61.1,59.1,29.83,South,175,0.0,0.0,93,0.05,,,0.23,VWS V14.01,2013-05-11 06:44:00,
2013-05-11 02:45:00,61.1,59.1,29.80,South,175,0.0,0.0,93,0.05,,,0.23,VWS V14.01,2013-05-11 06:45:00,
2013-05-11 02:46:00,61.1,59.1,29.80,South,175,0.0,0.0,93,0.05,,,0.23,VWS V14.01,2013-05-11 06:46:00,
2013-05-11 02:47:00,61.1,59.1,29.80,South,175,0.0,0.0,93,0.05,,,0.23,VWS V14.01,2013-05-11 06:47:00,
2013-05-11 02:48:00,61.1,59.1,29.80,South,175,0.0,0.0,93,0.05,,,0.23,VWS V14.01,2013-05-11 06:48:00,
2013-05-11 02:49:00,61.0,59.0,29.80,South,175,0.0,0.0,93,0.05,,,0.23,VWS V14.01,2013-05-11 06:49:00,
2013-05-11 02:50:00,61.0,59.0,29.80,South,175,0.0,0.0,93,0.05,,,0.23,VWS V14.01,2013-05-11 06:50:00,
2013-05-11 02:51:00,61.0,59.0,29.80,South,175,0.0,0.0,93,0.04,,,0.23,VWS V14.01,2013-05-11 06:51:00,
2013-05-11 02:52:00,61.0,59.0,29.80,South,175,0.0,0.0,93,0.04,,,0.23,VWS V14.01,2013-05-11 06:52:00,
2013-05-11 02:53:00,61.0,59.0,29.80,South,175,0.0,0.0,93,0.04,,,0.23,VWS V14.01,2013-05-11 06:53:00,
2013-05-11 02:54:00,61.0,59.0,29.80,South,175,0.0,0.0,93,0.04,,,0.23,VWS V14.01,2013-05-11 06:54:00,
2013-05-11 02:55:00,60.9,58.9,29.80,South,175,0.0,0.0,93,0.04,,,0.23,VWS V14.01,2013-05-11 06:55:00,
2013-05-11 02:56:00,60.9,58.9,29.80,South,175,0.0,0.0,93,0.04,,,0.23,VWS V14.01,2013-05-11 06:56:00,
2013-05-11 02:57:00,60.9,58.9,29.80,South,175,0.0,0.0,93,0.04,,,0.23,VWS V14.01,2013-05-11 06:57:00,
2013-05-11 02:58:00,60.9,58.9,29.80,South,175,0.0,0.0,93,0.04,,,0.23,VWS V14.01,2013-05-11 06:58:00,
2013-05-11 02:59:00,60.9,58.9,29.80,South,175,0.0,0.0,93,0.04,,,0.23,VWS V14.01,2013-05-11 06:59:00,
2013-05-11 03:00:00,60.9,58.9,29.80,South,175,0.0,0.0,93,0.04,,,0.23,VWS V14.01,2013-05-11 07:00:00,
2013-05-11 03:01:00,60.8,58.8,29.80,South,175,0.0,0.0,93,0.03,,,0.23,VWS V14.01,2013-05-11 07:01:00,
2013-05-11 03:02:00,60.8,58.8,29.80,South,175,0.0,0.0,93,0.03,,,0.23,VWS V14.01,2013-05-11 07:02:00,
2013-05-11 03:03:00,60.8,58.8,29.80,South,175,0.0,0.0,93,0.03,,,0.23,VWS V14.01,2013-05-11 07:03:00,
2013-05-11 03:04:00,60.8,58.8,29.80,South,175,0.0,0.0,93,0.03,,,0.23,VWS V14.01,2013-05-11 07:04:00,
2013-05-11 03:05:00,60.8,58.8,29.80,South,175,1.0,1.0,93,0.04,,,0.24,VWS V14.01,2013-05-11 07:05:00,
2013-05-11 03:06:00,60.8,58.8,29.80,South,175,0.0,1.0,93,0.04,,,0.24,VWS V14.01,2013-05-11 07:06:00,
2013-05-11 03:07:00,60.8,58.8,29.80,South,175,0.0,1.0,93,0.04,,,0.24,VWS V14.01,2013-05-11 07:07:00,
2013-05-11 03:08:00,60.8,58.8,29.80,South,175,0.0,2.0,93,0.04,,,0.24,VWS V14.01,2013-05-11 07:08:00,
2013-05-11 03:09:00,60.8,58.8,29.80,South,175,0.0,2.0,93,0.04,,,0.24,VWS V14.01,2013-05-11 07:09:00,
2013-05-11 03:10:00,60.7,58.7,29.80,South,175,0.0,2.0,93,0.04,,,0.24,VWS V14.01,2013-05-11 07:10:00,
2013-05-11 03:11:00,60.7,58.7,29.80,South,175,0.0,0.0,93,0.04,,,0.24,VWS V14.01,2013-05-11 07:11:00,
2013-05-11 03:12:00,60.7,58.7,29.80,South,175,0.0,0.0,93,0.04,,,0.24,VWS V14.01,2013-05-11 07:12:00,
2013-05-11 03:13:00,60.7,58.7,29.80,South,175,0.0,0.0,93,0.04,,,0.24,VWS V14.01,2013-05-11 07:13:00,
2013-05-11 03:14:00,60.7,58.7,29.80,South,175,0.0,0.0,93,0.04,,,0.24,VWS V14.01,2013-05-11 07:14:00,
2013-05-11 03:15:00,60.7,58.7,29.80,South,175,0.0,0.0,93,0.04,,,0.24,VWS V14.01,2013-05-11 07:15:00,
2013-05-11 03:16:00,60.7,58.7,29.80,South,175,0.0,0.0,93,0.04,,,0.24,VWS V14.01,2013-05-11 07:16:00,
2013-05-11 03:17:00,60.7,58.7,29.80,South,175,0.0,0.0,93,0.04,,,0.24,VWS V14.01,2013-05-11 07:17:00,
2013-05-11 03:18:00,60.7,58.7,29.80,South,175,0.0,0.0,93,0.04,,,0.24,VWS V14.01,2013-05-11 07:18:00,
2013-05-11 03:19:00,60.7,58.7,29.80,South,175,0.0,0.0,93,0.04,,,0.24,VWS V14.01,2013-05-11 07:19:00,
2013-05-11 03:20:00,60.7,58.7,29.80,South,175,0.0,0.0,93,0.04,,,0.24,VWS V14.01,2013-05-11 07:20:00,
2013-05-11 03:21:00,60.6,58.6,29.80,South,175,0.0,0.0,93,0.03,,,0.24,VWS V14.01,2013-05-11 07:21:00,
2013-05-11 03:22:00,60.6,58.6,29.80,South,175,0.0,0.0,93,0.03,,,0.24,VWS V14.01,2013-05-11 07:22:00,
2013-05-11 03:23:00,60.6,58.6,29.80,South,174,0.0,0.0,93,0.03,,,0.24,VWS V14.01,2013-05-11 07:23:00,
2013-05-11 03:24:00,60.6,58.6,29.80,South,174,0.0,0.0,93,0.03,,,0.24,VWS V14.01,2013-05-11 07:24:00,
2013-05-11 03:25:00,60.6,58.6,29.80,South,174,0.0,0.0,93,0.03,,,0.24,VWS V14.01,2013-05-11 07:25:00,
2013-05-11 03:26:00,60.6,58.6,29.80,South,174,1.0,1.0,93,0.03,,,0.24,VWS V14.01,2013-05-11 07:26:00,
2013-05-11 03:27:00,60.6,58.9,29.80,South,174,0.0,3.0,94,0.03,,,0.24,VWS V14.01,2013-05-11 07:27:00,
2013-05-11 03:28:00,60.6,58.9,29.80,South,174,0.0,3.0,94,0.03,,,0.24,VWS V14.01,2013-05-11 07:28:00,
2013-05-11 03:29:00,60.6,58.9,29.80,South,174,0.0,3.0,94,0.03,,,0.24,VWS V14.01,2013-05-11 07:29:00,
2013-05-11 03:30:00,60.5,58.8,29.81,South,174,0.0,3.0,94,0.03,,,0.24,VWS V14.01,2013-05-11 07:30:00,
2013-05-11 03:31:00,60.5,58.5,29.81,South,174,0.0,2.0,93,0.01,,,0.24,VWS V14.01,2013-05-11 07:31:00,
2013-05-11 03:32:00,60.5,58.5,29.81,South,174,2.0,2.0,93,0.01,,,0.24,VWS V14.01,2013-05-11 07:32:00,
2013-05-11 03:33:00,60.5,58.5,29.81,South,174,2.0,2.0,93,0.01,,,0.24,VWS V14.01,2013-05-11 07:33:00,
2013-05-11 03:34:00,60.5,58.5,29.81,South,174,1.0,2.0,93,0.01,,,0.24,VWS V14.01,2013-05-11 07:34:00,
2013-05-11 03:35:00,60.5,58.5,29.81,South,174,0.0,2.0,93,0.01,,,0.24,VWS V14.01,2013-05-11 07:35:00,
2013-05-11 03:36:00,60.5,58.5,29.81,South,174,0.0,2.0,93,0.01,,,0.24,VWS V14.01,2013-05-11 07:36:00,
2013-05-11 03:37:00,60.5,58.5,29.81,South,182,3.0,4.0,93,0.01,,,0.24,VWS V14.01,2013-05-11 07:37:00,
2013-05-11 03:38:00,60.5,58.5,29.81,South,182,3.0,4.0,93,0.01,,,0.24,VWS V14.01,2013-05-11 07:38:00,
2013-05-11 03:39:00,60.5,58.8,29.81,SSE,148,2.0,4.0,94,0.01,,,0.24,VWS V14.01,2013-05-11 07:39:00,
2013-05-11 03:40:00,60.5,58.8,29.81,SSE,148,0.0,4.0,94,0.01,,,0.24,VWS V14.01,2013-05-11 07:40:00,
2013-05-11 03:41:00,60.5,58.8,29.81,SSE,148,1.0,2.0,94,0.01,,,0.24,VWS V14.01,2013-05-11 07:41:00,
2013-05-11 03:42:00,60.5,58.8,29.81,WNW,296,1.0,4.0,94,0.01,,,0.24,VWS V14.01,2013-05-11 07:42:00,
2013-05-11 03:43:00,60.5,58.8,29.81,West,263,2.0,4.0,94,0.01,,,0.24,VWS V14.01,2013-05-11 07:43:00,
2013-05-11 03:44:00,60.5,58.8,29.81,West,262,3.0,4.0,94,0.01,,,0.24,VWS V14.01,2013-05-11 07:44:00,
2013-05-11 03:45:00,60.5,58.8,29.81,SSW,204,3.0,4.0,94,0.01,,,0.24,VWS V14.01,2013-05-11 07:45:00,
2013-05-11 03:46:00,60.5,58.8,29.81,SSW,204,3.0,5.0,94,0.01,,,0.24,VWS V14.01,2013-05-11 07:46:00,
2013-05-11 03:47:00,60.5,58.8,29.81,SSW,204,1.0,5.0,94,0.01,,,0.24,VWS V14.01,2013-05-11 07:47:00,
2013-05-11 03:48:00,60.5,58.8,29.81,SSW,201,4.0,5.0,94,0.01,,,0.24,VWS V14.01,2013-05-11 07:48:00,
2013-05-11 03:49:00,60.5,58.8,29.81,SSW,202,1.0,5.0,94,0.01,,,0.24,VWS V14.01,2013-05-11 07:49:00,
2013-05-11 03:50:00,60.5,58.8,29.81,SSW,202,2.0,5.0,94,0.01,,,0.24,VWS V14.01,2013-05-11 07:50:00,
2013-05-11 03:51:00,60.5,58.8,29.81,SSW,201,0.0,1.0,94,0.01,,,0.24,VWS V14.01,2013-05-11 07:51:00,
2013-05-11 03:52:00,60.5,58.8,29.81,SSW,196,3.0,4.0,94,0.01,,,0.24,VWS V14.01,2013-05-11 07:52:00,
2013-05-11 03:53:00,60.5,58.8,29.81,SSW,196,0.0,4.0,94,0.01,,,0.24,VWS V14.01,2013-05-11 07:53:00,
2013-05-11 03:54:00,60.5,58.8,29.81,SSW,196,1.0,4.0,94,0.01,,,0.24,VWS V14.01,2013-05-11 07:54:00,
2013-05-11 03:55:00,60.4,58.7,29.81,SSW,196,2.0,4.0,94,0.01,,,0.24,VWS V14.01,2013-05-11 07:55:00,
2013-05-11 03:56:00,60.5,58.8,29.81,SSW,196,4.0,4.0,94,0.01,,,0.24,VWS V14.01,2013-05-11 07:56:00,
2013-05-11 03:57:00,60.5,58.8,29.81,South,191,2.0,5.0,94,0.01,,,0.24,VWS V14.01,2013-05-11 07:57:00,
2013-05-11 03:58:00,60.5,58.8,29.81,South,170,2.0,5.0,94,0.01,,,0.24,VWS V14.01,2013-05-11 07:58:00,
2013-05-11 03:59:00,60.5,58.8,29.81,South,170,1.0,5.0,94,0.01,,,0.24,VWS V14.01,2013-05-11 07:59:00,
2013-05-11 04:00:00,60.5,58.8,29.81,SSE,161,3.0,5.0,94,0.01,,,0.24,VWS V14.01,2013-05-11 08:00:00,
2013-05-11 04:01:00,60.4,58.7,29.81,SSE,157,1.0,5.0,94,0.01,,,0.24,VWS V14.01,2013-05-11 08:01:00,
2013-05-11 04:02:00,60.4,58.7,29.81,SSE,157,0.0,5.0,94,0.01,,,0.24,VWS V14.01,2013-05-11 08:02:00,
2013-05-11 04:03:00,60.4,58.7,29.81,SSE,160,2.0,5.0,94,0.01,,,0.24,VWS V14.01,2013-05-11 08:03:00,
2013-05-11 04:04:00,60.4,58.7,29.81,SE,130,0.0,5.0,94,0.01,,,0.24,VWS V14.01,2013-05-11 08:04:00,
2013-05-11 04:05:00,60.4,58.7,29.81,SE,130,0.0,5.0,94,0.01,,,0.24,VWS V14.01,2013-05-11 08:05:00,
2013-05-11 04:06:00,60.4,58.7,29.81,SE,135,0.0,5.0,94,0.01,,,0.24,VWS V14.01,2013-05-11 08:06:00,
2013-05-11 04:07:00,60.4,58.7,29.81,SE,135,0.0,5.0,94,0.01,,,0.24,VWS V14.01,2013-05-11 08:07:00,
2013-05-11 04:08:00,60.4,58.7,29.81,SE,135,2.0,5.0,94,0.01,,,0.24,VWS V14.01,2013-05-11 08:08:00,
2013-05-11 04:09:00,60.5,58.8,29.81,SE,135,2.0,5.0,94,0.01,,,0.24,VWS V14.01,2013-05-11 08:09:00,
2013-05-11 04:10:00,60.4,58.7,29.81,SE,138,2.0,5.0,94,0.01,,,0.24,VWS V14.01,2013-05-11 08:10:00,
2013-05-11 04:11:00,60.4,58.7,29.81,SE,138,2.0,2.0,94,0.00,,,0.24,VWS V14.01,2013-05-11 08:11:00,
2013-05-11 04:12:00,60.4,58.7,29.81,SE,138,0.0,2.0,94,0.00,,,0.24,VWS V14.01,2013-05-11 08:12:00,
2013-05-11 04:13:00,60.4,58.7,29.81,WSW,251,2.0,7.0,94,0.00,,,0.24,VWS V14.01,2013-05-11 08:13:00,
2013-05-11 04:14:00,60.4,58.7,29.81,SE,132,1.0,7.0,94,0.00,,,0.24,VWS V14.01,2013-05-11 08:14:00,
2013-05-11 04:15:00,60.4,58.7,29.80,SE,132,0.0,7.0,94,0.00,,,0.24,VWS V14.01,2013-05-11 08:15:00,
2013-05-11 04:16:00,60.4,58.7,29.80,SE,132,0.0,7.0,94,0.00,,,0.24,VWS V14.01,2013-05-11 08:16:00,
2013-05-11 04:17:00,60.4,58.7,29.80,SE,132,1.0,7.0,94,0.00,,,0.24,VWS V14.01,2013-05-11 08:17:00,
2013-05-11 04:18:00,60.4,58.7,29.80,SE,132,0.0,7.0,94,0.00,,,0.24,VWS V14.01,2013-05-11 08:18:00,
2013-05-11 04:19:00,60.4,58.7,29.80,SE,132,1.0,7.0,94,0.00,,,0.24,VWS V14.01,2013-05-11 08:19:00,
2013-05-11 04:20:00,60.4,58.7,29.80,SE,132,0.0,7.0,94,0.00,,,0.24,VWS V14.01,2013-05-11 08:20:00,
2013-05-11 04:21:00,60.4,58.7,29.80,SE,132,0.0,2.0,94,0.00,,,0.24,VWS V14.01,2013-05-11 08:21:00,
2013-05-11 04:22:00,60.4,58.7,29.80,SE,137,1.0,3.0,94,0.00,,,0.24,VWS V14.01,2013-05-11 08:22:00,
2013-05-11 04:23:00,60.4,58.7,29.80,SE,137,0.0,3.0,94,0.00,,,0.24,VWS V14.01,2013-05-11 08:23:00,
2013-05-11 04:24:00,60.4,58.7,29.80,SE,137,0.0,3.0,94,0.00,,,0.24,VWS V14.01,2013-05-11 08:24:00,
2013-05-11 04:25:00,60.4,58.7,29.80,SE,137,1.0,3.0,94,0.00,,,0.24,VWS V14.01,2013-05-11 08:25:00,
2013-05-11 04:26:00,60.4,58.7,29.80,SE,136,1.0,3.0,94,0.00,,,0.24,VWS V14.01,2013-05-11 08:26:00,
2013-05-11 04:27:00,60.4,58.7,29.80,SE,136,1.0,3.0,94,0.00,,,0.24,VWS V14.01,2013-05-11 08:27:00,
2013-05-11 04:28:00,60.4,58.7,29.80,SE,136,0.0,3.0,94,0.00,,,0.24,VWS V14.01,2013-05-11 08:28:00,
2013-05-11 04:29:00,60.4,58.7,29.80,SE,136,0.0,3.0,94,0.00,,,0.24,VWS V14.01,2013-05-11 08:29:00,
2013-05-11 04:30:00,60.4,58.7,29.79,SE,136,1.0,3.0,94,0.00,,,0.24,VWS V14.01,2013-05-11 08:30:00,
2013-05-11 04:31:00,60.4,58.7,29.79,SSE,147,4.0,4.0,94,0.00,,,0.24,VWS V14.01,2013-05-11 08:31:00,
2013-05-11 04:32:00,60.4,58.7,29.79,SSE,148,1.0,4.0,94,0.00,,,0.24,VWS V14.01,2013-05-11 08:32:00,
2013-05-11 04:33:00,60.4,58.7,29.79,SSE,150,1.0,4.0,94,0.00,,,0.24,VWS V14.01,2013-05-11 08:33:00,
2013-05-11 04:34:00,60.4,58.7,29.79,SSE,150,0.0,4.0,94,0.00,,,0.24,VWS V14.01,2013-05-11 08:34:00,
2013-05-11 04:35:00,60.4,58.7,29.79,SSE,150,0.0,4.0,94,0.00,,,0.24,VWS V14.01,2013-05-11 08:35:00,
2013-05-11 04:36:00,60.4,58.7,29.79,SSE,150,0.0,4.0,94,0.00,,,0.24,VWS V14.01,2013-05-11 08:36:00,
2013-05-11 04:37:00,60.4,58.7,29.79,SSE,150,0.0,4.0,94,0.00,,,0.24,VWS V14.01,2013-05-11 08:37:00,
2013-05-11 04:38:00,60.4,58.7,29.79,SSE,150,0.0,4.0,94,0.00,,,0.24,VWS V14.01,2013-05-11 08:38:00,
2013-05-11 04:39:00,60.4,58.7,29.79,SSE,150,0.0,4.0,94,0.00,,,0.24,VWS V14.01,2013-05-11 08:39:00,
2013-05-11 04:40:00,60.3,58.6,29.79,SSE,150,2.0,4.0,94,0.00,,,0.24,VWS V14.01,2013-05-11 08:40:00,
2013-05-11 04:41:00,60.3,58.6,29.79,SSE,150,3.0,3.0,94,0.00,,,0.24,VWS V14.01,2013-05-11 08:41:00,
2013-05-11 04:42:00,60.4,58.7,29.79,SSE,150,0.0,3.0,94,0.00,,,0.24,VWS V14.01,2013-05-11 08:42:00,
2013-05-11 04:43:00,60.4,58.7,29.79,SSE,150,0.0,3.0,94,0.00,,,0.24,VWS V14.01,2013-05-11 08:43:00,
2013-05-11 04:44:00,60.4,58.7,29.79,SSE,150,0.0,4.0,94,0.00,,,0.24,VWS V14.01,2013-05-11 08:44:00,
2013-05-11 04:45:00,60.4,58.7,29.79,SSE,150,0.0,4.0,94,0.00,,,0.24,VWS V14.01,2013-05-11 08:45:00,
2013-05-11 04:46:00,60.4,58.7,29.79,SE,138,4.0,4.0,94,0.01,,,0.25,VWS V14.01,2013-05-11 08:46:00,
2013-05-11 04:47:00,60.4,58.7,29.79,SE,138,0.0,4.0,94,0.01,,,0.25,VWS V14.01,2013-05-11 08:47:00,
2013-05-11 04:48:00,60.4,58.7,29.79,SE,138,0.0,4.0,94,0.01,,,0.25,VWS V14.01,2013-05-11 08:48:00,
2013-05-11 04:49:00,60.4,58.7,29.79,SSE,154,3.0,4.0,94,0.01,,,0.25,VWS V14.01,2013-05-11 08:49:00,
2013-05-11 04:50:00,60.4,58.7,29.79,SSE,155,0.0,4.0,94,0.01,,,0.25,VWS V14.01,2013-05-11 08:50:00,
2013-05-11 04:51:00,60.4,58.7,29.79,SSE,157,2.0,3.0,94,0.01,,,0.25,VWS V14.01,2013-05-11 08:51:00,
2013-05-11 04:52:00,60.4,58.7,29.79,SSE,157,3.0,3.0,94,0.01,,,0.25,VWS V14.01,2013-05-11 08:52:00,
2013-05-11 04:53:00,60.4,58.7,29.79,SSE,155,0.0,3.0,94,0.01,,,0.25,VWS V14.01,2013-05-11 08:53:00,
2013-05-11 04:54:00,60.4,58.7,29.79,SSE,155,0.0,3.0,94,0.01,,,0.25,VWS V14.01,2013-05-11 08:54:00,
2013-05-11 04:55:00,60.4,58.7,29.79,SSE,155,2.0,3.0,94,0.01,,,0.25,VWS V14.01,2013-05-11 08:55:00,
2013-05-11 04:56:00,60.4,58.7,29.79,SSE,155,2.0,3.0,94,0.01,,,0.25,VWS V14.01,2013-05-11 08:56:00,
2013-05-11 04:57:00,60.4,58.7,29.79,SSW,207,4.0,4.0,94,0.01,,,0.25,VWS V14.01,2013-05-11 08:57:00,
2013-05-11 04:58:00,60.4,58.7,29.79,SE,145,0.0,4.0,94,0.01,,,0.25,VWS V14.01,2013-05-11 08:58:00,
2013-05-11 04:59:00,60.4,58.7,29.79,SE,145,1.0,4.0,94,0.01,,,0.25,VWS V14.01,2013-05-11 08:59:00,
2013-05-11 05:00:00,60.4,59.0,29.78,SE,145,2.0,4.0,95,0.01,,,0.25,VWS V14.01,2013-05-11 09:00:00,
2013-05-11 05:01:00,60.4,59.0,29.78,SE,145,0.0,2.0,95,0.01,,,0.25,VWS V14.01,2013-05-11 09:01:00,
2013-05-11 05:02:00,60.4,59.0,29.78,SE,145,0.0,2.0,95,0.01,,,0.25,VWS V14.01,2013-05-11 09:02:00,
2013-05-11 05:03:00,60.4,59.0,29.78,SE,145,2.0,2.0,95,0.01,,,0.25,VWS V14.01,2013-05-11 09:03:00,
2013-05-11 05:04:00,60.4,59.0,29.78,SE,145,1.0,2.0,95,0.01,,,0.25,VWS V14.01,2013-05-11 09:04:00,
2013-05-11 05:05:00,60.4,59.0,29.78,SE,145,0.0,2.0,95,0.01,,,0.25,VWS V14.01,2013-05-11 09:05:00,
2013-05-11 05:06:00,60.4,59.0,29.78,SE,145,0.0,2.0,95,0.01,,,0.25,VWS V14.01,2013-05-11 09:06:00,
2013-05-11 05:07:00,60.4,59.0,29.78,SE,145,0.0,2.0,95,0.01,,,0.25,VWS V14.01,2013-05-11 09:07:00,
2013-05-11 05:08:00,60.4,59.0,29.78,SE,145,0.0,2.0,95,0.01,,,0.25,VWS V14.01,2013-05-11 09:08:00,
2013-05-11 05:09:00,60.4,59.0,29.78,SE,146,0.0,3.0,95,0.01,,,0.25,VWS V14.01,2013-05-11 09:09:00,
2013-05-11 05:10:00,60.4,59.0,29.78,SW,229,2.0,3.0,95,0.01,,,0.25,VWS V14.01,2013-05-11 09:10:00,
2013-05-11 05:11:00,60.4,59.0,29.78,South,175,0.0,4.0,95,0.01,,,0.25,VWS V14.01,2013-05-11 09:11:00,
2013-05-11 05:12:00,60.4,59.0,29.78,South,175,1.0,4.0,95,0.01,,,0.25,VWS V14.01,2013-05-11 09:12:00,
2013-05-11 05:13:00,60.4,59.0,29.78,South,175,0.0,4.0,95,0.01,,,0.25,VWS V14.01,2013-05-11 09:13:00,
2013-05-11 05:14:00,60.4,59.0,29.78,South,175,1.0,4.0,95,0.01,,,0.25,VWS V14.01,2013-05-11 09:14:00,
2013-05-11 05:15:00,60.4,59.0,29.78,South,175,0.0,4.0,95,0.01,,,0.25,VWS V14.01,2013-05-11 09:15:00,
2013-05-11 05:16:00,60.4,59.0,29.78,South,175,0.0,4.0,95,0.01,,,0.25,VWS V14.01,2013-05-11 09:16:00,
2013-05-11 05:17:00,60.4,59.0,29.78,South,175,0.0,4.0,95,0.01,,,0.25,VWS V14.01,2013-05-11 09:17:00,
2013-05-11 05:18:00,60.4,59.0,29.78,SSE,152,0.0,4.0,95,0.01,,,0.25,VWS V14.01,2013-05-11 09:18:00,
2013-05-11 05:19:00,60.4,59.0,29.78,SSE,152,2.0,4.0,95,0.01,,,0.25,VWS V14.01,2013-05-11 09:19:00,
2013-05-11 05:20:00,60.4,59.0,29.78,SSE,153,0.0,4.0,95,0.01,,,0.25,VWS V14.01,2013-05-11 09:20:00,
2013-05-11 05:21:00,60.4,59.0,29.78,SSE,153,0.0,0.0,95,0.01,,,0.25,VWS V14.01,2013-05-11 09:21:00,
2013-05-11 05:22:00,60.5,59.1,29.78,SSE,153,0.0,1.0,95,0.01,,,0.25,VWS V14.01,2013-05-11 09:22:00,
2013-05-11 05:23:00,60.4,59.0,29.78,SE,143,1.0,5.0,95,0.01,,,0.25,VWS V14.01,2013-05-11 09:23:00,
2013-05-11 05:24:00,60.4,59.0,29.78,SE,143,0.0,5.0,95,0.01,,,0.25,VWS V14.01,2013-05-11 09:24:00,
2013-05-11 05:25:00,60.5,59.1,29.78,SE,145,0.0,5.0,95,0.01,,,0.25,VWS V14.01,2013-05-11 09:25:00,
2013-05-11 05:26:00,60.5,59.1,29.78,SE,145,0.0,5.0,95,0.01,,,0.25,VWS V14.01,2013-05-11 09:26:00,
2013-05-11 05:27:00,60.5,59.1,29.78,SE,145,0.0,5.0,95,0.01,,,0.25,VWS V14.01,2013-05-11 09:27:00,
2013-05-11 05:28:00,60.5,59.1,29.78,West,272,2.0,5.0,95,0.01,,,0.25,VWS V14.01,2013-05-11 09:28:00,
2013-05-11 05:29:00,60.5,59.1,29.78,West,273,0.0,5.0,95,0.01,,,0.25,VWS V14.01,2013-05-11 09:29:00,
2013-05-11 05:30:00,60.5,59.1,29.77,West,274,3.0,5.0,95,0.01,,,0.25,VWS V14.01,2013-05-11 09:30:00,
2013-05-11 05:31:00,60.5,59.1,29.77,WNW,285,0.0,4.0,95,0.01,,,0.25,VWS V14.01,2013-05-11 09:31:00,
2013-05-11 05:32:00,60.5,59.1,29.77,WNW,285,0.0,4.0,95,0.01,,,0.25,VWS V14.01,2013-05-11 09:32:00,
2013-05-11 05:33:00,60.5,59.1,29.77,WNW,285,2.0,4.0,95,0.01,,,0.25,VWS V14.01,2013-05-11 09:33:00,
2013-05-11 05:34:00,60.5,59.1,29.77,WNW,285,3.0,4.0,95,0.01,,,0.25,VWS V14.01,2013-05-11 09:34:00,
2013-05-11 05:35:00,60.5,59.1,29.77,WNW,285,0.0,4.0,95,0.01,,,0.25,VWS V14.01,2013-05-11 09:35:00,
2013-05-11 05:36:00,60.5,59.1,29.77,WNW,285,0.0,4.0,95,0.01,,,0.25,VWS V14.01,2013-05-11 09:36:00,
2013-05-11 05:37:00,60.5,59.1,29.77,West,277,1.0,4.0,95,0.01,,,0.25,VWS V14.01,2013-05-11 09:37:00,
2013-05-11 05:38:00,60.5,59.1,29.77,West,277,0.0,4.0,95,0.01,,,0.25,VWS V14.01,2013-05-11 09:38:00,
2013-05-11 05:39:00,60.5,59.1,29.77,West,277,0.0,4.0,95,0.01,,,0.25,VWS V14.01,2013-05-11 09:39:00,
2013-05-11 05:40:00,60.5,59.1,29.77,West,277,0.0,4.0,95,0.01,,,0.25,VWS V14.01,2013-05-11 09:40:00,
2013-05-11 05:41:00,60.5,59.1,29.77,West,277,0.0,0.0,95,0.01,,,0.25,VWS V14.01,2013-05-11 09:41:00,
2013-05-11 05:42:00,60.5,59.1,29.77,West,277,0.0,2.0,95,0.01,,,0.25,VWS V14.01,2013-05-11 09:42:00,
2013-05-11 05:43:00,60.5,59.1,29.77,West,277,0.0,2.0,95,0.01,,,0.25,VWS V14.01,2013-05-11 09:43:00,
2013-05-11 05:44:00,60.5,59.1,29.77,West,277,1.0,2.0,95,0.01,,,0.25,VWS V14.01,2013-05-11 09:44:00,
2013-05-11 05:45:00,60.5,59.1,29.77,West,277,0.0,2.0,95,0.01,,,0.25,VWS V14.01,2013-05-11 09:45:00,
2013-05-11 05:46:00,60.5,59.1,29.77,West,277,0.0,2.0,95,0.01,,,0.25,VWS V14.01,2013-05-11 09:46:00,
2013-05-11 05:47:00,60.5,59.1,29.77,West,277,0.0,2.0,95,0.01,,,0.25,VWS V14.01,2013-05-11 09:47:00,
2013-05-11 05:48:00,60.5,59.1,29.77,West,277,0.0,2.0,95,0.01,,,0.25,VWS V14.01,2013-05-11 09:48:00,
2013-05-11 05:49:00,60.5,59.1,29.77,West,277,0.0,2.0,95,0.01,,,0.25,VWS V14.01,2013-05-11 09:49:00,
2013-05-11 05:50:00,60.5,59.1,29.77,West,277,0.0,2.0,95,0.01,,,0.25,VWS V14.01,2013-05-11 09:50:00,
2013-05-11 05:51:00,60.5,59.1,29.77,West,277,0.0,0.0,95,0.00,,,0.25,VWS V14.01,2013-05-11 09:51:00,
2013-05-11 05:52:00,60.5,59.1,29.77,West,277,0.0,0.0,95,0.00,,,0.25,VWS V14.01,2013-05-11 09:52:00,
2013-05-11 05:53:00,60.5,59.1,29.77,West,277,1.0,1.0,95,0.00,,,0.25,VWS V14.01,2013-05-11 09:53:00,
2013-05-11 05:54:00,60.5,59.1,29.77,West,280,0.0,2.0,95,0.00,,,0.25,VWS V14.01,2013-05-11 09:54:00,
2013-05-11 05:55:00,60.5,59.1,29.77,West,280,0.0,2.0,95,0.00,,,0.25,VWS V14.01,2013-05-11 09:55:00,
2013-05-11 05:56:00,60.5,59.1,29.77,West,280,2.0,3.0,95,0.00,,,0.25,VWS V14.01,2013-05-11 09:56:00,
2013-05-11 05:57:00,60.5,59.1,29.77,West,279,3.0,3.0,95,0.00,,,0.25,VWS V14.01,2013-05-11 09:57:00,
2013-05-11 05:58:00,60.5,59.1,29.77,West,280,0.0,3.0,95,0.00,,,0.25,VWS V14.01,2013-05-11 09:58:00,
2013-05-11 05:59:00,60.5,59.1,29.77,West,280,0.0,3.0,95,0.00,,,0.25,VWS V14.01,2013-05-11 09:59:00,
2013-05-11 06:00:00,60.5,59.1,29.77,West,279,0.0,3.0,95,0.00,,,0.25,VWS V14.01,2013-05-11 10:00:00,
2013-05-11 06:01:00,60.5,59.1,29.77,West,279,0.0,0.0,95,0.00,,,0.25,VWS V14.01,2013-05-11 10:01:00,
2013-05-11 06:02:00,60.5,59.1,29.77,West,279,0.0,0.0,95,0.00,,,0.25,VWS V14.01,2013-05-11 10:02:00,
2013-05-11 06:03:00,60.5,59.1,29.77,ESE,105,0.0,4.0,95,0.00,,,0.25,VWS V14.01,2013-05-11 10:03:00,
2013-05-11 06:04:00,60.5,59.1,29.77,ESE,105,1.0,4.0,95,0.00,,,0.25,VWS V14.01,2013-05-11 10:04:00,
2013-05-11 06:05:00,60.5,59.1,29.77,ESE,105,0.0,4.0,95,0.00,,,0.25,VWS V14.01,2013-05-11 10:05:00,
2013-05-11 06:06:00,60.5,59.1,29.77,ESE,105,0.0,4.0,95,0.00,,,0.25,VWS V14.01,2013-05-11 10:06:00,
2013-05-11 06:07:00,60.5,59.1,29.77,ESE,105,0.0,4.0,95,0.00,,,0.25,VWS V14.01,2013-05-11 10:07:00,
2013-05-11 06:08:00,60.5,59.1,29.77,ESE,105,0.0,4.0,95,0.00,,,0.25,VWS V14.01,2013-05-11 10:08:00,
2013-05-11 06:09:00,60.5,59.1,29.77,West,277,2.0,4.0,95,0.00,,,0.25,VWS V14.01,2013-05-11 10:09:00,
2013-05-11 06:10:00,60.5,59.1,29.77,West,277,2.0,4.0,95,0.00,,,0.25,VWS V14.01,2013-05-11 10:10:00,
2013-05-11 06:11:00,60.5,59.1,29.77,West,277,0.0,3.0,95,0.00,,,0.25,VWS V14.01,2013-05-11 10:11:00,
2013-05-11 06:12:00,60.5,59.1,29.77,South,184,0.0,3.0,95,0.00,,,0.25,VWS V14.01,2013-05-11 10:12:00,
2013-05-11 06:13:00,60.5,59.1,29.77,South,184,0.0,3.0,95,0.00,,,0.25,VWS V14.01,2013-05-11 10:13:00,
2013-05-11 06:14:00,60.5,59.1,29.77,South,184,0.0,3.0,95,0.00,,,0.25,VWS V14.01,2013-05-11 10:14:00,
2013-05-11 06:15:00,60.5,59.1,29.77,South,184,0.0,3.0,95,0.00,,,0.25,VWS V14.01,2013-05-11 10:15:00,
2013-05-11 06:16:00,60.5,59.1,29.77,South,184,0.0,3.0,95,0.00,,,0.25,VWS V14.01,2013-05-11 10:16:00,
2013-05-11 06:17:00,60.5,59.1,29.77,South,184,0.0,3.0,95,0.00,,,0.25,VWS V14.01,2013-05-11 10:17:00,
2013-05-11 06:18:00,60.5,59.1,29.77,South,184,0.0,3.0,95,0.00,,,0.25,VWS V14.01,2013-05-11 10:18:00,
2013-05-11 06:19:00,60.5,59.1,29.77,South,184,0.0,3.0,95,0.00,,,0.25,VWS V14.01,2013-05-11 10:19:00,
2013-05-11 06:20:00,60.6,59.2,29.77,South,184,0.0,3.0,95,0.00,,,0.25,VWS V14.01,2013-05-11 10:20:00,
2013-05-11 06:21:00,60.6,59.2,29.77,South,184,0.0,1.0,95,0.00,,,0.25,VWS V14.01,2013-05-11 10:21:00,
2013-05-11 06:22:00,60.6,59.2,29.77,South,184,0.0,1.0,95,0.00,,,0.25,VWS V14.01,2013-05-11 10:22:00,
2013-05-11 06:23:00,60.6,59.2,29.77,South,184,0.0,1.0,95,0.00,,,0.25,VWS V14.01,2013-05-11 10:23:00,
2013-05-11 06:24:00,60.6,59.2,29.77,ENE,78,0.0,2.0,95,0.00,,,0.25,VWS V14.01,2013-05-11 10:24:00,
2013-05-11 06:25:00,60.6,59.2,29.77,ENE,78,0.0,2.0,95,0.00,,,0.25,VWS V14.01,2013-05-11 10:25:00,
2013-05-11 06:26:00,60.6,59.2,29.77,ENE,78,0.0,2.0,95,0.00,,,0.25,VWS V14.01,2013-05-11 10:26:00,
2013-05-11 06:27:00,60.6,59.2,29.77,ENE,78,0.0,2.0,95,0.00,,,0.25,VWS V14.01,2013-05-11 10:27:00,
2013-05-11 06:28:00,60.6,59.2,29.77,ENE,78,0.0,2.0,95,0.00,,,0.25,VWS V14.01,2013-05-11 10:28:00,
2013-05-11 06:29:00,60.6,59.2,29.77,ENE,78,0.0,2.0,95,0.00,,,0.25,VWS V14.01,2013-05-11 10:29:00,
2013-05-11 06:30:00,60.6,59.2,29.77,ENE,78,0.0,2.0,95,0.00,,,0.25,VWS V14.01,2013-05-11 10:30:00,
2013-05-11 06:31:00,60.6,59.2,29.77,ENE,78,0.0,0.0,95,0.00,,,0.25,VWS V14.01,2013-05-11 10:31:00,
2013-05-11 06:32:00,60.7,59.3,29.77,ENE,78,0.0,0.0,95,0.00,,,0.25,VWS V14.01,2013-05-11 10:32:00,
2013-05-11 06:33:00,60.7,59.3,29.77,ENE,78,0.0,0.0,95,0.00,,,0.25,VWS V14.01,2013-05-11 10:33:00,
2013-05-11 06:34:00,60.7,59.3,29.77,ENE,78,0.0,0.0,95,0.00,,,0.25,VWS V14.01,2013-05-11 10:34:00,
2013-05-11 06:35:00,60.7,59.3,29.77,ENE,78,0.0,0.0,95,0.00,,,0.25,VWS V14.01,2013-05-11 10:35:00,
2013-05-11 06:36:00,60.7,59.3,29.77,ENE,78,0.0,0.0,95,0.00,,,0.25,VWS V14.01,2013-05-11 10:36:00,
2013-05-11 06:37:00,60.7,59.3,29.77,ENE,78,0.0,0.0,95,0.00,,,0.25,VWS V14.01,2013-05-11 10:37:00,
2013-05-11 06:38:00,60.7,59.3,29.77,ENE,78,0.0,0.0,95,0.00,,,0.25,VWS V14.01,2013-05-11 10:38:00,
2013-05-11 06:39:00,60.7,59.3,29.77,NNE,13,3.0,3.0,95,0.00,,,0.25,VWS V14.01,2013-05-11 10:39:00,
2013-05-11 06:40:00,60.7,59.3,29.77,West,263,2.0,4.0,95,0.00,,,0.25,VWS V14.01,2013-05-11 10:40:00,
2013-05-11 06:41:00,60.8,59.4,29.77,West,263,0.0,2.0,95,0.00,,,0.25,VWS V14.01,2013-05-11 10:41:00,
2013-05-11 06:42:00,60.8,59.4,29.77,West,267,2.0,3.0,95,0.00,,,0.25,VWS V14.01,2013-05-11 10:42:00,
2013-05-11 06:43:00,60.8,59.4,29.77,WNW,298,2.0,3.0,95,0.00,,,0.25,VWS V14.01,2013-05-11 10:43:00,
2013-05-11 06:44:00,60.8,59.4,29.77,WNW,298,0.0,3.0,95,0.00,,,0.25,VWS V14.01,2013-05-11 10:44:00,
2013-05-11 06:45:00,60.8,59.4,29.77,WNW,298,0.0,3.0,95,0.00,,,0.25,VWS V14.01,2013-05-11 10:45:00,
2013-05-11 06:46:00,60.9,59.5,29.77,WNW,298,0.0,3.0,95,0.00,,,0.25,VWS V14.01,2013-05-11 10:46:00,
2013-05-11 06:47:00,60.9,59.5,29.77,WNW,298,0.0,3.0,95,0.00,,,0.25,VWS V14.01,2013-05-11 10:47:00,
2013-05-11 06:48:00,60.9,59.5,29.77,WNW,298,2.0,3.0,95,0.00,,,0.25,VWS V14.01,2013-05-11 10:48:00,
2013-05-11 06:49:00,60.9,59.5,29.77,WNW,298,0.0,3.0,95,0.00,,,0.25,VWS V14.01,2013-05-11 10:49:00,
2013-05-11 06:50:00,60.9,59.5,29.77,WNW,298,0.0,3.0,95,0.00,,,0.25,VWS V14.01,2013-05-11 10:50:00,
2013-05-11 06:51:00,60.9,59.5,29.77,WNW,298,0.0,0.0,95,0.00,,,0.25,VWS V14.01,2013-05-11 10:51:00,
2013-05-11 06:52:00,60.9,59.5,29.77,WNW,298,0.0,0.0,95,0.00,,,0.25,VWS V14.01,2013-05-11 10:52:00,
2013-05-11 06:53:00,61.0,59.6,29.77,WNW,298,0.0,0.0,95,0.00,,,0.25,VWS V14.01,2013-05-11 10:53:00,
2013-05-11 06:54:00,61.0,59.6,29.77,WNW,298,0.0,0.0,95,0.00,,,0.25,VWS V14.01,2013-05-11 10:54:00,
2013-05-11 06:55:00,61.0,59.6,29.77,WNW,298,0.0,1.0,95,0.00,,,0.25,VWS V14.01,2013-05-11 10:55:00,
2013-05-11 06:56:00,61.1,59.7,29.77,WNW,298,0.0,1.0,95,0.00,,,0.25,VWS V14.01,2013-05-11 10:56:00,
2013-05-11 06:57:00,61.1,59.7,29.77,WNW,298,0.0,1.0,95,0.00,,,0.25,VWS V14.01,2013-05-11 10:57:00,
2013-05-11 06:58:00,61.1,59.7,29.77,WNW,294,1.0,1.0,95,0.00,,,0.25,VWS V14.01,2013-05-11 10:58:00,
2013-05-11 06:59:00,61.1,59.7,29.77,NW,313,0.0,2.0,95,0.00,,,0.25,VWS V14.01,2013-05-11 10:59:00,
2013-05-11 07:00:00,61.1,59.7,29.77,NW,314,0.0,2.0,95,0.00,,,0.25,VWS V14.01,2013-05-11 11:00:00,
2013-05-11 07:01:00,61.1,59.7,29.77,NW,314,0.0,0.0,95,0.00,,,0.25,VWS V14.01,2013-05-11 11:01:00,
2013-05-11 07:02:00,61.1,59.7,29.77,NW,314,0.0,0.0,95,0.00,,,0.25,VWS V14.01,2013-05-11 11:02:00,
2013-05-11 07:03:00,61.1,59.7,29.77,NW,314,0.0,0.0,95,0.00,,,0.25,VWS V14.01,2013-05-11 11:03:00,
2013-05-11 07:04:00,61.1,59.7,29.77,NW,314,0.0,0.0,95,0.00,,,0.25,VWS V14.01,2013-05-11 11:04:00,
2013-05-11 07:05:00,61.1,59.7,29.77,NW,313,0.0,0.0,95,0.00,,,0.25,VWS V14.01,2013-05-11 11:05:00,
2013-05-11 07:06:00,61.2,59.8,29.77,NW,314,0.0,0.0,95,0.00,,,0.25,VWS V14.01,2013-05-11 11:06:00,
2013-05-11 07:07:00,61.2,59.8,29.77,NW,314,0.0,1.0,95,0.00,,,0.25,VWS V14.01,2013-05-11 11:07:00,
2013-05-11 07:08:00,61.2,59.8,29.77,NW,314,0.0,1.0,95,0.00,,,0.25,VWS V14.01,2013-05-11 11:08:00,
2013-05-11 07:09:00,61.2,59.8,29.77,NW,313,0.0,1.0,95,0.00,,,0.25,VWS V14.01,2013-05-11 11:09:00,
2013-05-11 07:10:00,61.2,59.8,29.77,NW,314,0.0,1.0,95,0.00,,,0.25,VWS V14.01,2013-05-11 11:10:00,
2013-05-11 07:11:00,61.2,59.8,29.77,NW,306,1.0,3.0,95,0.00,,,0.25,VWS V14.01,2013-05-11 11:11:00,
2013-05-11 07:12:00,61.3,59.9,29.77,NW,306,0.0,3.0,95,0.00,,,0.25,VWS V14.01,2013-05-11 11:12:00,
2013-05-11 07:13:00,61.3,59.9,29.77,NW,306,0.0,3.0,95,0.00,,,0.25,VWS V14.01,2013-05-11 11:13:00,
2013-05-11 07:14:00,61.3,59.9,29.77,NW,306,2.0,3.0,95,0.00,,,0.25,VWS V14.01,2013-05-11 11:14:00,
2013-05-11 07:15:00,61.3,59.9,29.77,WSW,249,0.0,4.0,95,0.00,,,0.25,VWS V14.01,2013-05-11 11:15:00,
2013-05-11 07:16:00,61.4,60.0,29.77,West,278,3.0,7.0,95,0.00,,,0.25,VWS V14.01,2013-05-11 11:16:00,
2013-05-11 07:17:00,61.4,60.0,29.77,West,278,0.0,7.0,95,0.00,,,0.25,VWS V14.01,2013-05-11 11:17:00,
2013-05-11 07:18:00,61.4,60.0,29.77,West,259,4.0,7.0,95,0.00,,,0.25,VWS V14.01,2013-05-11 11:18:00,
2013-05-11 07:19:00,61.4,60.0,29.77,West,259,0.0,7.0,95,0.00,,,0.25,VWS V14.01,2013-05-11 11:19:00,
2013-05-11 07:20:00,61.4,60.0,29.77,West,259,3.0,7.0,95,0.00,,,0.25,VWS V14.01,2013-05-11 11:20:00,
2013-05-11 07:21:00,61.4,60.0,29.77,West,259,0.0,3.0,95,0.00,,,0.25,VWS V14.01,2013-05-11 11:21:00,
2013-05-11 07:22:00,61.5,60.1,29.77,West,259,0.0,3.0,95,0.00,,,0.25,VWS V14.01,2013-05-11 11:22:00,
2013-05-11 07:23:00,61.5,60.1,29.77,WSW,256,0.0,4.0,95,0.00,,,0.25,VWS V14.01,2013-05-11 11:23:00,
2013-05-11 07:24:00,61.5,60.1,29.77,WSW,257,0.0,4.0,95,0.00,,,0.25,VWS V14.01,2013-05-11 11:24:00,
2013-05-11 07:25:00,61.5,60.1,29.77,WSW,257,0.0,4.0,95,0.00,,,0.25,VWS V14.01,2013-05-11 11:25:00,
2013-05-11 07:26:00,61.6,60.2,29.77,West,265,5.0,5.0,95,0.00,,,0.25,VWS V14.01,2013-05-11 11:26:00,
2013-05-11 07:27:00,61.6,60.2,29.77,West,265,0.0,5.0,95,0.00,,,0.25,VWS V14.01,2013-05-11 11:27:00,
2013-05-11 07:28:00,61.6,60.2,29.77,West,265,0.0,5.0,95,0.00,,,0.25,VWS V14.01,2013-05-11 11:28:00,
2013-05-11 07:29:00,61.6,60.2,29.77,West,265,2.0,5.0,95,0.00,,,0.25,VWS V14.01,2013-05-11 11:29:00,
2013-05-11 07:30:00,61.7,60.3,29.78,West,265,0.0,5.0,95,0.00,,,0.25,VWS V14.01,2013-05-11 11:30:00,
2013-05-11 07:31:00,61.7,60.3,29.78,WNW,282,3.0,6.0,95,0.00,,,0.25,VWS V14.01,2013-05-11 11:31:00,
2013-05-11 07:32:00,61.7,60.3,29.78,WNW,282,0.0,6.0,95,0.00,,,0.25,VWS V14.01,2013-05-11 11:32:00,
2013-05-11 07:33:00,61.7,60.3,29.78,West,281,2.0,6.0,95,0.00,,,0.25,VWS V14.01,2013-05-11 11:33:00,
2013-05-11 07:34:00,61.7,60.3,29.78,West,281,0.0,6.0,95,0.00,,,0.25,VWS V14.01,2013-05-11 11:34:00,
2013-05-11 07:35:00,61.7,60.3,29.78,West,263,6.0,7.0,95,0.00,,,0.25,VWS V14.01,2013-05-11 11:35:00,
2013-05-11 07:36:00,61.7,60.3,29.78,WSW,258,1.0,7.0,95,0.00,,,0.25,VWS V14.01,2013-05-11 11:36:00,
2013-05-11 07:37:00,61.8,60.4,29.78,WSW,258,0.0,7.0,95,0.00,,,0.25,VWS V14.01,2013-05-11 11:37:00,
2013-05-11 07:38:00,61.8,60.4,29.78,WSW,257,2.0,7.0,95,0.00,,,0.25,VWS V14.01,2013-05-11 11:38:00,
2013-05-11 07:39:00,61.8,60.4,29.78,WNW,302,1.0,7.0,95,0.00,,,0.25,VWS V14.01,2013-05-11 11:39:00,
2013-05-11 07:40:00,61.8,60.4,29.78,WNW,302,0.0,7.0,95,0.00,,,0.25,VWS V14.01,2013-05-11 11:40:00,
2013-05-11 07:41:00,61.8,60.4,29.78,WNW,302,0.0,0.0,95,0.00,,,0.25,VWS V14.01,2013-05-11 11:41:00,
2013-05-11 07:42:00,61.8,60.4,29.78,WNW,302,2.0,2.0,95,0.00,,,0.25,VWS V14.01,2013-05-11 11:42:00,
2013-05-11 07:43:00,61.8,60.4,29.78,WNW,302,1.0,2.0,95,0.00,,,0.25,VWS V14.01,2013-05-11 11:43:00,
2013-05-11 07:44:00,61.9,60.5,29.78,West,279,2.0,4.0,95,0.00,,,0.25,VWS V14.01,2013-05-11 11:44:00,
2013-05-11 07:45:00,61.9,60.5,29.78,West,279,0.0,4.0,95,0.00,,,0.25,VWS V14.01,2013-05-11 11:45:00,
2013-05-11 07:46:00,61.9,60.5,29.78,West,279,1.0,4.0,95,0.00,,,0.25,VWS V14.01,2013-05-11 11:46:00,
2013-05-11 07:47:00,61.9,60.5,29.78,WSW,253,3.0,6.0,95,0.00,,,0.25,VWS V14.01,2013-05-11 11:47:00,
2013-05-11 07:48:00,61.9,60.5,29.78,West,260,0.0,6.0,95,0.00,,,0.25,VWS V14.01,2013-05-11 11:48:00,
2013-05-11 07:49:00,61.9,60.5,29.78,SSE,167,3.0,6.0,95,0.00,,,0.25,VWS V14.01,2013-05-11 11:49:00,
2013-05-11 07:50:00,61.9,60.5,29.78,WSW,245,1.0,6.0,95,0.00,,,0.25,VWS V14.01,2013-05-11 11:50:00,
2013-05-11 07:51:00,61.9,60.5,29.78,WSW,245,1.0,1.0,95,0.00,,,0.25,VWS V14.01,2013-05-11 11:51:00,
2013-05-11 07:52:00,61.9,60.5,29.78,SE,142,0.0,4.0,95,0.00,,,0.25,VWS V14.01,2013-05-11 11:52:00,
2013-05-11 07:53:00,62.0,60.6,29.78,SSE,167,0.0,4.0,95,0.00,,,0.25,VWS V14.01,2013-05-11 11:53:00,
2013-05-11 07:54:00,62.0,60.6,29.78,SW,216,3.0,5.0,95,0.00,,,0.25,VWS V14.01,2013-05-11 11:54:00,
2013-05-11 07:55:00,62.0,60.6,29.78,WNW,292,3.0,5.0,95,0.00,,,0.25,VWS V14.01,2013-05-11 11:55:00,
2013-05-11 07:56:00,62.0,60.6,29.78,WSW,246,3.0,5.0,95,0.00,,,0.25,VWS V14.01,2013-05-11 11:56:00,
2013-05-11 07:57:00,62.0,60.6,29.78,WSW,237,0.0,5.0,95,0.00,,,0.25,VWS V14.01,2013-05-11 11:57:00,
2013-05-11 07:58:00,62.0,60.6,29.78,West,267,3.0,5.0,95,0.00,,,0.25,VWS V14.01,2013-05-11 11:58:00,
2013-05-11 07:59:00,62.0,60.6,29.78,West,265,1.0,5.0,95,0.00,,,0.25,VWS V14.01,2013-05-11 11:59:00,
2013-05-11 08:00:00,62.0,60.6,29.78,SW,236,0.0,5.0,95,0.00,,,0.25,VWS V14.01,2013-05-11 12:00:00,
2013-05-11 08:01:00,62.0,60.6,29.78,WSW,248,3.0,4.0,95,0.00,,,0.25,VWS V14.01,2013-05-11 12:01:00,
2013-05-11 08:02:00,62.1,60.7,29.78,WSW,248,0.0,4.0,95,0.00,,,0.25,VWS V14.01,2013-05-11 12:02:00,
2013-05-11 08:03:00,62.1,60.7,29.78,WSW,254,1.0,4.0,95,0.00,,,0.25,VWS V14.01,2013-05-11 12:03:00,
2013-05-11 08:04:00,62.1,60.7,29.78,WSW,246,1.0,4.0,95,0.00,,,0.25,VWS V14.01,2013-05-11 12:04:00,
2013-05-11 08:05:00,62.1,60.7,29.78,WSW,246,0.0,4.0,95,0.00,,,0.25,VWS V14.01,2013-05-11 12:05:00,
2013-05-11 08:06:00,62.1,60.7,29.78,SSW,201,1.0,4.0,95,0.00,,,0.25,VWS V14.01,2013-05-11 12:06:00,
2013-05-11 08:07:00,62.2,60.8,29.78,SSW,201,0.0,4.0,95,0.00,,,0.25,VWS V14.01,2013-05-11 12:07:00,
2013-05-11 08:08:00,62.2,60.8,29.78,SSW,201,1.0,4.0,95,0.00,,,0.25,VWS V14.01,2013-05-11 12:08:00,
2013-05-11 08:09:00,62.2,60.8,29.78,SSW,208,0.0,4.0,95,0.00,,,0.25,VWS V14.01,2013-05-11 12:09:00,
2013-05-11 08:10:00,62.3,60.8,29.78,WSW,248,4.0,4.0,95,0.00,,,0.25,VWS V14.01,2013-05-11 12:10:00,
2013-05-11 08:11:00,62.3,60.8,29.78,West,277,0.0,5.0,95,0.00,,,0.25,VWS V14.01,2013-05-11 12:11:00,
2013-05-11 08:12:00,62.3,60.8,29.78,SW,219,1.0,5.0,95,0.00,,,0.25,VWS V14.01,2013-05-11 12:12:00,
2013-05-11 08:13:00,62.3,60.8,29.78,WSW,253,4.0,5.0,95,0.00,,,0.25,VWS V14.01,2013-05-11 12:13:00,
2013-05-11 08:14:00,62.3,60.8,29.78,WSW,253,0.0,5.0,95,0.00,,,0.25,VWS V14.01,2013-05-11 12:14:00,
2013-05-11 08:15:00,62.3,60.8,29.77,SW,232,3.0,5.0,95,0.00,,,0.25,VWS V14.01,2013-05-11 12:15:00,
2013-05-11 08:16:00,62.3,60.8,29.77,ESE,119,3.0,5.0,95,0.00,,,0.25,VWS V14.01,2013-05-11 12:16:00,
2013-05-11 08:17:00,62.4,61.0,29.77,SE,144,0.0,5.0,95,0.00,,,0.25,VWS V14.01,2013-05-11 12:17:00,
2013-05-11 08:18:00,62.4,61.0,29.77,SE,144,0.0,5.0,95,0.00,,,0.25,VWS V14.01,2013-05-11 12:18:00,
2013-05-11 08:19:00,62.4,61.0,29.77,SSE,155,0.0,5.0,95,0.00,,,0.25,VWS V14.01,2013-05-11 12:19:00,
2013-05-11 08:20:00,62.4,61.0,29.77,SSE,155,0.0,5.0,95,0.00,,,0.25,VWS V14.01,2013-05-11 12:20:00,
2013-05-11 08:21:00,62.5,61.0,29.77,SSE,155,0.0,1.0,95,0.00,,,0.25,VWS V14.01,2013-05-11 12:21:00,
2013-05-11 08:22:00,62.5,61.0,29.77,SSE,155,2.0,2.0,95,0.00,,,0.25,VWS V14.01,2013-05-11 12:22:00,
2013-05-11 08:23:00,62.5,61.0,29.77,SSE,155,2.0,2.0,95,0.00,,,0.25,VWS V14.01,2013-05-11 12:23:00,
2013-05-11 08:24:00,62.5,61.0,29.77,SSE,156,1.0,2.0,95,0.00,,,0.25,VWS V14.01,2013-05-11 12:24:00,
2013-05-11 08:25:00,62.5,61.0,29.77,SSE,158,0.0,2.0,95,0.00,,,0.25,VWS V14.01,2013-05-11 12:25:00,
2013-05-11 08:26:00,62.5,61.0,29.77,ESE,112,0.0,3.0,95,0.00,,,0.25,VWS V14.01,2013-05-11 12:26:00,
2013-05-11 08:27:00,62.6,61.2,29.77,ESE,112,2.0,3.0,95,0.00,,,0.25,VWS V14.01,2013-05-11 12:27:00,
2013-05-11 08:28:00,62.6,61.2,29.77,ESE,113,0.0,3.0,95,0.00,,,0.25,VWS V14.01,2013-05-11 12:28:00,
2013-05-11 08:29:00,62.6,61.2,29.77,ESE,113,0.0,3.0,95,0.00,,,0.25,VWS V14.01,2013-05-11 12:29:00,
2013-05-11 08:30:00,62.6,61.2,29.77,SSW,209,0.0,4.0,95,0.00,,,0.25,VWS V14.01,2013-05-11 12:30:00,
2013-05-11 08:31:00,62.6,61.2,29.77,WSW,258,0.0,3.0,95,0.00,,,0.25,VWS V14.01,2013-05-11 12:31:00,
2013-05-11 08:32:00,62.6,61.2,29.77,WSW,258,4.0,4.0,95,0.00,,,0.25,VWS V14.01,2013-05-11 12:32:00,
2013-05-11 08:33:00,62.7,61.2,29.77,West,260,0.0,4.0,95,0.00,,,0.25,VWS V14.01,2013-05-11 12:33:00,
2013-05-11 08:34:00,62.7,61.2,29.77,West,260,0.0,4.0,95,0.00,,,0.25,VWS V14.01,2013-05-11 12:34:00,
2013-05-11 08:35:00,62.8,61.3,29.77,SW,226,3.0,4.0,95,0.00,,,0.25,VWS V14.01,2013-05-11 12:35:00,
2013-05-11 08:36:00,62.9,61.5,29.77,SSE,160,2.0,4.0,95,0.00,,,0.25,VWS V14.01,2013-05-11 12:36:00,
2013-05-11 08:37:00,62.9,61.5,29.77,SSW,209,4.0,7.0,95,0.00,,,0.25,VWS V14.01,2013-05-11 12:37:00,
2013-05-11 08:38:00,63.0,61.5,29.77,West,272,0.0,7.0,95,0.00,,,0.25,VWS V14.01,2013-05-11 12:38:00,
2013-05-11 08:39:00,63.1,61.7,29.77,West,271,2.0,7.0,95,0.00,,,0.25,VWS V14.01,2013-05-11 12:39:00,
2013-05-11 08:40:00,63.2,61.8,29.77,SE,128,1.0,7.0,95,0.00,,,0.25,VWS V14.01,2013-05-11 12:40:00,
2013-05-11 08:41:00,63.3,61.8,29.77,SE,136,1.0,3.0,95,0.00,,,0.25,VWS V14.01,2013-05-11 12:41:00,
2013-05-11 08:42:00,63.3,61.8,29.77,SE,140,1.0,3.0,95,0.00,,,0.25,VWS V14.01,2013-05-11 12:42:00,
2013-05-11 08:43:00,63.4,62.0,29.77,SW,219,3.0,8.0,95,0.00,,,0.25,VWS V14.01,2013-05-11 12:43:00,
2013-05-11 08:44:00,63.4,61.7,29.77,SW,220,0.0,8.0,94,0.00,,,0.25,VWS V14.01,2013-05-11 12:44:00,
2013-05-11 08:45:00,63.4,62.0,29.76,SW,231,2.0,8.0,95,0.00,,,0.25,VWS V14.01,2013-05-11 12:45:00,
2013-05-11 08:46:00,63.4,62.0,29.76,SW,231,1.0,8.0,95,0.00,,,0.25,VWS V14.01,2013-05-11 12:46:00,
2013-05-11 08:47:00,63.4,61.7,29.76,WNW,288,3.0,8.0,94,0.00,,,0.25,VWS V14.01,2013-05-11 12:47:00,
2013-05-11 08:48:00,63.5,61.8,29.76,WSW,251,0.0,8.0,94,0.00,,,0.25,VWS V14.01,2013-05-11 12:48:00,
2013-05-11 08:49:00,63.5,61.8,29.76,SSW,203,0.0,8.0,94,0.00,,,0.25,VWS V14.01,2013-05-11 12:49:00,
2013-05-11 08:50:00,63.6,61.8,29.76,WSW,238,2.0,8.0,94,0.00,,,0.25,VWS V14.01,2013-05-11 12:50:00,
2013-05-11 08:51:00,63.6,61.8,29.76,SW,221,3.0,5.0,94,0.00,,,0.25,VWS V14.01,2013-05-11 12:51:00,
2013-05-11 08:52:00,63.7,62.0,29.76,WSW,257,5.0,9.0,94,0.00,,,0.25,VWS V14.01,2013-05-11 12:52:00,
2013-05-11 08:53:00,63.7,62.0,29.76,SSE,162,3.0,9.0,94,0.00,,,0.25,VWS V14.01,2013-05-11 12:53:00,
2013-05-11 08:54:00,63.8,62.0,29.76,SSE,162,0.0,9.0,94,0.00,,,0.25,VWS V14.01,2013-05-11 12:54:00,
2013-05-11 08:55:00,63.8,62.0,29.76,SSE,162,1.0,9.0,94,0.00,,,0.25,VWS V14.01,2013-05-11 12:55:00,
2013-05-11 08:56:00,63.9,62.1,29.76,SSE,167,2.0,9.0,94,0.00,,,0.25,VWS V14.01,2013-05-11 12:56:00,
2013-05-11 08:57:00,63.9,62.1,29.76,South,173,3.0,9.0,94,0.00,,,0.25,VWS V14.01,2013-05-11 12:57:00,
2013-05-11 08:58:00,64.0,62.2,29.76,South,177,0.0,9.0,94,0.00,,,0.25,VWS V14.01,2013-05-11 12:58:00,
2013-05-11 08:59:00,64.0,62.2,29.76,WNW,284,2.0,9.0,94,0.00,,,0.25,VWS V14.01,2013-05-11 12:59:00,
2013-05-11 09:00:00,64.0,62.2,29.76,West,279,2.0,9.0,94,0.00,,,0.25,VWS V14.01,2013-05-11 13:00:00,
2013-05-11 09:01:00,64.1,62.3,29.76,WSW,252,0.0,2.0,94,0.00,,,0.25,VWS V14.01,2013-05-11 13:01:00,
2013-05-11 09:02:00,64.1,62.3,29.76,SSE,160,4.0,6.0,94,0.00,,,0.25,VWS V14.01,2013-05-11 13:02:00,
2013-05-11 09:03:00,64.1,62.3,29.76,SE,136,0.0,6.0,94,0.00,,,0.25,VWS V14.01,2013-05-11 13:03:00,
2013-05-11 09:04:00,64.2,62.1,29.76,SE,137,0.0,6.0,93,0.00,,,0.25,VWS V14.01,2013-05-11 13:04:00,
2013-05-11 09:05:00,64.2,62.1,29.76,SE,137,0.0,6.0,93,0.00,,,0.25,VWS V14.01,2013-05-11 13:05:00,
2013-05-11 09:06:00,64.3,62.2,29.76,SE,137,0.0,6.0,93,0.00,,,0.25,VWS V14.01,2013-05-11 13:06:00,
2013-05-11 09:07:00,64.3,62.2,29.76,SE,138,1.0,6.0,93,0.00,,,0.25,VWS V14.01,2013-05-11 13:07:00,
2013-05-11 09:08:00,64.3,62.2,29.76,East,92,0.0,6.0,93,0.00,,,0.25,VWS V14.01,2013-05-11 13:08:00,
2013-05-11 09:09:00,64.3,62.2,29.76,SSE,153,4.0,6.0,93,0.00,,,0.25,VWS V14.01,2013-05-11 13:09:00,
2013-05-11 09:10:00,64.4,62.3,29.76,SSW,200,3.0,6.0,93,0.00,,,0.25,VWS V14.01,2013-05-11 13:10:00,
2013-05-11 09:11:00,64.4,62.3,29.76,SSW,200,0.0,3.0,93,0.00,,,0.25,VWS V14.01,2013-05-11 13:11:00,
2013-05-11 09:12:00,64.4,62.3,29.76,SSW,200,0.0,3.0,93,0.00,,,0.25,VWS V14.01,2013-05-11 13:12:00,
2013-05-11 09:13:00,64.4,62.3,29.76,SE,134,3.0,4.0,93,0.00,,,0.25,VWS V14.01,2013-05-11 13:13:00,
2013-05-11 09:14:00,64.5,62.4,29.76,ENE,57,2.0,6.0,93,0.00,,,0.25,VWS V14.01,2013-05-11 13:14:00,
2013-05-11 09:15:00,64.5,62.4,29.76,ENE,57,1.0,6.0,93,0.00,,,0.25,VWS V14.01,2013-05-11 13:15:00,
2013-05-11 09:16:00,64.5,62.1,29.76,SSE,152,2.0,6.0,92,0.00,,,0.25,VWS V14.01,2013-05-11 13:16:00,
2013-05-11 09:17:00,64.6,62.2,29.76,SSW,207,0.0,6.0,92,0.00,,,0.25,VWS V14.01,2013-05-11 13:17:00,
2013-05-11 09:18:00,64.6,62.2,29.76,SW,219,2.0,6.0,92,0.00,,,0.25,VWS V14.01,2013-05-11 13:18:00,
2013-05-11 09:19:00,64.6,62.2,29.76,SW,219,2.0,6.0,92,0.00,,,0.25,VWS V14.01,2013-05-11 13:19:00,
2013-05-11 09:20:00,64.7,62.3,29.76,SE,139,1.0,6.0,92,0.00,,,0.25,VWS V14.01,2013-05-11 13:20:00,
2013-05-11 09:21:00,64.7,62.3,29.76,SE,139,0.0,1.0,92,0.00,,,0.25,VWS V14.01,2013-05-11 13:21:00,
2013-05-11 09:22:00,64.7,62.3,29.76,SE,139,0.0,1.0,92,0.00,,,0.25,VWS V14.01,2013-05-11 13:22:00,
2013-05-11 09:23:00,64.8,62.4,29.76,SE,125,0.0,1.0,92,0.00,,,0.25,VWS V14.01,2013-05-11 13:23:00,
2013-05-11 09:24:00,64.8,62.4,29.76,SE,125,0.0,1.0,92,0.00,,,0.25,VWS V14.01,2013-05-11 13:24:00,
2013-05-11 09:25:00,64.8,62.4,29.76,SE,140,2.0,3.0,92,0.00,,,0.25,VWS V14.01,2013-05-11 13:25:00,
2013-05-11 09:26:00,64.9,62.5,29.76,SSW,203,6.0,7.0,92,0.00,,,0.25,VWS V14.01,2013-05-11 13:26:00,
2013-05-11 09:27:00,64.9,62.2,29.76,SSW,204,0.0,7.0,91,0.00,,,0.25,VWS V14.01,2013-05-11 13:27:00,
2013-05-11 09:28:00,64.9,62.2,29.76,SSW,204,0.0,7.0,91,0.00,,,0.25,VWS V14.01,2013-05-11 13:28:00,
2013-05-11 09:29:00,64.9,62.2,29.76,SSW,204,2.0,7.0,91,0.00,,,0.25,VWS V14.01,2013-05-11 13:29:00,
2013-05-11 09:30:00,64.9,62.2,29.76,South,169,4.0,7.0,91,0.00,,,0.25,VWS V14.01,2013-05-11 13:30:00,
2013-05-11 09:31:00,64.9,62.2,29.76,WSW,250,5.0,5.0,91,0.00,,,0.25,VWS V14.01,2013-05-11 13:31:00,
2013-05-11 09:32:00,64.9,62.2,29.76,SW,219,1.0,5.0,91,0.00,,,0.25,VWS V14.01,2013-05-11 13:32:00,
2013-05-11 09:33:00,64.9,62.2,29.76,SSW,213,1.0,5.0,91,0.00,,,0.25,VWS V14.01,2013-05-11 13:33:00,
2013-05-11 09:34:00,65.0,62.3,29.76,WSW,240,2.0,5.0,91,0.00,,,0.25,VWS V14.01,2013-05-11 13:34:00,
2013-05-11 09:35:00,65.0,62.3,29.76,WSW,240,1.0,5.0,91,0.00,,,0.25,VWS V14.01,2013-05-11 13:35:00,
2013-05-11 09:36:00,65.0,62.3,29.76,WSW,238,2.0,5.0,91,0.00,,,0.25,VWS V14.01,2013-05-11 13:36:00,
2013-05-11 09:37:00,65.1,62.4,29.76,South,183,3.0,5.0,91,0.00,,,0.25,VWS V14.01,2013-05-11 13:37:00,
2013-05-11 09:38:00,65.1,62.4,29.76,West,275,6.0,6.0,91,0.00,,,0.25,VWS V14.01,2013-05-11 13:38:00,
2013-05-11 09:39:00,65.1,62.4,29.76,South,182,0.0,6.0,91,0.00,,,0.25,VWS V14.01,2013-05-11 13:39:00,
2013-05-11 09:40:00,65.1,62.4,29.76,South,182,3.0,6.0,91,0.00,,,0.25,VWS V14.01,2013-05-11 13:40:00,
2013-05-11 09:41:00,65.1,62.1,29.76,SSW,202,4.0,5.0,90,0.00,,,0.25,VWS V14.01,2013-05-11 13:41:00,
2013-05-11 09:42:00,65.1,62.1,29.76,SSW,202,0.0,5.0,90,0.00,,,0.25,VWS V14.01,2013-05-11 13:42:00,
2013-05-11 09:43:00,65.1,62.1,29.76,SSW,202,0.0,5.0,90,0.00,,,0.25,VWS V14.01,2013-05-11 13:43:00,
2013-05-11 09:44:00,65.1,62.1,29.76,SSW,204,0.0,5.0,90,0.00,,,0.25,VWS V14.01,2013-05-11 13:44:00,
2013-05-11 09:45:00,65.2,62.2,29.76,SSW,204,1.0,5.0,90,0.00,,,0.25,VWS V14.01,2013-05-11 13:45:00,
2013-05-11 09:46:00,65.2,62.2,29.76,WNW,300,1.0,6.0,90,0.00,,,0.25,VWS V14.01,2013-05-11 13:46:00,
2013-05-11 09:47:00,65.2,62.2,29.76,WNW,300,1.0,6.0,90,0.00,,,0.25,VWS V14.01,2013-05-11 13:47:00,
2013-05-11 09:48:00,65.2,62.2,29.76,West,271,4.0,6.0,90,0.00,,,0.25,VWS V14.01,2013-05-11 13:48:00,
2013-05-11 09:49:00,65.2,62.2,29.76,SSW,202,3.0,6.0,90,0.00,,,0.25,VWS V14.01,2013-05-11 13:49:00,
2013-05-11 09:50:00,65.2,62.2,29.76,WSW,237,3.0,6.0,90,0.00,,,0.25,VWS V14.01,2013-05-11 13:50:00,
2013-05-11 09:51:00,65.1,62.1,29.76,WSW,257,3.0,6.0,90,0.00,,,0.25,VWS V14.01,2013-05-11 13:51:00,
2013-05-11 09:52:00,65.1,61.8,29.76,West,281,0.0,6.0,89,0.00,,,0.25,VWS V14.01,2013-05-11 13:52:00,
2013-05-11 09:53:00,65.1,61.8,29.76,West,268,0.0,6.0,89,0.00,,,0.25,VWS V14.01,2013-05-11 13:53:00,
2013-05-11 09:54:00,65.1,61.8,29.76,West,264,5.0,7.0,89,0.00,,,0.25,VWS V14.01,2013-05-11 13:54:00,
2013-05-11 09:55:00,65.2,61.9,29.76,WSW,241,3.0,7.0,89,0.00,,,0.25,VWS V14.01,2013-05-11 13:55:00,
2013-05-11 09:56:00,65.1,61.8,29.76,SW,226,3.0,7.0,89,0.00,,,0.25,VWS V14.01,2013-05-11 13:56:00,
2013-05-11 09:57:00,65.1,61.8,29.76,South,186,5.0,7.0,89,0.00,,,0.25,VWS V14.01,2013-05-11 13:57:00,
2013-05-11 09:58:00,65.1,61.8,29.76,SSW,211,7.0,7.0,89,0.00,,,0.25,VWS V14.01,2013-05-11 13:58:00,
2013-05-11 09:59:00,65.1,61.8,29.76,WSW,245,2.0,7.0,89,0.00,,,0.25,VWS V14.01,2013-05-11 13:59:00,
2013-05-11 10:00:00,65.1,61.8,29.76,NNW,342,2.0,7.0,89,0.00,,,0.25,VWS V14.01,2013-05-11 14:00:00,
2013-05-11 10:01:00,65.1,61.8,29.76,WSW,248,0.0,2.0,89,0.00,,,0.25,VWS V14.01,2013-05-11 14:01:00,
2013-05-11 10:02:00,65.1,61.8,29.76,WSW,248,0.0,2.0,89,0.00,,,0.25,VWS V14.01,2013-05-11 14:02:00,
2013-05-11 10:03:00,65.1,61.8,29.76,WSW,248,2.0,2.0,89,0.00,,,0.25,VWS V14.01,2013-05-11 14:03:00,
2013-05-11 10:04:00,65.1,61.8,29.76,WSW,247,1.0,2.0,89,0.00,,,0.25,VWS V14.01,2013-05-11 14:04:00,
2013-05-11 10:05:00,65.1,61.8,29.76,SW,215,0.0,2.0,89,0.00,,,0.25,VWS V14.01,2013-05-11 14:05:00,
2013-05-11 10:06:00,65.1,61.8,29.76,SW,216,0.0,2.0,89,0.00,,,0.25,VWS V14.01,2013-05-11 14:06:00,
2013-05-11 10:07:00,65.1,61.8,29.76,SSW,192,0.0,2.0,89,0.00,,,0.25,VWS V14.01,2013-05-11 14:07:00,
2013-05-11 10:08:00,65.1,61.8,29.76,SSW,192,0.0,3.0,89,0.00,,,0.25,VWS V14.01,2013-05-11 14:08:00,
2013-05-11 10:09:00,65.1,61.8,29.76,West,264,8.0,8.0,89,0.00,,,0.25,VWS V14.01,2013-05-11 14:09:00,
2013-05-11 10:10:00,65.1,61.8,29.76,WSW,238,2.0,8.0,89,0.00,,,0.25,VWS V14.01,2013-05-11 14:10:00,
2013-05-11 10:11:00,65.1,61.8,29.76,SW,236,1.0,3.0,89,0.00,,,0.25,VWS V14.01,2013-05-11 14:11:00,
2013-05-11 10:12:00,65.1,61.8,29.76,SSW,196,0.0,3.0,89,0.00,,,0.25,VWS V14.01,2013-05-11 14:12:00,
2013-05-11 10:13:00,65.1,61.8,29.76,SSW,196,0.0,4.0,89,0.00,,,0.25,VWS V14.01,2013-05-11 14:13:00,
2013-05-11 10:14:00,65.1,61.8,29.76,WSW,256,0.0,4.0,89,0.00,,,0.25,VWS V14.01,2013-05-11 14:14:00,
2013-05-11 10:15:00,65.1,61.8,29.75,WSW,256,0.0,4.0,89,0.00,,,0.25,VWS V14.01,2013-05-11 14:15:00,
2013-05-11 10:16:00,65.1,61.8,29.75,South,190,4.0,4.0,89,0.00,,,0.25,VWS V14.01,2013-05-11 14:16:00,
2013-05-11 10:17:00,65.1,61.8,29.75,SSW,209,4.0,4.0,89,0.00,,,0.25,VWS V14.01,2013-05-11 14:17:00,
2013-05-11 10:18:00,65.0,61.7,29.75,SSW,201,0.0,4.0,89,0.00,,,0.25,VWS V14.01,2013-05-11 14:18:00,
2013-05-11 10:19:00,65.0,61.7,29.75,SSW,201,1.0,4.0,89,0.00,,,0.25,VWS V14.01,2013-05-11 14:19:00,
2013-05-11 10:20:00,65.0,61.7,29.75,SSW,201,0.0,4.0,89,0.00,,,0.25,VWS V14.01,2013-05-11 14:20:00,
2013-05-11 10:21:00,65.0,61.7,29.75,SSW,202,0.0,1.0,89,0.00,,,0.25,VWS V14.01,2013-05-11 14:21:00,
2013-05-11 10:22:00,65.1,61.8,29.75,SSW,202,0.0,1.0,89,0.00,,,0.25,VWS V14.01,2013-05-11 14:22:00,
2013-05-11 10:23:00,65.1,61.8,29.75,SSW,209,0.0,2.0,89,0.00,,,0.25,VWS V14.01,2013-05-11 14:23:00,
2013-05-11 10:24:00,65.1,61.8,29.75,SSW,207,0.0,2.0,89,0.00,,,0.25,VWS V14.01,2013-05-11 14:24:00,
2013-05-11 10:25:00,65.1,61.8,29.75,SSW,213,1.0,2.0,89,0.00,,,0.25,VWS V14.01,2013-05-11 14:25:00,
2013-05-11 10:26:00,65.2,61.9,29.75,SSW,213,0.0,2.0,89,0.00,,,0.25,VWS V14.01,2013-05-11 14:26:00,
2013-05-11 10:27:00,65.2,62.2,29.75,SSW,213,0.0,2.0,90,0.00,,,0.25,VWS V14.01,2013-05-11 14:27:00,
2013-05-11 10:28:00,65.2,62.2,29.75,SSW,213,0.0,2.0,90,0.00,,,0.25,VWS V14.01,2013-05-11 14:28:00,
2013-05-11 10:29:00,65.2,62.2,29.75,WSW,257,4.0,4.0,90,0.00,,,0.25,VWS V14.01,2013-05-11 14:29:00,
2013-05-11 10:30:00,65.2,61.9,29.75,West,277,4.0,4.0,89,0.00,,,0.25,VWS V14.01,2013-05-11 14:30:00,
2013-05-11 10:31:00,65.2,61.9,29.75,NW,306,1.0,4.0,89,0.00,,,0.25,VWS V14.01,2013-05-11 14:31:00,
2013-05-11 10:32:00,65.2,61.9,29.75,NW,306,0.0,4.0,89,0.00,,,0.25,VWS V14.01,2013-05-11 14:32:00,
2013-05-11 10:33:00,65.2,61.9,29.75,NW,305,0.0,4.0,89,0.00,,,0.25,VWS V14.01,2013-05-11 14:33:00,
2013-05-11 10:34:00,65.1,61.8,29.75,NW,305,0.0,4.0,89,0.00,,,0.25,VWS V14.01,2013-05-11 14:34:00,
2013-05-11 10:35:00,65.1,61.8,29.75,NW,305,0.0,4.0,89,0.00,,,0.25,VWS V14.01,2013-05-11 14:35:00,
2013-05-11 10:36:00,65.1,61.8,29.75,NW,305,1.0,4.0,89,0.00,,,0.25,VWS V14.01,2013-05-11 14:36:00,
2013-05-11 10:37:00,65.1,61.8,29.75,WNW,300,3.0,4.0,89,0.00,,,0.25,VWS V14.01,2013-05-11 14:37:00,
2013-05-11 10:38:00,65.1,61.8,29.75,WNW,300,0.0,4.0,89,0.00,,,0.25,VWS V14.01,2013-05-11 14:38:00,
2013-05-11 10:39:00,65.1,61.8,29.75,WNW,300,0.0,4.0,89,0.00,,,0.25,VWS V14.01,2013-05-11 14:39:00,
2013-05-11 10:40:00,65.2,62.2,29.75,SSW,194,5.0,5.0,90,0.00,,,0.25,VWS V14.01,2013-05-11 14:40:00,
2013-05-11 10:41:00,65.2,61.9,29.75,SSW,196,0.0,2.0,89,0.00,,,0.25,VWS V14.01,2013-05-11 14:41:00,
2013-05-11 10:42:00,65.2,61.9,29.75,West,269,2.0,5.0,89,0.00,,,0.25,VWS V14.01,2013-05-11 14:42:00,
2013-05-11 10:43:00,65.2,61.9,29.75,West,269,0.0,5.0,89,0.00,,,0.25,VWS V14.01,2013-05-11 14:43:00,
2013-05-11 10:44:00,65.2,61.9,29.75,West,270,2.0,5.0,89,0.00,,,0.25,VWS V14.01,2013-05-11 14:44:00,
2013-05-11 10:45:00,65.2,61.9,29.75,West,269,0.0,5.0,89,0.00,,,0.25,VWS V14.01,2013-05-11 14:45:00,
2013-05-11 10:46:00,65.2,61.9,29.75,West,269,0.0,5.0,89,0.00,,,0.25,VWS V14.01,2013-05-11 14:46:00,
2013-05-11 10:47:00,65.2,61.9,29.75,West,269,0.0,5.0,89,0.00,,,0.25,VWS V14.01,2013-05-11 14:47:00,
2013-05-11 10:48:00,65.2,61.9,29.75,West,269,0.0,5.0,89,0.00,,,0.25,VWS V14.01,2013-05-11 14:48:00,
2013-05-11 10:49:00,65.2,61.9,29.75,West,266,2.0,5.0,89,0.00,,,0.25,VWS V14.01,2013-05-11 14:49:00,
2013-05-11 10:50:00,65.2,61.9,29.75,WNW,288,4.0,6.0,89,0.00,,,0.25,VWS V14.01,2013-05-11 14:50:00,
2013-05-11 10:51:00,65.2,61.9,29.75,WNW,287,0.0,3.0,89,0.00,,,0.25,VWS V14.01,2013-05-11 14:51:00,
2013-05-11 10:52:00,65.3,62.0,29.75,WNW,286,0.0,3.0,89,0.00,,,0.25,VWS V14.01,2013-05-11 14:52:00,
2013-05-11 10:53:00,65.2,61.9,29.75,WNW,286,0.0,3.0,89,0.00,,,0.25,VWS V14.01,2013-05-11 14:53:00,
2013-05-11 10:54:00,65.3,62.0,29.75,WNW,286,0.0,3.0,89,0.00,,,0.25,VWS V14.01,2013-05-11 14:54:00,
2013-05-11 10:55:00,65.2,61.9,29.75,WNW,286,0.0,3.0,89,0.00,,,0.25,VWS V14.01,2013-05-11 14:55:00,
2013-05-11 10:56:00,65.3,62.3,29.75,WNW,286,2.0,3.0,90,0.00,,,0.25,VWS V14.01,2013-05-11 14:56:00,
2013-05-11 10:57:00,65.3,62.3,29.75,WNW,295,4.0,4.0,90,0.00,,,0.25,VWS V14.01,2013-05-11 14:57:00,
2013-05-11 10:58:00,65.3,62.3,29.75,West,280,0.0,4.0,90,0.00,,,0.25,VWS V14.01,2013-05-11 14:58:00,
2013-05-11 10:59:00,65.3,62.3,29.75,WNW,288,2.0,4.0,90,0.00,,,0.25,VWS V14.01,2013-05-11 14:59:00,
2013-05-11 11:00:00,65.3,62.3,29.75,WNW,288,1.0,4.0,90,0.00,,,0.25,VWS V14.01,2013-05-11 15:00:00,
2013-05-11 11:01:00,65.3,62.3,29.75,WNW,288,0.0,2.0,90,0.00,,,0.25,VWS V14.01,2013-05-11 15:01:00,
2013-05-11 11:02:00,65.3,62.3,29.75,West,281,3.0,4.0,90,0.00,,,0.25,VWS V14.01,2013-05-11 15:02:00,
2013-05-11 11:03:00,65.3,62.3,29.75,WNW,298,2.0,5.0,90,0.00,,,0.25,VWS V14.01,2013-05-11 15:03:00,
2013-05-11 11:04:00,65.3,62.3,29.75,West,271,3.0,5.0,90,0.00,,,0.25,VWS V14.01,2013-05-11 15:04:00,
2013-05-11 11:05:00,65.3,62.0,29.75,WSW,257,3.0,5.0,89,0.00,,,0.25,VWS V14.01,2013-05-11 15:05:00,
2013-05-11 11:06:00,65.3,62.0,29.75,West,263,0.0,5.0,89,0.00,,,0.25,VWS V14.01,2013-05-11 15:06:00,
2013-05-11 11:07:00,65.3,62.0,29.75,West,263,0.0,5.0,89,0.00,,,0.25,VWS V14.01,2013-05-11 15:07:00,
2013-05-11 11:08:00,65.3,62.0,29.75,West,263,0.0,5.0,89,0.00,,,0.25,VWS V14.01,2013-05-11 15:08:00,
2013-05-11 11:09:00,65.3,62.0,29.75,West,264,2.0,5.0,89,0.00,,,0.25,VWS V14.01,2013-05-11 15:09:00,
2013-05-11 11:10:00,65.4,62.1,29.75,WSW,242,5.0,5.0,89,0.00,,,0.25,VWS V14.01,2013-05-11 15:10:00,
2013-05-11 11:11:00,65.4,62.1,29.75,West,262,0.0,4.0,89,0.00,,,0.25,VWS V14.01,2013-05-11 15:11:00,
2013-05-11 11:12:00,65.4,62.1,29.75,NW,309,1.0,4.0,89,0.00,,,0.25,VWS V14.01,2013-05-11 15:12:00,
2013-05-11 11:13:00,65.4,62.1,29.75,WSW,238,0.0,4.0,89,0.00,,,0.25,VWS V14.01,2013-05-11 15:13:00,
2013-05-11 11:14:00,65.4,62.1,29.75,WSW,237,5.0,5.0,89,0.00,,,0.25,VWS V14.01,2013-05-11 15:14:00,
2013-05-11 11:15:00,65.4,62.1,29.75,WSW,252,3.0,5.0,89,0.00,,,0.25,VWS V14.01,2013-05-11 15:15:00,
2013-05-11 11:16:00,65.4,62.1,29.75,WSW,246,0.0,5.0,89,0.00,,,0.25,VWS V14.01,2013-05-11 15:16:00,
2013-05-11 11:17:00,65.4,62.1,29.75,WSW,240,0.0,5.0,89,0.00,,,0.25,VWS V14.01,2013-05-11 15:17:00,
2013-05-11 11:18:00,65.4,62.1,29.75,WSW,240,1.0,5.0,89,0.00,,,0.25,VWS V14.01,2013-05-11 15:18:00,
2013-05-11 11:19:00,65.4,62.1,29.75,WSW,242,1.0,5.0,89,0.00,,,0.25,VWS V14.01,2013-05-11 15:19:00,
2013-05-11 11:20:00,65.4,62.1,29.75,SW,234,4.0,5.0,89,0.00,,,0.25,VWS V14.01,2013-05-11 15:20:00,
2013-05-11 11:21:00,65.5,62.2,29.75,SW,234,0.0,3.0,89,0.00,,,0.25,VWS V14.01,2013-05-11 15:21:00,
2013-05-11 11:22:00,65.5,62.2,29.75,SW,234,0.0,3.0,89,0.00,,,0.25,VWS V14.01,2013-05-11 15:22:00,
2013-05-11 11:23:00,65.5,62.2,29.75,WNW,283,3.0,4.0,89,0.00,,,0.25,VWS V14.01,2013-05-11 15:23:00,
2013-05-11 11:24:00,65.5,62.2,29.75,South,179,2.0,4.0,89,0.00,,,0.25,VWS V14.01,2013-05-11 15:24:00,
2013-05-11 11:25:00,65.5,62.2,29.75,South,181,0.0,4.0,89,0.00,,,0.25,VWS V14.01,2013-05-11 15:25:00,
2013-05-11 11:26:00,65.5,62.2,29.75,WNW,294,0.0,7.0,89,0.00,,,0.25,VWS V14.01,2013-05-11 15:26:00,
2013-05-11 11:27:00,65.5,62.2,29.75,WNW,300,1.0,7.0,89,0.00,,,0.25,VWS V14.01,2013-05-11 15:27:00,
2013-05-11 11:28:00,65.5,62.2,29.75,WNW,300,0.0,7.0,89,0.00,,,0.25,VWS V14.01,2013-05-11 15:28:00,
2013-05-11 11:29:00,65.5,62.2,29.75,WNW,300,0.0,7.0,89,0.00,,,0.25,VWS V14.01,2013-05-11 15:29:00,
2013-05-11 11:30:00,65.6,62.3,29.75,WSW,253,4.0,7.0,89,0.00,,,0.25,VWS V14.01,2013-05-11 15:30:00,
2013-05-11 11:31:00,65.6,62.3,29.75,WSW,245,0.0,5.0,89,0.00,,,0.25,VWS V14.01,2013-05-11 15:31:00,
2013-05-11 11:32:00,65.6,62.3,29.75,WNW,292,0.0,5.0,89,0.00,,,0.25,VWS V14.01,2013-05-11 15:32:00,
2013-05-11 11:33:00,65.6,62.3,29.75,SW,234,3.0,5.0,89,0.00,,,0.25,VWS V14.01,2013-05-11 15:33:00,
2013-05-11 11:34:00,65.6,62.0,29.75,SW,234,1.0,5.0,88,0.00,,,0.25,VWS V14.01,2013-05-11 15:34:00,
2013-05-11 11:35:00,65.6,62.0,29.75,SW,234,0.0,5.0,88,0.00,,,0.25,VWS V14.01,2013-05-11 15:35:00,
2013-05-11 11:36:00,65.6,62.0,29.75,SW,234,1.0,5.0,88,0.00,,,0.25,VWS V14.01,2013-05-11 15:36:00,
2013-05-11 11:37:00,65.6,62.0,29.75,WNW,282,3.0,5.0,88,0.00,,,0.25,VWS V14.01,2013-05-11 15:37:00,
2013-05-11 11:38:00,65.6,62.0,29.75,West,269,1.0,5.0,88,0.00,,,0.25,VWS V14.01,2013-05-11 15:38:00,
2013-05-11 11:39:00,65.6,62.0,29.75,West,269,0.0,5.0,88,0.00,,,0.25,VWS V14.01,2013-05-11 15:39:00,
2013-05-11 11:40:00,65.6,62.0,29.75,West,269,0.0,5.0,88,0.00,,,0.25,VWS V14.01,2013-05-11 15:40:00,
2013-05-11 11:41:00,65.7,62.0,29.75,West,269,0.0,2.0,88,0.00,,,0.25,VWS V14.01,2013-05-11 15:41:00,
2013-05-11 11:42:00,65.7,62.0,29.75,West,269,0.0,2.0,88,0.00,,,0.25,VWS V14.01,2013-05-11 15:42:00,
2013-05-11 11:43:00,65.7,62.0,29.75,West,269,0.0,2.0,88,0.00,,,0.25,VWS V14.01,2013-05-11 15:43:00,
2013-05-11 11:44:00,65.7,62.0,29.75,West,269,1.0,2.0,88,0.00,,,0.25,VWS V14.01,2013-05-11 15:44:00,
2013-05-11 11:45:00,65.7,62.0,29.75,West,267,0.0,6.0,88,0.00,,,0.25,VWS V14.01,2013-05-11 15:45:00,
2013-05-11 11:46:00,65.8,62.2,29.75,West,267,0.0,6.0,88,0.00,,,0.25,VWS V14.01,2013-05-11 15:46:00,
2013-05-11 11:47:00,65.8,62.2,29.75,West,267,2.0,6.0,88,0.00,,,0.25,VWS V14.01,2013-05-11 15:47:00,
2013-05-11 11:48:00,65.8,62.2,29.75,WSW,249,2.0,6.0,88,0.00,,,0.25,VWS V14.01,2013-05-11 15:48:00,
2013-05-11 11:49:00,65.8,62.2,29.75,WSW,245,4.0,6.0,88,0.00,,,0.25,VWS V14.01,2013-05-11 15:49:00,
2013-05-11 11:50:00,65.8,62.2,29.75,West,279,5.0,6.0,88,0.00,,,0.25,VWS V14.01,2013-05-11 15:50:00,
2013-05-11 11:51:00,65.8,62.2,29.75,WNW,300,3.0,7.0,88,0.00,,,0.25,VWS V14.01,2013-05-11 15:51:00,
2013-05-11 11:52:00,65.8,62.2,29.75,WSW,252,0.0,7.0,88,0.00,,,0.25,VWS V14.01,2013-05-11 15:52:00,
2013-05-11 11:53:00,65.8,62.2,29.75,WSW,252,0.0,7.0,88,0.00,,,0.25,VWS V14.01,2013-05-11 15:53:00,
2013-05-11 11:54:00,65.9,62.2,29.75,WSW,252,0.0,7.0,88,0.00,,,0.25,VWS V14.01,2013-05-11 15:54:00,
2013-05-11 11:55:00,65.9,62.2,29.75,WSW,252,0.0,7.0,88,0.00,,,0.25,VWS V14.01,2013-05-11 15:55:00,
2013-05-11 11:56:00,65.9,62.2,29.75,WSW,252,0.0,7.0,88,0.00,,,0.25,VWS V14.01,2013-05-11 15:56:00,
2013-05-11 11:57:00,65.9,62.2,29.75,WSW,250,0.0,7.0,88,0.00,,,0.25,VWS V14.01,2013-05-11 15:57:00,
2013-05-11 11:58:00,65.9,62.2,29.75,SW,229,4.0,7.0,88,0.00,,,0.25,VWS V14.01,2013-05-11 15:58:00,
2013-05-11 11:59:00,66.0,62.3,29.75,ENE,74,1.0,7.0,88,0.00,,,0.25,VWS V14.01,2013-05-11 15:59:00,
2013-05-11 12:00:00,66.0,62.3,29.75,SW,226,3.0,7.0,88,0.00,,,0.25,VWS V14.01,2013-05-11 16:00:00,
2013-05-11 12:01:00,65.9,62.2,29.75,SW,232,3.0,3.0,88,0.00,,,0.25,VWS V14.01,2013-05-11 16:01:00,
2013-05-11 12:02:00,66.0,62.3,29.75,WSW,254,0.0,6.0,88,0.00,,,0.25,VWS V14.01,2013-05-11 16:02:00,
2013-05-11 12:03:00,66.0,62.3,29.75,WSW,254,0.0,6.0,88,0.00,,,0.25,VWS V14.01,2013-05-11 16:03:00,
2013-05-11 12:04:00,66.0,62.3,29.75,SSW,212,3.0,6.0,88,0.00,,,0.25,VWS V14.01,2013-05-11 16:04:00,
2013-05-11 12:05:00,66.0,62.3,29.75,SSW,213,0.0,6.0,88,0.00,,,0.25,VWS V14.01,2013-05-11 16:05:00,
2013-05-11 12:06:00,66.1,62.5,29.75,SW,221,0.0,6.0,88,0.00,,,0.25,VWS V14.01,2013-05-11 16:06:00,
2013-05-11 12:07:00,66.1,62.5,29.75,SW,221,0.0,6.0,88,0.00,,,0.25,VWS V14.01,2013-05-11 16:07:00,
2013-05-11 12:08:00,66.1,62.5,29.75,SSW,197,2.0,6.0,88,0.00,,,0.25,VWS V14.01,2013-05-11 16:08:00,
2013-05-11 12:09:00,66.1,62.5,29.75,WSW,245,1.0,6.0,88,0.00,,,0.25,VWS V14.01,2013-05-11 16:09:00,
2013-05-11 12:10:00,66.1,62.1,29.75,SSE,165,3.0,6.0,87,0.00,,,0.25,VWS V14.01,2013-05-11 16:10:00,
2013-05-11 12:11:00,66.1,62.1,29.75,SSE,165,1.0,3.0,87,0.00,,,0.25,VWS V14.01,2013-05-11 16:11:00,
2013-05-11 12:12:00,66.2,62.2,29.75,SSE,165,0.0,3.0,87,0.00,,,0.25,VWS V14.01,2013-05-11 16:12:00,
2013-05-11 12:13:00,66.2,62.2,29.75,SE,131,0.0,3.0,87,0.00,,,0.25,VWS V14.01,2013-05-11 16:13:00,
2013-05-11 12:14:00,66.2,62.2,29.75,SSE,161,0.0,4.0,87,0.00,,,0.25,VWS V14.01,2013-05-11 16:14:00,
2013-05-11 12:15:00,66.2,62.2,29.74,SSE,161,0.0,4.0,87,0.00,,,0.25,VWS V14.01,2013-05-11 16:15:00,
2013-05-11 12:16:00,66.3,62.3,29.74,South,176,0.0,4.0,87,0.00,,,0.25,VWS V14.01,2013-05-11 16:16:00,
2013-05-11 12:17:00,66.3,62.3,29.74,South,176,1.0,4.0,87,0.00,,,0.25,VWS V14.01,2013-05-11 16:17:00,
2013-05-11 12:18:00,66.3,62.3,29.74,South,176,0.0,4.0,87,0.00,,,0.25,VWS V14.01,2013-05-11 16:18:00,
2013-05-11 12:19:00,66.4,62.7,29.74,South,176,2.0,4.0,88,0.00,,,0.25,VWS V14.01,2013-05-11 16:19:00,
2013-05-11 12:20:00,66.4,62.7,29.74,South,176,3.0,4.0,88,0.00,,,0.25,VWS V14.01,2013-05-11 16:20:00,
2013-05-11 12:21:00,66.4,62.7,29.74,South,176,1.0,2.0,88,0.00,,,0.25,VWS V14.01,2013-05-11 16:21:00,
2013-05-11 12:22:00,66.5,62.8,29.74,South,176,0.0,2.0,88,0.00,,,0.25,VWS V14.01,2013-05-11 16:22:00,
2013-05-11 12:23:00,66.5,62.8,29.74,South,182,0.0,3.0,88,0.00,,,0.25,VWS V14.01,2013-05-11 16:23:00,
2013-05-11 12:24:00,66.5,62.8,29.74,South,182,0.0,3.0,88,0.00,,,0.25,VWS V14.01,2013-05-11 16:24:00,
2013-05-11 12:25:00,66.6,62.9,29.74,South,182,1.0,3.0,88,0.00,,,0.25,VWS V14.01,2013-05-11 16:25:00,
2013-05-11 12:26:00,66.6,62.9,29.74,South,186,1.0,3.0,88,0.00,,,0.25,VWS V14.01,2013-05-11 16:26:00,
2013-05-11 12:27:00,66.7,63.0,29.74,South,186,2.0,3.0,88,0.00,,,0.25,VWS V14.01,2013-05-11 16:27:00,
2013-05-11 12:28:00,66.7,63.0,29.74,South,186,3.0,3.0,88,0.00,,,0.25,VWS V14.01,2013-05-11 16:28:00,
2013-05-11 12:29:00,66.8,63.1,29.74,South,186,0.0,3.0,88,0.00,,,0.25,VWS V14.01,2013-05-11 16:29:00,
2013-05-11 12:30:00,66.8,63.1,29.73,South,186,0.0,3.0,88,0.00,,,0.25,VWS V14.01,2013-05-11 16:30:00,
2013-05-11 12:31:00,66.8,63.1,29.73,South,186,0.0,1.0,88,0.00,,,0.25,VWS V14.01,2013-05-11 16:31:00,
2013-05-11 12:32:00,66.9,63.2,29.73,South,186,0.0,1.0,88,0.00,,,0.25,VWS V14.01,2013-05-11 16:32:00,
2013-05-11 12:33:00,66.9,62.9,29.73,South,186,1.0,1.0,87,0.00,,,0.25,VWS V14.01,2013-05-11 16:33:00,
2013-05-11 12:34:00,67.0,63.0,29.73,South,186,0.0,1.0,87,0.00,,,0.25,VWS V14.01,2013-05-11 16:34:00,
2013-05-11 12:35:00,67.0,63.0,29.73,South,186,0.0,1.0,87,0.00,,,0.25,VWS V14.01,2013-05-11 16:35:00,
2013-05-11 12:36:00,67.0,63.0,29.73,South,186,0.0,1.0,87,0.00,,,0.25,VWS V14.01,2013-05-11 16:36:00,
2013-05-11 12:37:00,67.1,63.1,29.73,South,186,0.0,1.0,87,0.00,,,0.25,VWS V14.01,2013-05-11 16:37:00,
2013-05-11 12:38:00,67.1,63.1,29.73,South,186,2.0,2.0,87,0.00,,,0.25,VWS V14.01,2013-05-11 16:38:00,
2013-05-11 12:39:00,67.1,63.1,29.73,South,187,0.0,3.0,87,0.00,,,0.25,VWS V14.01,2013-05-11 16:39:00,
2013-05-11 12:40:00,67.2,63.5,29.73,South,187,0.0,3.0,88,0.00,,,0.25,VWS V14.01,2013-05-11 16:40:00,
2013-05-11 12:41:00,67.4,63.7,29.73,South,187,0.0,1.0,88,0.00,,,0.25,VWS V14.01,2013-05-11 16:41:00,
2013-05-11 12:42:00,67.5,63.8,29.73,SW,232,4.0,4.0,88,0.00,,,0.25,VWS V14.01,2013-05-11 16:42:00,
2013-05-11 12:43:00,67.7,64.0,29.73,SW,231,3.0,4.0,88,0.00,,,0.25,VWS V14.01,2013-05-11 16:43:00,
2013-05-11 12:44:00,67.8,63.8,29.73,SW,216,3.0,4.0,87,0.00,,,0.25,VWS V14.01,2013-05-11 16:44:00,
2013-05-11 12:45:00,67.8,63.5,29.73,SSW,211,4.0,5.0,86,0.00,,,0.25,VWS V14.01,2013-05-11 16:45:00,
2013-05-11 12:46:00,67.9,63.6,29.73,SW,225,0.0,5.0,86,0.00,,,0.25,VWS V14.01,2013-05-11 16:46:00,
2013-05-11 12:47:00,68.0,63.7,29.73,SW,225,0.0,5.0,86,0.00,,,0.25,VWS V14.01,2013-05-11 16:47:00,
2013-05-11 12:48:00,68.1,64.1,29.73,SW,217,0.0,5.0,87,0.00,,,0.25,VWS V14.01,2013-05-11 16:48:00,
2013-05-11 12:49:00,68.3,64.0,29.73,SW,217,0.0,5.0,86,0.00,,,0.25,VWS V14.01,2013-05-11 16:49:00,
2013-05-11 12:50:00,68.3,64.0,29.73,NNE,32,4.0,5.0,86,0.00,,,0.25,VWS V14.01,2013-05-11 16:50:00,
2013-05-11 12:51:00,68.4,63.7,29.73,SSW,199,1.0,5.0,85,0.00,,,0.25,VWS V14.01,2013-05-11 16:51:00,
2013-05-11 12:52:00,68.4,63.7,29.73,SSW,199,0.0,5.0,85,0.00,,,0.25,VWS V14.01,2013-05-11 16:52:00,
2013-05-11 12:53:00,68.5,63.5,29.73,SSW,199,2.0,5.0,84,0.00,,,0.25,VWS V14.01,2013-05-11 16:53:00,
2013-05-11 12:54:00,68.5,63.5,29.73,WSW,241,1.0,6.0,84,0.00,,,0.25,VWS V14.01,2013-05-11 16:54:00,
2013-05-11 12:55:00,68.5,63.5,29.73,WNW,292,0.0,6.0,84,0.00,,,0.25,VWS V14.01,2013-05-11 16:55:00,
2013-05-11 12:56:00,68.6,63.6,29.73,WNW,292,0.0,6.0,84,0.00,,,0.25,VWS V14.01,2013-05-11 16:56:00,
2013-05-11 12:57:00,68.6,63.6,29.73,WNW,290,0.0,6.0,84,0.00,,,0.25,VWS V14.01,2013-05-11 16:57:00,
2013-05-11 12:58:00,68.6,63.6,29.73,WNW,289,3.0,6.0,84,0.00,,,0.25,VWS V14.01,2013-05-11 16:58:00,
2013-05-11 12:59:00,68.7,63.7,29.73,WNW,286,0.0,6.0,84,0.00,,,0.25,VWS V14.01,2013-05-11 16:59:00,
2013-05-11 13:00:00,68.7,63.7,29.72,West,279,0.0,6.0,84,0.00,,,0.25,VWS V14.01,2013-05-11 17:00:00,
2013-05-11 13:01:00,68.8,63.8,29.72,West,279,0.0,0.0,84,0.00,,,0.25,VWS V14.01,2013-05-11 17:01:00,
2013-05-11 13:02:00,68.8,63.8,29.72,West,276,0.0,0.0,84,0.00,,,0.25,VWS V14.01,2013-05-11 17:02:00,
2013-05-11 13:03:00,68.8,63.4,29.72,West,276,1.0,2.0,83,0.00,,,0.25,VWS V14.01,2013-05-11 17:03:00,
2013-05-11 13:04:00,68.9,63.5,29.72,West,263,3.0,3.0,83,0.00,,,0.25,VWS V14.01,2013-05-11 17:04:00,
2013-05-11 13:05:00,68.9,63.5,29.72,WNW,292,4.0,4.0,83,0.00,,,0.25,VWS V14.01,2013-05-11 17:05:00,
2013-05-11 13:06:00,69.0,63.6,29.72,West,260,0.0,6.0,83,0.00,,,0.25,VWS V14.01,2013-05-11 17:06:00,
2013-05-11 13:07:00,69.0,63.6,29.72,West,260,2.0,6.0,83,0.00,,,0.25,VWS V14.01,2013-05-11 17:07:00,
2013-05-11 13:08:00,69.1,63.7,29.72,WNW,289,2.0,6.0,83,0.00,,,0.25,VWS V14.01,2013-05-11 17:08:00,
2013-05-11 13:09:00,69.2,63.8,29.72,WNW,289,1.0,6.0,83,0.00,,,0.25,VWS V14.01,2013-05-11 17:09:00,
2013-05-11 13:10:00,69.3,63.9,29.72,WNW,289,0.0,6.0,83,0.00,,,0.25,VWS V14.01,2013-05-11 17:10:00,
2013-05-11 13:11:00,69.3,63.9,29.72,WNW,284,0.0,2.0,83,0.00,,,0.25,VWS V14.01,2013-05-11 17:11:00,
2013-05-11 13:12:00,69.4,64.0,29.72,WNW,284,0.0,2.0,83,0.00,,,0.25,VWS V14.01,2013-05-11 17:12:00,
2013-05-11 13:13:00,69.4,63.7,29.72,WNW,289,0.0,5.0,82,0.00,,,0.25,VWS V14.01,2013-05-11 17:13:00,
2013-05-11 13:14:00,69.4,63.7,29.72,SW,235,3.0,6.0,82,0.00,,,0.25,VWS V14.01,2013-05-11 17:14:00,
2013-05-11 13:15:00,69.5,63.4,29.71,WNW,284,3.0,6.0,81,0.00,,,0.25,VWS V14.01,2013-05-11 17:15:00,
2013-05-11 13:16:00,69.5,63.4,29.71,WNW,284,2.0,6.0,81,0.00,,,0.25,VWS V14.01,2013-05-11 17:16:00,
2013-05-11 13:17:00,69.5,63.4,29.71,West,263,2.0,8.0,81,0.00,,,0.25,VWS V14.01,2013-05-11 17:17:00,
2013-05-11 13:18:00,69.5,63.1,29.71,West,263,2.0,8.0,80,0.00,,,0.25,VWS V14.01,2013-05-11 17:18:00,
2013-05-11 13:19:00,69.5,63.1,29.71,SW,229,0.0,8.0,80,0.00,,,0.25,VWS V14.01,2013-05-11 17:19:00,
2013-05-11 13:20:00,69.5,63.1,29.71,West,277,3.0,8.0,80,0.00,,,0.25,VWS V14.01,2013-05-11 17:20:00,
2013-05-11 13:21:00,69.5,63.1,29.71,West,275,6.0,6.0,80,0.00,,,0.25,VWS V14.01,2013-05-11 17:21:00,
2013-05-11 13:22:00,69.5,63.1,29.71,WSW,246,3.0,6.0,80,0.00,,,0.25,VWS V14.01,2013-05-11 17:22:00,
2013-05-11 13:23:00,69.5,62.7,29.71,SSW,207,3.0,6.0,79,0.00,,,0.25,VWS V14.01,2013-05-11 17:23:00,
2013-05-11 13:24:00,69.5,62.7,29.71,SSW,209,0.0,6.0,79,0.00,,,0.25,VWS V14.01,2013-05-11 17:24:00,
2013-05-11 13:25:00,69.5,62.7,29.71,SSW,209,0.0,6.0,79,0.00,,,0.25,VWS V14.01,2013-05-11 17:25:00,
2013-05-11 13:26:00,69.5,62.7,29.71,SW,214,2.0,6.0,79,0.00,,,0.25,VWS V14.01,2013-05-11 17:26:00,
2013-05-11 13:27:00,69.5,62.3,29.71,SW,214,0.0,6.0,78,0.00,,,0.25,VWS V14.01,2013-05-11 17:27:00,
2013-05-11 13:28:00,69.5,62.7,29.71,West,279,2.0,7.0,79,0.00,,,0.25,VWS V14.01,2013-05-11 17:28:00,
2013-05-11 13:29:00,69.5,62.7,29.71,West,277,2.0,7.0,79,0.00,,,0.25,VWS V14.01,2013-05-11 17:29:00,
2013-05-11 13:30:00,69.5,62.7,29.71,West,277,1.0,7.0,79,0.00,,,0.25,VWS V14.01,2013-05-11 17:30:00,
2013-05-11 13:31:00,69.5,62.7,29.71,West,277,0.0,1.0,79,0.00,,,0.25,VWS V14.01,2013-05-11 17:31:00,
2013-05-11 13:32:00,69.5,62.7,29.71,West,275,5.0,5.0,79,0.00,,,0.25,VWS V14.01,2013-05-11 17:32:00,
2013-05-11 13:33:00,69.5,62.7,29.71,WSW,246,3.0,5.0,79,0.00,,,0.25,VWS V14.01,2013-05-11 17:33:00,
2013-05-11 13:34:00,69.5,62.7,29.71,WNW,301,3.0,8.0,79,0.00,,,0.25,VWS V14.01,2013-05-11 17:34:00,
2013-05-11 13:35:00,69.5,62.7,29.71,WNW,301,0.0,8.0,79,0.00,,,0.25,VWS V14.01,2013-05-11 17:35:00,
2013-05-11 13:36:00,69.5,62.7,29.71,WNW,301,0.0,8.0,79,0.00,,,0.25,VWS V14.01,2013-05-11 17:36:00,
2013-05-11 13:37:00,69.5,62.7,29.71,WNW,301,1.0,8.0,79,0.00,,,0.25,VWS V14.01,2013-05-11 17:37:00,
2013-05-11 13:38:00,69.5,62.7,29.71,WNW,301,0.0,8.0,79,0.00,,,0.25,VWS V14.01,2013-05-11 17:38:00,
2013-05-11 13:39:00,69.5,62.7,29.71,WNW,301,0.0,8.0,79,0.00,,,0.25,VWS V14.01,2013-05-11 17:39:00,
2013-05-11 13:40:00,69.5,62.7,29.71,WNW,301,0.0,8.0,79,0.00,,,0.25,VWS V14.01,2013-05-11 17:40:00,
2013-05-11 13:41:00,69.5,62.7,29.71,WNW,301,2.0,2.0,79,0.00,,,0.25,VWS V14.01,2013-05-11 17:41:00,
2013-05-11 13:42:00,69.5,63.1,29.71,WNW,301,0.0,2.0,80,0.00,,,0.25,VWS V14.01,2013-05-11 17:42:00,
2013-05-11 13:43:00,69.5,63.1,29.71,WNW,301,0.0,2.0,80,0.01,,,0.26,VWS V14.01,2013-05-11 17:43:00,
2013-05-11 13:44:00,69.5,63.4,29.71,WNW,301,0.0,2.0,81,0.01,,,0.26,VWS V14.01,2013-05-11 17:44:00,
2013-05-11 13:45:00,69.5,63.4,29.71,WNW,301,0.0,2.0,81,0.02,,,0.27,VWS V14.01,2013-05-11 17:45:00,
2013-05-11 13:46:00,69.5,63.4,29.71,WNW,301,0.0,2.0,81,0.02,,,0.27,VWS V14.01,2013-05-11 17:46:00,
2013-05-11 13:47:00,69.5,63.4,29.71,WNW,301,0.0,2.0,81,0.02,,,0.27,VWS V14.01,2013-05-11 17:47:00,
2013-05-11 13:48:00,69.5,63.4,29.71,WNW,301,0.0,2.0,81,0.02,,,0.27,VWS V14.01,2013-05-11 17:48:00,
2013-05-11 13:49:00,69.5,63.4,29.71,WNW,301,0.0,2.0,81,0.02,,,0.27,VWS V14.01,2013-05-11 17:49:00,
2013-05-11 13:50:00,69.4,63.7,29.71,WNW,292,2.0,2.0,82,0.02,,,0.27,VWS V14.01,2013-05-11 17:50:00,
2013-05-11 13:51:00,69.4,63.7,29.71,WNW,289,0.0,4.0,82,0.02,,,0.27,VWS V14.01,2013-05-11 17:51:00,
2013-05-11 13:52:00,69.3,63.6,29.71,WNW,289,0.0,4.0,82,0.02,,,0.27,VWS V14.01,2013-05-11 17:52:00,
2013-05-11 13:53:00,69.3,63.6,29.71,WSW,242,2.0,4.0,82,0.02,,,0.27,VWS V14.01,2013-05-11 17:53:00,
2013-05-11 13:54:00,69.2,63.5,29.71,WSW,242,0.0,4.0,82,0.03,,,0.28,VWS V14.01,2013-05-11 17:54:00,
2013-05-11 13:55:00,69.1,63.7,29.71,WSW,242,0.0,4.0,83,0.03,,,0.28,VWS V14.01,2013-05-11 17:55:00,
2013-05-11 13:56:00,69.1,63.7,29.71,WSW,242,0.0,4.0,83,0.03,,,0.28,VWS V14.01,2013-05-11 17:56:00,
2013-05-11 13:57:00,69.0,63.6,29.71,WSW,242,0.0,4.0,83,0.03,,,0.28,VWS V14.01,2013-05-11 17:57:00,
2013-05-11 13:58:00,69.0,63.6,29.71,North,360,3.0,4.0,83,0.03,,,0.28,VWS V14.01,2013-05-11 17:58:00,
2013-05-11 13:59:00,68.9,63.5,29.71,North,355,0.0,4.0,83,0.03,,,0.28,VWS V14.01,2013-05-11 17:59:00,
2013-05-11 14:00:00,68.8,63.8,29.71,NNW,336,0.0,4.0,84,0.03,,,0.28,VWS V14.01,2013-05-11 18:00:00,
2013-05-11 14:01:00,68.7,63.7,29.71,NNW,336,0.0,0.0,84,0.03,,,0.28,VWS V14.01,2013-05-11 18:01:00,
2013-05-11 14:02:00,68.6,63.6,29.71,NNW,336,0.0,0.0,84,0.03,,,0.28,VWS V14.01,2013-05-11 18:02:00,
2013-05-11 14:03:00,68.6,63.6,29.71,NNW,336,0.0,0.0,84,0.03,,,0.28,VWS V14.01,2013-05-11 18:03:00,
2013-05-11 14:04:00,68.6,63.6,29.71,NNW,336,0.0,0.0,84,0.03,,,0.28,VWS V14.01,2013-05-11 18:04:00,
2013-05-11 14:05:00,68.6,63.6,29.71,NNW,336,0.0,0.0,84,0.03,,,0.28,VWS V14.01,2013-05-11 18:05:00,
2013-05-11 14:06:00,68.5,63.8,29.71,NNW,336,0.0,0.0,85,0.03,,,0.28,VWS V14.01,2013-05-11 18:06:00,
2013-05-11 14:07:00,68.5,63.8,29.71,NNW,336,0.0,0.0,85,0.03,,,0.28,VWS V14.01,2013-05-11 18:07:00,
2013-05-11 14:08:00,68.5,63.8,29.71,NNW,337,0.0,0.0,85,0.03,,,0.28,VWS V14.01,2013-05-11 18:08:00,
2013-05-11 14:09:00,68.4,63.7,29.71,NNW,338,0.0,0.0,85,0.04,,,0.29,VWS V14.01,2013-05-11 18:09:00,
2013-05-11 14:10:00,68.4,63.7,29.71,NNW,338,0.0,0.0,85,0.04,,,0.29,VWS V14.01,2013-05-11 18:10:00,
2013-05-11 14:11:00,68.3,63.6,29.71,NNW,338,0.0,0.0,85,0.04,,,0.29,VWS V14.01,2013-05-11 18:11:00,
2013-05-11 14:12:00,68.3,63.6,29.71,NNW,338,0.0,0.0,85,0.05,,,0.30,VWS V14.01,2013-05-11 18:12:00,
2013-05-11 14:13:00,68.2,63.9,29.71,NE,55,0.0,1.0,86,0.06,,,0.31,VWS V14.01,2013-05-11 18:13:00,
2013-05-11 14:14:00,68.2,63.9,29.71,NE,55,0.0,1.0,86,0.06,,,0.31,VWS V14.01,2013-05-11 18:14:00,
2013-05-11 14:15:00,68.1,63.8,29.70,NE,55,0.0,1.0,86,0.06,,,0.31,VWS V14.01,2013-05-11 18:15:00,
2013-05-11 14:16:00,68.1,63.8,29.70,NE,55,0.0,1.0,86,0.06,,,0.31,VWS V14.01,2013-05-11 18:16:00,
2013-05-11 14:17:00,68.0,63.7,29.70,NE,55,0.0,1.0,86,0.06,,,0.31,VWS V14.01,2013-05-11 18:17:00,
2013-05-11 14:18:00,68.0,64.0,29.70,WSW,254,0.0,2.0,87,0.06,,,0.31,VWS V14.01,2013-05-11 18:18:00,
2013-05-11 14:19:00,67.9,63.9,29.70,WSW,254,1.0,2.0,87,0.06,,,0.31,VWS V14.01,2013-05-11 18:19:00,
2013-05-11 14:20:00,67.8,63.8,29.70,WSW,254,0.0,2.0,87,0.06,,,0.31,VWS V14.01,2013-05-11 18:20:00,
2013-05-11 14:21:00,67.7,63.7,29.70,WSW,254,1.0,1.0,87,0.06,,,0.31,VWS V14.01,2013-05-11 18:21:00,
2013-05-11 14:22:00,67.7,63.7,29.70,West,260,1.0,2.0,87,0.06,,,0.31,VWS V14.01,2013-05-11 18:22:00,
2013-05-11 14:23:00,67.6,63.6,29.70,West,260,0.0,2.0,87,0.06,,,0.31,VWS V14.01,2013-05-11 18:23:00,
2013-05-11 14:24:00,67.6,63.6,29.70,West,263,2.0,2.0,87,0.07,,,0.32,VWS V14.01,2013-05-11 18:24:00,
2013-05-11 14:25:00,67.5,63.8,29.70,WSW,248,0.0,2.0,88,0.07,,,0.32,VWS V14.01,2013-05-11 18:25:00,
2013-05-11 14:26:00,67.4,63.7,29.70,WNW,286,3.0,5.0,88,0.08,,,0.33,VWS V14.01,2013-05-11 18:26:00,
2013-05-11 14:27:00,67.2,63.2,29.70,WNW,286,4.0,5.0,87,0.10,,,0.35,VWS V14.01,2013-05-11 18:27:00,
2013-05-11 14:28:00,67.1,63.1,29.70,WNW,286,0.0,5.0,87,0.11,,,0.36,VWS V14.01,2013-05-11 18:28:00,
2013-05-11 14:29:00,67.0,63.0,29.70,WNW,302,0.0,5.0,87,0.12,,,0.37,VWS V14.01,2013-05-11 18:29:00,
2013-05-11 14:30:00,66.8,62.8,29.71,WNW,302,0.0,5.0,87,0.13,,,0.38,VWS V14.01,2013-05-11 18:30:00,
2013-05-11 14:31:00,66.6,62.6,29.71,NNW,340,3.0,7.0,87,0.19,,,0.44,VWS V14.01,2013-05-11 18:31:00,
2013-05-11 14:32:00,66.3,62.3,29.71,West,261,3.0,7.0,87,0.24,,,0.49,VWS V14.01,2013-05-11 18:32:00,
2013-05-11 14:33:00,66.1,62.1,29.71,West,265,3.0,8.0,87,0.30,,,0.55,VWS V14.01,2013-05-11 18:33:00,
2013-05-11 14:34:00,65.9,61.9,29.71,NW,323,0.0,8.0,87,0.33,,,0.58,VWS V14.01,2013-05-11 18:34:00,
2013-05-11 14:35:00,65.8,61.8,29.71,West,261,1.0,8.0,87,0.33,,,0.58,VWS V14.01,2013-05-11 18:35:00,
2013-05-11 14:36:00,65.7,61.7,29.71,West,261,0.0,8.0,87,0.35,,,0.60,VWS V14.01,2013-05-11 18:36:00,
2013-05-11 14:37:00,65.5,61.5,29.71,West,261,0.0,8.0,87,0.36,,,0.61,VWS V14.01,2013-05-11 18:37:00,
2013-05-11 14:38:00,65.4,61.8,29.71,West,261,0.0,8.0,88,0.36,,,0.61,VWS V14.01,2013-05-11 18:38:00,
2013-05-11 14:39:00,65.4,61.8,29.71,West,259,1.0,8.0,88,0.37,,,0.62,VWS V14.01,2013-05-11 18:39:00,
2013-05-11 14:40:00,65.2,61.6,29.71,West,261,5.0,8.0,88,0.37,,,0.62,VWS V14.01,2013-05-11 18:40:00,
2013-05-11 14:41:00,65.0,61.4,29.71,WSW,255,0.0,5.0,88,0.37,,,0.62,VWS V14.01,2013-05-11 18:41:00,
2013-05-11 14:42:00,64.9,61.3,29.71,WSW,254,1.0,5.0,88,0.38,,,0.63,VWS V14.01,2013-05-11 18:42:00,
2013-05-11 14:43:00,64.9,61.3,29.71,WSW,254,3.0,5.0,88,0.38,,,0.63,VWS V14.01,2013-05-11 18:43:00,
2013-05-11 14:44:00,64.8,61.5,29.71,WSW,255,2.0,5.0,89,0.38,,,0.63,VWS V14.01,2013-05-11 18:44:00,
2013-05-11 14:45:00,64.7,61.4,29.71,WSW,255,2.0,5.0,89,0.38,,,0.63,VWS V14.01,2013-05-11 18:45:00,
2013-05-11 14:46:00,64.7,61.4,29.71,West,259,1.0,5.0,89,0.38,,,0.63,VWS V14.01,2013-05-11 18:46:00,
2013-05-11 14:47:00,64.6,61.3,29.71,West,259,0.0,5.0,89,0.38,,,0.63,VWS V14.01,2013-05-11 18:47:00,
2013-05-11 14:48:00,64.6,61.3,29.71,West,259,0.0,5.0,89,0.39,,,0.64,VWS V14.01,2013-05-11 18:48:00,
2013-05-11 14:49:00,64.5,61.2,29.71,West,259,1.0,5.0,89,0.39,,,0.64,VWS V14.01,2013-05-11 18:49:00,
2013-05-11 14:50:00,64.5,61.2,29.71,West,259,0.0,5.0,89,0.39,,,0.64,VWS V14.01,2013-05-11 18:50:00,
2013-05-11 14:51:00,64.4,61.4,29.71,West,260,0.0,2.0,90,0.38,,,0.65,VWS V14.01,2013-05-11 18:51:00,
2013-05-11 14:52:00,64.4,61.4,29.71,West,260,0.0,2.0,90,0.38,,,0.65,VWS V14.01,2013-05-11 18:52:00,
2013-05-11 14:53:00,64.4,61.4,29.71,West,260,0.0,2.0,90,0.38,,,0.65,VWS V14.01,2013-05-11 18:53:00,
2013-05-11 14:54:00,64.4,61.4,29.71,West,267,1.0,3.0,90,0.38,,,0.65,VWS V14.01,2013-05-11 18:54:00,
2013-05-11 14:55:00,64.4,61.4,29.71,WSW,257,3.0,5.0,90,0.38,,,0.65,VWS V14.01,2013-05-11 18:55:00,
2013-05-11 14:56:00,64.3,61.3,29.71,WNW,285,2.0,5.0,90,0.38,,,0.65,VWS V14.01,2013-05-11 18:56:00,
2013-05-11 14:57:00,64.3,61.3,29.71,WNW,285,0.0,5.0,90,0.39,,,0.66,VWS V14.01,2013-05-11 18:57:00,
2013-05-11 14:58:00,64.2,61.5,29.71,WNW,285,1.0,5.0,91,0.39,,,0.66,VWS V14.01,2013-05-11 18:58:00,
2013-05-11 14:59:00,64.2,61.5,29.71,WNW,285,0.0,5.0,91,0.39,,,0.66,VWS V14.01,2013-05-11 18:59:00,
2013-05-11 15:00:00,64.2,61.5,29.71,WNW,285,0.0,5.0,91,0.39,,,0.66,VWS V14.01,2013-05-11 19:00:00,
2013-05-11 15:01:00,64.1,61.4,29.71,WNW,285,0.0,0.0,91,0.38,,,0.66,VWS V14.01,2013-05-11 19:01:00,
2013-05-11 15:02:00,64.1,61.4,29.71,WNW,285,0.0,0.0,91,0.39,,,0.67,VWS V14.01,2013-05-11 19:02:00,
2013-05-11 15:03:00,64.1,61.4,29.71,WNW,285,0.0,1.0,91,0.39,,,0.67,VWS V14.01,2013-05-11 19:03:00,
2013-05-11 15:04:00,64.1,61.4,29.71,WNW,285,0.0,1.0,91,0.39,,,0.67,VWS V14.01,2013-05-11 19:04:00,
2013-05-11 15:05:00,64.0,61.3,29.71,WNW,285,0.0,1.0,91,0.39,,,0.67,VWS V14.01,2013-05-11 19:05:00,
2013-05-11 15:06:00,64.0,61.3,29.71,WNW,285,0.0,1.0,91,0.39,,,0.67,VWS V14.01,2013-05-11 19:06:00,
2013-05-11 15:07:00,64.0,61.3,29.71,WNW,285,0.0,1.0,91,0.40,,,0.68,VWS V14.01,2013-05-11 19:07:00,
2013-05-11 15:08:00,64.0,61.3,29.71,WNW,285,0.0,1.0,91,0.40,,,0.68,VWS V14.01,2013-05-11 19:08:00,
2013-05-11 15:09:00,64.0,61.3,29.71,WNW,285,0.0,1.0,91,0.40,,,0.68,VWS V14.01,2013-05-11 19:09:00,
2013-05-11 15:10:00,64.0,61.3,29.71,WNW,285,0.0,1.0,91,0.40,,,0.68,VWS V14.01,2013-05-11 19:10:00,
2013-05-11 15:11:00,64.0,61.6,29.71,WNW,285,0.0,0.0,92,0.39,,,0.68,VWS V14.01,2013-05-11 19:11:00,
2013-05-11 15:12:00,64.0,61.6,29.71,WNW,285,0.0,4.0,92,0.39,,,0.68,VWS V14.01,2013-05-11 19:12:00,
2013-05-11 15:13:00,64.0,61.6,29.71,WNW,285,0.0,4.0,92,0.39,,,0.68,VWS V14.01,2013-05-11 19:13:00,
2013-05-11 15:14:00,64.0,61.6,29.71,WNW,285,0.0,4.0,92,0.39,,,0.68,VWS V14.01,2013-05-11 19:14:00,
2013-05-11 15:15:00,64.0,61.6,29.69,WNW,285,0.0,4.0,92,0.39,,,0.68,VWS V14.01,2013-05-11 19:15:00,
2013-05-11 15:16:00,64.0,61.6,29.69,WNW,285,0.0,4.0,92,0.39,,,0.68,VWS V14.01,2013-05-11 19:16:00,
2013-05-11 15:17:00,64.0,61.6,29.69,WNW,285,0.0,4.0,92,0.39,,,0.68,VWS V14.01,2013-05-11 19:17:00,
2013-05-11 15:18:00,64.0,61.6,29.69,WNW,285,0.0,4.0,92,0.39,,,0.68,VWS V14.01,2013-05-11 19:18:00,
2013-05-11 15:19:00,64.1,61.7,29.69,WNW,285,0.0,4.0,92,0.39,,,0.68,VWS V14.01,2013-05-11 19:19:00,
2013-05-11 15:20:00,64.1,61.7,29.69,WNW,285,0.0,4.0,92,0.39,,,0.68,VWS V14.01,2013-05-11 19:20:00,
2013-05-11 15:21:00,64.1,61.7,29.69,WNW,285,0.0,0.0,92,0.37,,,0.68,VWS V14.01,2013-05-11 19:21:00,
2013-05-11 15:22:00,64.1,61.7,29.69,WNW,285,0.0,0.0,92,0.37,,,0.68,VWS V14.01,2013-05-11 19:22:00,
2013-05-11 15:23:00,64.1,61.7,29.69,WNW,285,0.0,0.0,92,0.37,,,0.68,VWS V14.01,2013-05-11 19:23:00,
2013-05-11 15:24:00,64.1,61.7,29.69,WNW,285,0.0,0.0,92,0.37,,,0.68,VWS V14.01,2013-05-11 19:24:00,
2013-05-11 15:25:00,64.2,62.1,29.69,WNW,285,0.0,0.0,93,0.37,,,0.68,VWS V14.01,2013-05-11 19:25:00,
2013-05-11 15:26:00,64.2,62.1,29.69,WNW,285,0.0,0.0,93,0.37,,,0.68,VWS V14.01,2013-05-11 19:26:00,
2013-05-11 15:27:00,64.3,62.2,29.69,WNW,285,0.0,0.0,93,0.37,,,0.68,VWS V14.01,2013-05-11 19:27:00,
2013-05-11 15:28:00,64.4,62.3,29.69,WNW,285,0.0,0.0,93,0.37,,,0.68,VWS V14.01,2013-05-11 19:28:00,
2013-05-11 15:29:00,64.4,62.3,29.69,WNW,285,0.0,0.0,93,0.37,,,0.68,VWS V14.01,2013-05-11 19:29:00,
2013-05-11 15:30:00,64.5,62.4,29.70,WNW,285,1.0,1.0,93,0.37,,,0.68,VWS V14.01,2013-05-11 19:30:00,
2013-05-11 15:31:00,64.5,62.4,29.70,WNW,285,0.0,0.0,93,0.29,,,0.68,VWS V14.01,2013-05-11 19:31:00,
2013-05-11 15:32:00,64.6,62.5,29.70,WNW,285,0.0,0.0,93,0.29,,,0.68,VWS V14.01,2013-05-11 19:32:00,
2013-05-11 15:33:00,64.6,62.5,29.70,WNW,285,0.0,0.0,93,0.29,,,0.68,VWS V14.01,2013-05-11 19:33:00,
2013-05-11 15:34:00,64.7,62.6,29.70,WNW,285,0.0,0.0,93,0.29,,,0.68,VWS V14.01,2013-05-11 19:34:00,
2013-05-11 15:35:00,64.7,62.6,29.70,WNW,285,0.0,0.0,93,0.29,,,0.68,VWS V14.01,2013-05-11 19:35:00,
2013-05-11 15:36:00,64.8,62.7,29.70,WNW,285,0.0,0.0,93,0.29,,,0.68,VWS V14.01,2013-05-11 19:36:00,
2013-05-11 15:37:00,64.8,62.7,29.70,WNW,285,0.0,0.0,93,0.29,,,0.68,VWS V14.01,2013-05-11 19:37:00,
2013-05-11 15:38:00,64.9,62.8,29.70,WNW,285,0.0,0.0,93,0.29,,,0.68,VWS V14.01,2013-05-11 19:38:00,
2013-05-11 15:39:00,65.0,62.9,29.70,WNW,285,0.0,0.0,93,0.29,,,0.68,VWS V14.01,2013-05-11 19:39:00,
2013-05-11 15:40:00,65.0,62.9,29.70,WNW,285,0.0,0.0,93,0.29,,,0.68,VWS V14.01,2013-05-11 19:40:00,
2013-05-11 15:41:00,65.1,63.3,29.70,WNW,285,0.0,0.0,94,0.06,,,0.68,VWS V14.01,2013-05-11 19:41:00,
2013-05-11 15:42:00,65.2,63.4,29.70,WNW,285,0.0,0.0,94,0.06,,,0.68,VWS V14.01,2013-05-11 19:42:00,
2013-05-11 15:43:00,65.2,63.1,29.70,WNW,285,0.0,1.0,93,0.06,,,0.68,VWS V14.01,2013-05-11 19:43:00,
2013-05-11 15:44:00,65.2,63.1,29.70,WNW,285,0.0,1.0,93,0.06,,,0.68,VWS V14.01,2013-05-11 19:44:00,
2013-05-11 15:45:00,65.2,63.1,29.71,WNW,283,0.0,1.0,93,0.06,,,0.68,VWS V14.01,2013-05-11 19:45:00,
2013-05-11 15:46:00,65.2,63.1,29.71,WNW,282,0.0,1.0,93,0.06,,,0.68,VWS V14.01,2013-05-11 19:46:00,
2013-05-11 15:47:00,65.3,63.5,29.71,WNW,283,1.0,2.0,94,0.06,,,0.68,VWS V14.01,2013-05-11 19:47:00,
2013-05-11 15:48:00,65.3,63.5,29.71,WNW,282,0.0,2.0,94,0.06,,,0.68,VWS V14.01,2013-05-11 19:48:00,
2013-05-11 15:49:00,65.4,63.6,29.71,WNW,282,0.0,2.0,94,0.06,,,0.68,VWS V14.01,2013-05-11 19:49:00,
2013-05-11 15:50:00,65.4,63.6,29.71,West,274,4.0,6.0,94,0.06,,,0.68,VWS V14.01,2013-05-11 19:50:00,
2013-05-11 15:51:00,65.5,63.7,29.71,West,273,0.0,4.0,94,0.04,,,0.68,VWS V14.01,2013-05-11 19:51:00,
2013-05-11 15:52:00,65.6,63.8,29.71,West,273,2.0,4.0,94,0.04,,,0.68,VWS V14.01,2013-05-11 19:52:00,
2013-05-11 15:53:00,65.6,63.8,29.71,West,275,5.0,6.0,94,0.04,,,0.68,VWS V14.01,2013-05-11 19:53:00,
2013-05-11 15:54:00,65.5,63.7,29.71,WNW,294,4.0,6.0,94,0.04,,,0.68,VWS V14.01,2013-05-11 19:54:00,
2013-05-11 15:55:00,65.5,63.7,29.71,WNW,294,2.0,6.0,94,0.04,,,0.68,VWS V14.01,2013-05-11 19:55:00,
2013-05-11 15:56:00,65.5,63.7,29.71,WNW,294,0.0,6.0,94,0.04,,,0.68,VWS V14.01,2013-05-11 19:56:00,
2013-05-11 15:57:00,65.5,63.7,29.71,WNW,294,0.0,6.0,94,0.04,,,0.68,VWS V14.01,2013-05-11 19:57:00,
2013-05-11 15:58:00,65.5,63.7,29.71,WNW,294,3.0,6.0,94,0.04,,,0.68,VWS V14.01,2013-05-11 19:58:00,
2013-05-11 15:59:00,65.5,63.7,29.71,WSW,252,1.0,6.0,94,0.04,,,0.68,VWS V14.01,2013-05-11 19:59:00,
2013-05-11 16:00:00,65.5,63.7,29.71,WSW,252,0.0,6.0,94,0.04,,,0.68,VWS V14.01,2013-05-11 20:00:00,
2013-05-11 16:01:00,65.6,63.8,29.71,WSW,252,0.0,0.0,94,0.02,,,0.68,VWS V14.01,2013-05-11 20:01:00,
2013-05-11 16:02:00,65.6,63.8,29.71,WSW,252,0.0,0.0,94,0.02,,,0.68,VWS V14.01,2013-05-11 20:02:00,
2013-05-11 16:03:00,65.6,63.8,29.71,WSW,251,1.0,2.0,94,0.02,,,0.68,VWS V14.01,2013-05-11 20:03:00,
2013-05-11 16:04:00,65.6,63.8,29.71,WSW,251,1.0,2.0,94,0.02,,,0.68,VWS V14.01,2013-05-11 20:04:00,
2013-05-11 16:05:00,65.6,63.5,29.71,WSW,251,0.0,2.0,93,0.02,,,0.68,VWS V14.01,2013-05-11 20:05:00,
2013-05-11 16:06:00,65.7,63.6,29.71,West,265,2.0,3.0,93,0.02,,,0.68,VWS V14.01,2013-05-11 20:06:00,
2013-05-11 16:07:00,65.7,63.9,29.71,WNW,293,4.0,4.0,94,0.02,,,0.68,VWS V14.01,2013-05-11 20:07:00,
2013-05-11 16:08:00,65.8,64.0,29.71,WNW,291,0.0,4.0,94,0.02,,,0.68,VWS V14.01,2013-05-11 20:08:00,
2013-05-11 16:09:00,65.8,64.0,29.71,WNW,290,0.0,4.0,94,0.02,,,0.68,VWS V14.01,2013-05-11 20:09:00,
2013-05-11 16:10:00,65.8,63.7,29.71,West,281,1.0,4.0,93,0.02,,,0.68,VWS V14.01,2013-05-11 20:10:00,
2013-05-11 16:11:00,65.8,63.7,29.71,West,279,1.0,3.0,93,0.00,,,0.68,VWS V14.01,2013-05-11 20:11:00,
2013-05-11 16:12:00,65.8,63.7,29.71,West,279,0.0,3.0,93,0.00,,,0.68,VWS V14.01,2013-05-11 20:12:00,
2013-05-11 16:13:00,65.8,63.7,29.71,West,279,0.0,3.0,93,0.00,,,0.68,VWS V14.01,2013-05-11 20:13:00,
2013-05-11 16:14:00,65.8,63.7,29.71,West,270,2.0,4.0,93,0.00,,,0.68,VWS V14.01,2013-05-11 20:14:00,
2013-05-11 16:15:00,65.7,63.6,29.70,West,270,0.0,4.0,93,0.00,,,0.68,VWS V14.01,2013-05-11 20:15:00,
2013-05-11 16:16:00,65.8,63.7,29.70,West,270,0.0,4.0,93,0.00,,,0.68,VWS V14.01,2013-05-11 20:16:00,
2013-05-11 16:17:00,65.8,63.7,29.70,WNW,285,2.0,4.0,93,0.00,,,0.68,VWS V14.01,2013-05-11 20:17:00,
2013-05-11 16:18:00,65.8,63.7,29.70,West,270,1.0,4.0,93,0.00,,,0.68,VWS V14.01,2013-05-11 20:18:00,
2013-05-11 16:19:00,65.9,63.8,29.70,West,271,0.0,4.0,93,0.00,,,0.68,VWS V14.01,2013-05-11 20:19:00,
2013-05-11 16:20:00,65.9,63.8,29.70,West,271,0.0,4.0,93,0.00,,,0.68,VWS V14.01,2013-05-11 20:20:00,
2013-05-11 16:21:00,66.0,63.9,29.70,West,271,0.0,0.0,93,0.00,,,0.68,VWS V14.01,2013-05-11 20:21:00,
2013-05-11 16:22:00,66.1,64.0,29.70,West,271,0.0,0.0,93,0.00,,,0.68,VWS V14.01,2013-05-11 20:22:00,
2013-05-11 16:23:00,66.1,64.0,29.70,West,271,0.0,0.0,93,0.00,,,0.68,VWS V14.01,2013-05-11 20:23:00,
2013-05-11 16:24:00,66.3,64.2,29.70,West,271,0.0,1.0,93,0.00,,,0.68,VWS V14.01,2013-05-11 20:24:00,
2013-05-11 16:25:00,66.3,64.2,29.70,WSW,251,0.0,1.0,93,0.00,,,0.68,VWS V14.01,2013-05-11 20:25:00,
2013-05-11 16:26:00,66.4,64.3,29.70,WSW,251,1.0,1.0,93,0.00,,,0.68,VWS V14.01,2013-05-11 20:26:00,
2013-05-11 16:27:00,66.5,64.4,29.70,WSW,251,0.0,1.0,93,0.00,,,0.68,VWS V14.01,2013-05-11 20:27:00,
2013-05-11 16:28:00,66.5,64.4,29.70,WSW,251,0.0,1.0,93,0.00,,,0.68,VWS V14.01,2013-05-11 20:28:00,
2013-05-11 16:29:00,66.5,64.4,29.70,WSW,251,0.0,1.0,93,0.00,,,0.68,VWS V14.01,2013-05-11 20:29:00,
2013-05-11 16:30:00,66.5,64.1,29.70,WSW,251,0.0,1.0,92,0.00,,,0.68,VWS V14.01,2013-05-11 20:30:00,
2013-05-11 16:31:00,66.5,64.1,29.70,WSW,251,0.0,0.0,92,0.00,,,0.68,VWS V14.01,2013-05-11 20:31:00,
2013-05-11 16:32:00,66.5,64.1,29.70,WSW,251,0.0,0.0,92,0.00,,,0.68,VWS V14.01,2013-05-11 20:32:00,
2013-05-11 16:33:00,66.5,64.1,29.70,WSW,251,0.0,0.0,92,0.00,,,0.68,VWS V14.01,2013-05-11 20:33:00,
2013-05-11 16:34:00,66.6,64.2,29.70,WSW,252,3.0,3.0,92,0.00,,,0.68,VWS V14.01,2013-05-11 20:34:00,
2013-05-11 16:35:00,66.7,64.3,29.70,WSW,252,1.0,3.0,92,0.00,,,0.68,VWS V14.01,2013-05-11 20:35:00,
2013-05-11 16:36:00,66.8,64.4,29.70,WSW,252,0.0,3.0,92,0.00,,,0.68,VWS V14.01,2013-05-11 20:36:00,
2013-05-11 16:37:00,66.8,64.4,29.70,WSW,251,0.0,3.0,92,0.00,,,0.68,VWS V14.01,2013-05-11 20:37:00,
2013-05-11 16:38:00,66.9,64.5,29.70,WSW,252,0.0,3.0,92,0.00,,,0.68,VWS V14.01,2013-05-11 20:38:00,
2013-05-11 16:39:00,66.9,64.5,29.70,WSW,252,0.0,3.0,92,0.00,,,0.68,VWS V14.01,2013-05-11 20:39:00,
2013-05-11 16:40:00,67.0,64.3,29.70,SSE,161,1.0,3.0,91,0.00,,,0.68,VWS V14.01,2013-05-11 20:40:00,
2013-05-11 16:41:00,67.0,64.3,29.70,SSE,162,0.0,2.0,91,0.00,,,0.68,VWS V14.01,2013-05-11 20:41:00,
2013-05-11 16:42:00,67.0,64.3,29.70,SSE,162,0.0,2.0,91,0.00,,,0.68,VWS V14.01,2013-05-11 20:42:00,
2013-05-11 16:43:00,67.1,64.4,29.70,SSE,162,0.0,2.0,91,0.00,,,0.68,VWS V14.01,2013-05-11 20:43:00,
2013-05-11 16:44:00,67.1,64.1,29.70,SSE,162,0.0,2.0,90,0.00,,,0.68,VWS V14.01,2013-05-11 20:44:00,
2013-05-11 16:45:00,67.1,64.1,29.70,SSE,162,0.0,2.0,90,0.00,,,0.68,VWS V14.01,2013-05-11 20:45:00,
2013-05-11 16:46:00,67.1,64.1,29.70,SSE,162,0.0,2.0,90,0.00,,,0.68,VWS V14.01,2013-05-11 20:46:00,
2013-05-11 16:47:00,67.1,63.8,29.70,SSE,162,2.0,2.0,89,0.00,,,0.68,VWS V14.01,2013-05-11 20:47:00,
2013-05-11 16:48:00,67.1,63.8,29.70,West,262,1.0,4.0,89,0.00,,,0.68,VWS V14.01,2013-05-11 20:48:00,
2013-05-11 16:49:00,67.2,63.8,29.70,West,262,1.0,4.0,89,0.00,,,0.68,VWS V14.01,2013-05-11 20:49:00,
2013-05-11 16:50:00,67.2,63.8,29.70,West,262,0.0,4.0,89,0.00,,,0.68,VWS V14.01,2013-05-11 20:50:00,
2013-05-11 16:51:00,67.3,64.0,29.70,West,262,0.0,0.0,89,0.00,,,0.68,VWS V14.01,2013-05-11 20:51:00,
2013-05-11 16:52:00,67.3,64.0,29.70,West,273,4.0,4.0,89,0.00,,,0.68,VWS V14.01,2013-05-11 20:52:00,
2013-05-11 16:53:00,67.3,63.6,29.70,WNW,286,0.0,4.0,88,0.00,,,0.68,VWS V14.01,2013-05-11 20:53:00,
2013-05-11 16:54:00,67.4,63.7,29.70,WNW,286,0.0,4.0,88,0.00,,,0.68,VWS V14.01,2013-05-11 20:54:00,
2013-05-11 16:55:00,67.4,63.7,29.70,WNW,286,0.0,4.0,88,0.00,,,0.68,VWS V14.01,2013-05-11 20:55:00,
2013-05-11 16:56:00,67.4,63.4,29.70,WNW,286,2.0,4.0,87,0.00,,,0.68,VWS V14.01,2013-05-11 20:56:00,
2013-05-11 16:57:00,67.4,63.4,29.70,WNW,286,1.0,4.0,87,0.00,,,0.68,VWS V14.01,2013-05-11 20:57:00,
2013-05-11 16:58:00,67.4,63.4,29.70,WNW,286,0.0,4.0,87,0.00,,,0.68,VWS V14.01,2013-05-11 20:58:00,
2013-05-11 16:59:00,67.4,63.4,29.70,WNW,286,0.0,4.0,87,0.00,,,0.68,VWS V14.01,2013-05-11 20:59:00,
2013-05-11 17:00:00,67.4,63.4,29.70,West,280,3.0,4.0,87,0.00,,,0.68,VWS V14.01,2013-05-11 21:00:00,
2013-05-11 17:01:00,67.4,63.1,29.70,WNW,283,0.0,5.0,86,0.00,,,0.68,VWS V14.01,2013-05-11 21:01:00,
2013-05-11 17:02:00,67.4,63.1,29.70,WNW,283,0.0,5.0,86,0.00,,,0.68,VWS V14.01,2013-05-11 21:02:00,
2013-05-11 17:03:00,67.4,63.1,29.70,WNW,283,0.0,5.0,86,0.00,,,0.68,VWS V14.01,2013-05-11 21:03:00,
2013-05-11 17:04:00,67.4,63.1,29.70,WNW,283,0.0,5.0,86,0.00,,,0.68,VWS V14.01,2013-05-11 21:04:00,
2013-05-11 17:05:00,67.4,63.1,29.70,WNW,283,0.0,5.0,86,0.00,,,0.68,VWS V14.01,2013-05-11 21:05:00,
2013-05-11 17:06:00,67.4,62.7,29.70,WNW,283,0.0,5.0,85,0.00,,,0.68,VWS V14.01,2013-05-11 21:06:00,
2013-05-11 17:07:00,67.4,62.7,29.70,WNW,283,0.0,5.0,85,0.00,,,0.68,VWS V14.01,2013-05-11 21:07:00,
2013-05-11 17:08:00,67.4,62.7,29.70,WNW,283,0.0,5.0,85,0.00,,,0.68,VWS V14.01,2013-05-11 21:08:00,
2013-05-11 17:09:00,67.5,63.2,29.70,WNW,283,0.0,5.0,86,0.00,,,0.68,VWS V14.01,2013-05-11 21:09:00,
2013-05-11 17:10:00,67.5,63.2,29.70,WNW,283,0.0,5.0,86,0.00,,,0.68,VWS V14.01,2013-05-11 21:10:00,
2013-05-11 17:11:00,67.5,63.2,29.70,WNW,283,0.0,0.0,86,0.00,,,0.68,VWS V14.01,2013-05-11 21:11:00,
2013-05-11 17:12:00,67.5,62.8,29.70,WNW,283,0.0,1.0,85,0.00,,,0.68,VWS V14.01,2013-05-11 21:12:00,
2013-05-11 17:13:00,67.5,62.8,29.70,WNW,283,0.0,1.0,85,0.00,,,0.68,VWS V14.01,2013-05-11 21:13:00,
2013-05-11 17:14:00,67.5,62.8,29.70,SW,236,1.0,4.0,85,0.00,,,0.68,VWS V14.01,2013-05-11 21:14:00,
2013-05-11 17:15:00,67.5,62.5,29.70,SW,236,0.0,4.0,84,0.00,,,0.68,VWS V14.01,2013-05-11 21:15:00,
2013-05-11 17:16:00,67.4,62.4,29.70,West,272,4.0,4.0,84,0.00,,,0.68,VWS V14.01,2013-05-11 21:16:00,
2013-05-11 17:17:00,67.4,62.4,29.70,West,275,3.0,6.0,84,0.00,,,0.68,VWS V14.01,2013-05-11 21:17:00,
2013-05-11 17:18:00,67.4,62.4,29.70,NW,317,5.0,6.0,84,0.00,,,0.68,VWS V14.01,2013-05-11 21:18:00,
2013-05-11 17:19:00,67.4,62.4,29.70,West,274,3.0,7.0,84,0.00,,,0.68,VWS V14.01,2013-05-11 21:19:00,
2013-05-11 17:20:00,67.4,62.4,29.70,WNW,288,2.0,7.0,84,0.00,,,0.68,VWS V14.01,2013-05-11 21:20:00,
2013-05-11 17:21:00,67.4,62.4,29.70,WSW,256,2.0,4.0,84,0.00,,,0.68,VWS V14.01,2013-05-11 21:21:00,
2013-05-11 17:22:00,67.4,62.4,29.70,WSW,256,0.0,4.0,84,0.00,,,0.68,VWS V14.01,2013-05-11 21:22:00,
2013-05-11 17:23:00,67.4,62.4,29.70,WSW,256,0.0,4.0,84,0.00,,,0.68,VWS V14.01,2013-05-11 21:23:00,
2013-05-11 17:24:00,67.4,62.4,29.70,WSW,253,3.0,4.0,84,0.00,,,0.68,VWS V14.01,2013-05-11 21:24:00,
2013-05-11 17:25:00,67.4,62.4,29.70,WSW,253,2.0,4.0,84,0.00,,,0.68,VWS V14.01,2013-05-11 21:25:00,
2013-05-11 17:26:00,67.4,62.1,29.70,WSW,255,0.0,4.0,83,0.00,,,0.68,VWS V14.01,2013-05-11 21:26:00,
2013-05-11 17:27:00,67.4,62.1,29.70,NW,308,3.0,5.0,83,0.00,,,0.68,VWS V14.01,2013-05-11 21:27:00,
2013-05-11 17:28:00,67.4,62.1,29.70,NW,308,0.0,5.0,83,0.00,,,0.68,VWS V14.01,2013-05-11 21:28:00,
2013-05-11 17:29:00,67.4,62.1,29.70,NW,308,0.0,5.0,83,0.00,,,0.68,VWS V14.01,2013-05-11 21:29:00,
2013-05-11 17:30:00,67.4,62.1,29.70,NW,307,0.0,5.0,83,0.00,,,0.68,VWS V14.01,2013-05-11 21:30:00,
2013-05-11 17:31:00,67.3,62.0,29.70,NW,308,0.0,0.0,83,0.00,,,0.68,VWS V14.01,2013-05-11 21:31:00,
2013-05-11 17:32:00,67.3,62.0,29.70,NW,307,1.0,2.0,83,0.00,,,0.68,VWS V14.01,2013-05-11 21:32:00,
2013-05-11 17:33:00,67.4,62.1,29.70,NW,307,0.0,2.0,83,0.00,,,0.68,VWS V14.01,2013-05-11 21:33:00,
2013-05-11 17:34:00,67.4,62.1,29.70,NW,307,0.0,2.0,83,0.00,,,0.68,VWS V14.01,2013-05-11 21:34:00,
2013-05-11 17:35:00,67.4,62.1,29.70,NW,307,0.0,2.0,83,0.00,,,0.68,VWS V14.01,2013-05-11 21:35:00,
2013-05-11 17:36:00,67.4,62.1,29.70,NW,308,0.0,2.0,83,0.00,,,0.68,VWS V14.01,2013-05-11 21:36:00,
2013-05-11 17:37:00,67.4,62.1,29.70,WNW,292,4.0,4.0,83,0.00,,,0.68,VWS V14.01,2013-05-11 21:37:00,
2013-05-11 17:38:00,67.4,62.1,29.70,West,272,0.0,5.0,83,0.00,,,0.68,VWS V14.01,2013-05-11 21:38:00,
2013-05-11 17:39:00,67.4,62.1,29.70,West,275,0.0,5.0,83,0.00,,,0.68,VWS V14.01,2013-05-11 21:39:00,
2013-05-11 17:40:00,67.3,62.0,29.70,West,275,0.0,5.0,83,0.00,,,0.68,VWS V14.01,2013-05-11 21:40:00,
2013-05-11 17:41:00,67.3,62.0,29.70,West,275,1.0,1.0,83,0.00,,,0.68,VWS V14.01,2013-05-11 21:41:00,
2013-05-11 17:42:00,67.3,62.0,29.70,West,275,0.0,1.0,83,0.00,,,0.68,VWS V14.01,2013-05-11 21:42:00,
2013-05-11 17:43:00,67.3,62.0,29.70,West,275,0.0,1.0,83,0.00,,,0.68,VWS V14.01,2013-05-11 21:43:00,
2013-05-11 17:44:00,67.3,62.0,29.70,West,275,0.0,1.0,83,0.00,,,0.68,VWS V14.01,2013-05-11 21:44:00,
2013-05-11 17:45:00,67.3,62.0,29.70,West,275,0.0,1.0,83,0.00,,,0.68,VWS V14.01,2013-05-11 21:45:00,
2013-05-11 17:46:00,67.3,62.0,29.70,West,275,0.0,1.0,83,0.00,,,0.68,VWS V14.01,2013-05-11 21:46:00,
2013-05-11 17:47:00,67.3,62.0,29.70,West,275,0.0,1.0,83,0.00,,,0.68,VWS V14.01,2013-05-11 21:47:00,
2013-05-11 17:48:00,67.3,62.0,29.70,West,275,0.0,1.0,83,0.00,,,0.68,VWS V14.01,2013-05-11 21:48:00,
2013-05-11 17:49:00,67.3,61.6,29.70,West,275,0.0,1.0,82,0.00,,,0.68,VWS V14.01,2013-05-11 21:49:00,
2013-05-11 17:50:00,67.2,61.5,29.70,West,259,0.0,1.0,82,0.00,,,0.68,VWS V14.01,2013-05-11 21:50:00,
2013-05-11 17:51:00,67.2,61.9,29.70,West,259,0.0,2.0,83,0.00,,,0.68,VWS V14.01,2013-05-11 21:51:00,
2013-05-11 17:52:00,67.2,61.9,29.70,West,259,0.0,2.0,83,0.00,,,0.68,VWS V14.01,2013-05-11 21:52:00,
2013-05-11 17:53:00,67.2,61.9,29.70,West,259,0.0,2.0,83,0.00,,,0.68,VWS V14.01,2013-05-11 21:53:00,
2013-05-11 17:54:00,67.2,61.9,29.70,West,259,0.0,2.0,83,0.00,,,0.68,VWS V14.01,2013-05-11 21:54:00,
2013-05-11 17:55:00,67.2,61.9,29.70,West,259,0.0,2.0,83,0.00,,,0.68,VWS V14.01,2013-05-11 21:55:00,
2013-05-11 17:56:00,67.2,61.9,29.70,West,259,0.0,2.0,83,0.00,,,0.68,VWS V14.01,2013-05-11 21:56:00,
2013-05-11 17:57:00,67.2,61.9,29.70,West,260,0.0,2.0,83,0.00,,,0.68,VWS V14.01,2013-05-11 21:57:00,
2013-05-11 17:58:00,67.2,61.9,29.70,West,260,0.0,2.0,83,0.00,,,0.68,VWS V14.01,2013-05-11 21:58:00,
2013-05-11 17:59:00,67.2,61.9,29.70,West,260,0.0,2.0,83,0.00,,,0.68,VWS V14.01,2013-05-11 21:59:00,
2013-05-11 18:00:00,67.2,61.9,29.69,West,260,1.0,2.0,83,0.00,,,0.68,VWS V14.01,2013-05-11 22:00:00,
2013-05-11 18:01:00,67.2,61.9,29.69,West,260,0.0,1.0,83,0.00,,,0.68,VWS V14.01,2013-05-11 22:01:00,
2013-05-11 18:02:00,67.2,61.9,29.69,West,260,0.0,1.0,83,0.00,,,0.68,VWS V14.01,2013-05-11 22:02:00,
2013-05-11 18:03:00,67.2,61.9,29.69,West,261,0.0,3.0,83,0.00,,,0.68,VWS V14.01,2013-05-11 22:03:00,
2013-05-11 18:04:00,67.2,61.9,29.69,West,261,0.0,3.0,83,0.00,,,0.68,VWS V14.01,2013-05-11 22:04:00,
2013-05-11 18:05:00,67.2,61.9,29.69,West,261,1.0,3.0,83,0.00,,,0.68,VWS V14.01,2013-05-11 22:05:00,
2013-05-11 18:06:00,67.2,61.9,29.69,West,261,0.0,3.0,83,0.00,,,0.68,VWS V14.01,2013-05-11 22:06:00,
2013-05-11 18:07:00,67.2,61.9,29.69,West,261,0.0,3.0,83,0.00,,,0.68,VWS V14.01,2013-05-11 22:07:00,
2013-05-11 18:08:00,67.2,61.9,29.69,West,261,1.0,3.0,83,0.00,,,0.68,VWS V14.01,2013-05-11 22:08:00,
2013-05-11 18:09:00,67.2,61.9,29.69,West,261,0.0,3.0,83,0.00,,,0.68,VWS V14.01,2013-05-11 22:09:00,
2013-05-11 18:10:00,67.2,61.9,29.69,West,261,0.0,3.0,83,0.00,,,0.68,VWS V14.01,2013-05-11 22:10:00,
2013-05-11 18:11:00,67.1,61.8,29.69,West,261,0.0,0.0,83,0.00,,,0.68,VWS V14.01,2013-05-11 22:11:00,
2013-05-11 18:12:00,67.1,61.8,29.69,West,261,0.0,0.0,83,0.00,,,0.68,VWS V14.01,2013-05-11 22:12:00,
2013-05-11 18:13:00,67.1,61.8,29.69,West,261,0.0,0.0,83,0.00,,,0.68,VWS V14.01,2013-05-11 22:13:00,
2013-05-11 18:14:00,67.1,61.8,29.69,West,261,0.0,0.0,83,0.00,,,0.68,VWS V14.01,2013-05-11 22:14:00,
2013-05-11 18:15:00,67.1,61.8,29.70,West,261,0.0,0.0,83,0.00,,,0.68,VWS V14.01,2013-05-11 22:15:00,
2013-05-11 18:16:00,67.1,61.8,29.70,West,261,0.0,1.0,83,0.00,,,0.68,VWS V14.01,2013-05-11 22:16:00,
2013-05-11 18:17:00,67.1,61.8,29.70,West,261,0.0,1.0,83,0.00,,,0.68,VWS V14.01,2013-05-11 22:17:00,
2013-05-11 18:18:00,67.1,61.8,29.70,West,261,0.0,1.0,83,0.00,,,0.68,VWS V14.01,2013-05-11 22:18:00,
2013-05-11 18:19:00,67.1,61.8,29.70,West,261,0.0,1.0,83,0.00,,,0.68,VWS V14.01,2013-05-11 22:19:00,
2013-05-11 18:20:00,67.1,61.8,29.70,West,261,0.0,1.0,83,0.00,,,0.68,VWS V14.01,2013-05-11 22:20:00,
2013-05-11 18:21:00,67.0,61.7,29.70,West,261,0.0,0.0,83,0.00,,,0.68,VWS V14.01,2013-05-11 22:21:00,
2013-05-11 18:22:00,67.0,61.7,29.70,West,261,0.0,0.0,83,0.00,,,0.68,VWS V14.01,2013-05-11 22:22:00,
2013-05-11 18:23:00,67.0,61.7,29.70,West,261,0.0,0.0,83,0.00,,,0.68,VWS V14.01,2013-05-11 22:23:00,
2013-05-11 18:24:00,67.0,62.0,29.70,West,261,0.0,0.0,84,0.00,,,0.68,VWS V14.01,2013-05-11 22:24:00,
2013-05-11 18:25:00,67.0,62.0,29.70,West,261,0.0,0.0,84,0.00,,,0.68,VWS V14.01,2013-05-11 22:25:00,
2013-05-11 18:26:00,67.0,62.0,29.70,West,261,0.0,0.0,84,0.00,,,0.68,VWS V14.01,2013-05-11 22:26:00,
2013-05-11 18:27:00,67.0,62.0,29.70,West,261,0.0,0.0,84,0.00,,,0.68,VWS V14.01,2013-05-11 22:27:00,
2013-05-11 18:28:00,67.0,62.0,29.70,West,261,0.0,0.0,84,0.00,,,0.68,VWS V14.01,2013-05-11 22:28:00,
2013-05-11 18:29:00,66.9,61.9,29.70,West,261,0.0,0.0,84,0.00,,,0.68,VWS V14.01,2013-05-11 22:29:00,
2013-05-11 18:30:00,66.9,61.9,29.70,West,261,0.0,0.0,84,0.00,,,0.68,VWS V14.01,2013-05-11 22:30:00,
2013-05-11 18:31:00,66.9,61.9,29.70,West,261,0.0,1.0,84,0.00,,,0.68,VWS V14.01,2013-05-11 22:31:00,
2013-05-11 18:32:00,66.9,61.9,29.70,West,261,0.0,1.0,84,0.00,,,0.68,VWS V14.01,2013-05-11 22:32:00,
2013-05-11 18:33:00,66.8,61.8,29.70,West,261,0.0,1.0,84,0.00,,,0.68,VWS V14.01,2013-05-11 22:33:00,
2013-05-11 18:34:00,66.8,61.8,29.70,West,261,0.0,1.0,84,0.00,,,0.68,VWS V14.01,2013-05-11 22:34:00,
2013-05-11 18:35:00,66.8,61.8,29.70,West,261,0.0,1.0,84,0.00,,,0.68,VWS V14.01,2013-05-11 22:35:00,
2013-05-11 18:36:00,66.8,61.8,29.70,West,261,0.0,1.0,84,0.00,,,0.68,VWS V14.01,2013-05-11 22:36:00,
2013-05-11 18:37:00,66.8,62.2,29.70,West,261,0.0,1.0,85,0.00,,,0.68,VWS V14.01,2013-05-11 22:37:00,
2013-05-11 18:38:00,66.8,62.2,29.70,West,261,0.0,1.0,85,0.00,,,0.68,VWS V14.01,2013-05-11 22:38:00,
2013-05-11 18:39:00,66.8,62.2,29.70,West,261,0.0,1.0,85,0.00,,,0.68,VWS V14.01,2013-05-11 22:39:00,
2013-05-11 18:40:00,66.8,62.2,29.70,West,261,0.0,1.0,85,0.00,,,0.68,VWS V14.01,2013-05-11 22:40:00,
2013-05-11 18:41:00,66.7,62.0,29.70,West,261,0.0,0.0,85,0.00,,,0.68,VWS V14.01,2013-05-11 22:41:00,
2013-05-11 18:42:00,66.7,62.0,29.70,West,261,0.0,0.0,85,0.00,,,0.68,VWS V14.01,2013-05-11 22:42:00,
2013-05-11 18:43:00,66.7,62.0,29.70,West,261,0.0,0.0,85,0.00,,,0.68,VWS V14.01,2013-05-11 22:43:00,
2013-05-11 18:44:00,66.7,62.0,29.70,West,261,0.0,1.0,85,0.00,,,0.68,VWS V14.01,2013-05-11 22:44:00,
2013-05-11 18:45:00,66.7,62.0,29.70,West,261,0.0,1.0,85,0.00,,,0.68,VWS V14.01,2013-05-11 22:45:00,
2013-05-11 18:46:00,66.6,62.0,29.70,West,261,0.0,1.0,85,0.00,,,0.68,VWS V14.01,2013-05-11 22:46:00,
2013-05-11 18:47:00,66.6,62.0,29.70,West,261,0.0,1.0,85,0.00,,,0.68,VWS V14.01,2013-05-11 22:47:00,
2013-05-11 18:48:00,66.6,62.0,29.70,West,261,0.0,1.0,85,0.00,,,0.68,VWS V14.01,2013-05-11 22:48:00,
2013-05-11 18:49:00,66.5,61.9,29.70,West,261,0.0,1.0,85,0.00,,,0.68,VWS V14.01,2013-05-11 22:49:00,
2013-05-11 18:50:00,66.5,61.9,29.70,West,261,0.0,1.0,85,0.00,,,0.68,VWS V14.01,2013-05-11 22:50:00,
2013-05-11 18:51:00,66.5,61.9,29.70,West,261,0.0,0.0,85,0.00,,,0.68,VWS V14.01,2013-05-11 22:51:00,
2013-05-11 18:52:00,66.5,61.9,29.70,West,261,0.0,0.0,85,0.00,,,0.68,VWS V14.01,2013-05-11 22:52:00,
2013-05-11 18:53:00,66.4,61.8,29.70,West,261,0.0,0.0,85,0.00,,,0.68,VWS V14.01,2013-05-11 22:53:00,
2013-05-11 18:54:00,66.4,61.8,29.70,West,261,0.0,0.0,85,0.00,,,0.68,VWS V14.01,2013-05-11 22:54:00,
2013-05-11 18:55:00,66.4,61.8,29.70,West,261,0.0,0.0,85,0.00,,,0.68,VWS V14.01,2013-05-11 22:55:00,
2013-05-11 18:56:00,66.3,61.7,29.70,West,261,0.0,0.0,85,0.00,,,0.68,VWS V14.01,2013-05-11 22:56:00,
2013-05-11 18:57:00,66.3,61.7,29.70,West,261,0.0,0.0,85,0.00,,,0.68,VWS V14.01,2013-05-11 22:57:00,
2013-05-11 18:58:00,66.3,61.7,29.70,West,261,0.0,0.0,85,0.00,,,0.68,VWS V14.01,2013-05-11 22:58:00,
2013-05-11 18:59:00,66.3,62.0,29.70,West,261,0.0,0.0,86,0.00,,,0.68,VWS V14.01,2013-05-11 22:59:00,
2013-05-11 19:00:00,66.2,61.9,29.70,West,261,0.0,0.0,86,0.00,,,0.68,VWS V14.01,2013-05-11 23:00:00,
2013-05-11 19:01:00,66.3,62.0,29.70,West,261,0.0,0.0,86,0.00,,,0.68,VWS V14.01,2013-05-11 23:01:00,
2013-05-11 19:02:00,66.2,61.9,29.70,West,261,0.0,0.0,86,0.00,,,0.68,VWS V14.01,2013-05-11 23:02:00,
2013-05-11 19:03:00,66.2,61.9,29.70,West,261,0.0,0.0,86,0.00,,,0.68,VWS V14.01,2013-05-11 23:03:00,
2013-05-11 19:04:00,66.2,61.9,29.70,West,261,0.0,0.0,86,0.00,,,0.68,VWS V14.01,2013-05-11 23:04:00,
2013-05-11 19:05:00,66.2,61.9,29.70,West,261,0.0,0.0,86,0.00,,,0.68,VWS V14.01,2013-05-11 23:05:00,
2013-05-11 19:06:00,66.2,61.9,29.70,West,261,0.0,0.0,86,0.00,,,0.68,VWS V14.01,2013-05-11 23:06:00,
2013-05-11 19:07:00,66.1,61.8,29.70,West,261,0.0,0.0,86,0.00,,,0.68,VWS V14.01,2013-05-11 23:07:00,
2013-05-11 19:08:00,66.1,61.8,29.70,West,261,0.0,0.0,86,0.00,,,0.68,VWS V14.01,2013-05-11 23:08:00,
2013-05-11 19:09:00,66.1,61.8,29.70,West,261,0.0,0.0,86,0.00,,,0.68,VWS V14.01,2013-05-11 23:09:00,
2013-05-11 19:10:00,66.1,61.8,29.70,West,261,0.0,0.0,86,0.00,,,0.68,VWS V14.01,2013-05-11 23:10:00,
2013-05-11 19:11:00,66.1,62.1,29.70,West,261,0.0,0.0,87,0.00,,,0.68,VWS V14.01,2013-05-11 23:11:00,
2013-05-11 19:12:00,66.1,62.1,29.70,West,261,0.0,0.0,87,0.00,,,0.68,VWS V14.01,2013-05-11 23:12:00,
2013-05-11 19:13:00,66.0,62.0,29.70,West,261,0.0,0.0,87,0.00,,,0.68,VWS V14.01,2013-05-11 23:13:00,
2013-05-11 19:14:00,66.0,62.0,29.70,West,261,0.0,0.0,87,0.00,,,0.68,VWS V14.01,2013-05-11 23:14:00,
2013-05-11 19:15:00,66.0,62.0,29.71,West,261,0.0,0.0,87,0.00,,,0.68,VWS V14.01,2013-05-11 23:15:00,
2013-05-11 19:16:00,65.9,61.9,29.71,West,261,0.0,0.0,87,0.00,,,0.68,VWS V14.01,2013-05-11 23:16:00,
2013-05-11 19:17:00,65.9,61.9,29.71,West,261,0.0,0.0,87,0.00,,,0.68,VWS V14.01,2013-05-11 23:17:00,
2013-05-11 19:18:00,65.9,62.2,29.71,West,261,0.0,0.0,88,0.00,,,0.68,VWS V14.01,2013-05-11 23:18:00,
2013-05-11 19:19:00,65.9,62.2,29.71,West,261,0.0,0.0,88,0.00,,,0.68,VWS V14.01,2013-05-11 23:19:00,
2013-05-11 19:20:00,65.8,62.2,29.71,West,261,0.0,0.0,88,0.00,,,0.68,VWS V14.01,2013-05-11 23:20:00,
2013-05-11 19:21:00,65.8,62.2,29.71,West,261,0.0,0.0,88,0.00,,,0.68,VWS V14.01,2013-05-11 23:21:00,
2013-05-11 19:22:00,65.8,62.2,29.71,West,261,0.0,0.0,88,0.00,,,0.68,VWS V14.01,2013-05-11 23:22:00,
2013-05-11 19:23:00,65.7,62.0,29.71,West,261,0.0,0.0,88,0.00,,,0.68,VWS V14.01,2013-05-11 23:23:00,
2013-05-11 19:24:00,65.7,62.0,29.71,West,261,0.0,0.0,88,0.00,,,0.68,VWS V14.01,2013-05-11 23:24:00,
2013-05-11 19:25:00,65.7,62.0,29.71,West,261,0.0,0.0,88,0.00,,,0.68,VWS V14.01,2013-05-11 23:25:00,
2013-05-11 19:26:00,65.6,62.0,29.71,West,261,0.0,0.0,88,0.00,,,0.68,VWS V14.01,2013-05-11 23:26:00,
2013-05-11 19:27:00,65.5,61.9,29.71,West,261,0.0,0.0,88,0.00,,,0.68,VWS V14.01,2013-05-11 23:27:00,
2013-05-11 19:28:00,65.5,61.9,29.71,West,261,0.0,0.0,88,0.00,,,0.68,VWS V14.01,2013-05-11 23:28:00,
2013-05-11 19:29:00,65.4,62.1,29.71,West,261,0.0,0.0,89,0.00,,,0.68,VWS V14.01,2013-05-11 23:29:00,
2013-05-11 19:30:00,65.4,62.1,29.70,West,261,0.0,0.0,89,0.00,,,0.68,VWS V14.01,2013-05-11 23:30:00,
2013-05-11 19:31:00,65.4,62.1,29.70,West,261,0.0,0.0,89,0.00,,,0.68,VWS V14.01,2013-05-11 23:31:00,
2013-05-11 19:32:00,65.3,62.0,29.70,West,261,0.0,0.0,89,0.00,,,0.68,VWS V14.01,2013-05-11 23:32:00,
2013-05-11 19:33:00,65.3,62.0,29.70,West,261,0.0,0.0,89,0.00,,,0.68,VWS V14.01,2013-05-11 23:33:00,
2013-05-11 19:34:00,65.3,62.0,29.70,West,261,0.0,0.0,89,0.00,,,0.68,VWS V14.01,2013-05-11 23:34:00,
2013-05-11 19:35:00,65.3,62.0,29.70,West,261,0.0,0.0,89,0.00,,,0.68,VWS V14.01,2013-05-11 23:35:00,
2013-05-11 19:36:00,65.2,61.9,29.70,West,261,0.0,0.0,89,0.00,,,0.68,VWS V14.01,2013-05-11 23:36:00,
2013-05-11 19:37:00,65.2,61.9,29.70,West,261,0.0,0.0,89,0.01,,,0.69,VWS V14.01,2013-05-11 23:37:00,
2013-05-11 19:38:00,65.2,61.9,29.70,West,261,0.0,0.0,89,0.01,,,0.69,VWS V14.01,2013-05-11 23:38:00,
2013-05-11 19:39:00,65.1,61.8,29.70,West,261,0.0,0.0,89,0.01,,,0.69,VWS V14.01,2013-05-11 23:39:00,
2013-05-11 19:40:00,65.1,61.8,29.70,West,261,0.0,0.0,89,0.01,,,0.69,VWS V14.01,2013-05-11 23:40:00,
2013-05-11 19:41:00,65.1,62.1,29.70,West,261,0.0,0.0,90,0.01,,,0.69,VWS V14.01,2013-05-11 23:41:00,
2013-05-11 19:42:00,65.1,62.1,29.70,West,261,0.0,0.0,90,0.01,,,0.69,VWS V14.01,2013-05-11 23:42:00,
2013-05-11 19:43:00,65.1,62.1,29.70,West,261,0.0,0.0,90,0.01,,,0.69,VWS V14.01,2013-05-11 23:43:00,
2013-05-11 19:44:00,65.1,62.1,29.70,West,261,0.0,0.0,90,0.01,,,0.69,VWS V14.01,2013-05-11 23:44:00,
2013-05-11 19:45:00,65.0,62.0,29.70,West,261,0.0,0.0,90,0.01,,,0.69,VWS V14.01,2013-05-11 23:45:00,
2013-05-11 19:46:00,65.0,62.0,29.70,West,261,0.0,0.0,90,0.01,,,0.69,VWS V14.01,2013-05-11 23:46:00,
2013-05-11 19:47:00,65.0,62.0,29.70,West,261,0.0,0.0,90,0.01,,,0.69,VWS V14.01,2013-05-11 23:47:00,
2013-05-11 19:48:00,65.0,62.0,29.70,West,261,0.0,0.0,90,0.01,,,0.69,VWS V14.01,2013-05-11 23:48:00,
2013-05-11 19:49:00,65.0,62.0,29.70,West,261,0.0,0.0,90,0.01,,,0.69,VWS V14.01,2013-05-11 23:49:00,
2013-05-11 19:50:00,64.9,61.9,29.70,West,261,0.0,0.0,90,0.01,,,0.69,VWS V14.01,2013-05-11 23:50:00,
2013-05-11 19:51:00,64.9,61.9,29.70,West,261,0.0,0.0,90,0.01,,,0.69,VWS V14.01,2013-05-11 23:51:00,
2013-05-11 19:52:00,64.9,61.9,29.70,West,261,0.0,1.0,90,0.01,,,0.69,VWS V14.01,2013-05-11 23:52:00,
2013-05-11 19:53:00,64.9,61.9,29.70,West,261,0.0,1.0,90,0.01,,,0.69,VWS V14.01,2013-05-11 23:53:00,
2013-05-11 19:54:00,64.9,62.2,29.70,West,261,0.0,1.0,91,0.01,,,0.69,VWS V14.01,2013-05-11 23:54:00,
2013-05-11 19:55:00,64.8,62.1,29.70,West,261,0.0,1.0,91,0.01,,,0.69,VWS V14.01,2013-05-11 23:55:00,
2013-05-11 19:56:00,64.8,62.1,29.70,West,261,0.0,1.0,91,0.01,,,0.69,VWS V14.01,2013-05-11 23:56:00,
2013-05-11 19:57:00,64.8,62.1,29.70,WNW,286,0.0,2.0,91,0.01,,,0.69,VWS V14.01,2013-05-11 23:57:00,
2013-05-11 19:58:00,64.8,62.1,29.70,WNW,286,0.0,2.0,91,0.01,,,0.69,VWS V14.01,2013-05-11 23:58:00,
2013-05-11 19:59:00,64.7,62.0,29.70,WNW,286,0.0,2.0,91,0.01,,,0.69,VWS V14.01,2013-05-11 23:59:00,
2013-05-11 20:00:00,64.7,62.0,29.70,WNW,286,0.0,2.0,91,0.01,,,0.69,VWS V14.01,2013-05-12 00:00:00,
2013-05-11 20:01:00,64.7,62.0,29.70,WNW,286,0.0,0.0,91,0.01,,,0.69,VWS V14.01,2013-05-12 00:01:00,
2013-05-11 20:02:00,64.7,62.0,29.70,WNW,286,0.0,0.0,91,0.01,,,0.69,VWS V14.01,2013-05-12 00:02:00,
2013-05-11 20:03:00,64.6,61.9,29.70,WNW,286,0.0,1.0,91,0.01,,,0.69,VWS V14.01,2013-05-12 00:03:00,
2013-05-11 20:04:00,64.6,61.9,29.70,WNW,286,0.0,1.0,91,0.01,,,0.69,VWS V14.01,2013-05-12 00:04:00,
2013-05-11 20:05:00,64.6,61.9,29.70,WNW,286,0.0,1.0,91,0.01,,,0.69,VWS V14.01,2013-05-12 00:05:00,
2013-05-11 20:06:00,64.5,61.8,29.70,WNW,286,0.0,1.0,91,0.01,,,0.69,VWS V14.01,2013-05-12 00:06:00,
2013-05-11 20:07:00,64.5,61.8,29.70,WNW,286,0.0,2.0,91,0.01,,,0.69,VWS V14.01,2013-05-12 00:07:00,
2013-05-11 20:08:00,64.5,61.8,29.70,WNW,286,0.0,2.0,91,0.01,,,0.69,VWS V14.01,2013-05-12 00:08:00,
2013-05-11 20:09:00,64.5,61.8,29.70,WNW,286,0.0,2.0,91,0.01,,,0.69,VWS V14.01,2013-05-12 00:09:00,
2013-05-11 20:10:00,64.4,61.7,29.70,WNW,286,0.0,2.0,91,0.01,,,0.69,VWS V14.01,2013-05-12 00:10:00,
2013-05-11 20:11:00,64.4,61.7,29.70,WNW,286,0.0,0.0,91,0.01,,,0.69,VWS V14.01,2013-05-12 00:11:00,
2013-05-11 20:12:00,64.4,62.0,29.70,WNW,286,0.0,0.0,92,0.01,,,0.69,VWS V14.01,2013-05-12 00:12:00,
2013-05-11 20:13:00,64.4,62.0,29.70,WNW,286,0.0,0.0,92,0.01,,,0.69,VWS V14.01,2013-05-12 00:13:00,
2013-05-11 20:14:00,64.4,62.0,29.70,WNW,286,0.0,0.0,92,0.01,,,0.69,VWS V14.01,2013-05-12 00:14:00,
2013-05-11 20:15:00,64.4,62.0,29.70,WNW,286,0.0,0.0,92,0.01,,,0.69,VWS V14.01,2013-05-12 00:15:00,
2013-05-11 20:16:00,64.4,62.0,29.70,WNW,286,0.0,0.0,92,0.01,,,0.69,VWS V14.01,2013-05-12 00:16:00,
2013-05-11 20:17:00,64.3,61.9,29.70,WNW,286,0.0,0.0,92,0.01,,,0.69,VWS V14.01,2013-05-12 00:17:00,
2013-05-11 20:18:00,64.3,61.9,29.70,WNW,286,0.0,0.0,92,0.01,,,0.69,VWS V14.01,2013-05-12 00:18:00,
2013-05-11 20:19:00,64.3,61.9,29.70,WNW,286,0.0,0.0,92,0.01,,,0.69,VWS V14.01,2013-05-12 00:19:00,
2013-05-11 20:20:00,64.3,61.9,29.70,WNW,286,0.0,0.0,92,0.01,,,0.69,VWS V14.01,2013-05-12 00:20:00,
2013-05-11 20:21:00,64.3,61.9,29.70,WNW,286,0.0,0.0,92,0.01,,,0.69,VWS V14.01,2013-05-12 00:21:00,
2013-05-11 20:22:00,64.2,61.8,29.70,WNW,286,0.0,0.0,92,0.01,,,0.69,VWS V14.01,2013-05-12 00:22:00,
2013-05-11 20:23:00,64.2,61.8,29.70,WNW,286,0.0,0.0,92,0.01,,,0.69,VWS V14.01,2013-05-12 00:23:00,
2013-05-11 20:24:00,64.2,61.8,29.70,WNW,286,0.0,0.0,92,0.01,,,0.69,VWS V14.01,2013-05-12 00:24:00,
2013-05-11 20:25:00,64.2,61.8,29.70,WNW,286,0.0,1.0,92,0.01,,,0.69,VWS V14.01,2013-05-12 00:25:00,
2013-05-11 20:26:00,64.2,61.8,29.70,WNW,286,0.0,1.0,92,0.01,,,0.69,VWS V14.01,2013-05-12 00:26:00,
2013-05-11 20:27:00,64.2,61.8,29.70,WNW,286,0.0,1.0,92,0.01,,,0.69,VWS V14.01,2013-05-12 00:27:00,
2013-05-11 20:28:00,64.1,61.7,29.70,WNW,286,1.0,1.0,92,0.01,,,0.69,VWS V14.01,2013-05-12 00:28:00,
2013-05-11 20:29:00,64.2,61.8,29.70,WNW,286,0.0,1.0,92,0.01,,,0.69,VWS V14.01,2013-05-12 00:29:00,
2013-05-11 20:30:00,64.1,61.7,29.70,WNW,286,0.0,1.0,92,0.01,,,0.69,VWS V14.01,2013-05-12 00:30:00,
2013-05-11 20:31:00,64.1,61.7,29.70,WNW,286,1.0,2.0,92,0.01,,,0.69,VWS V14.01,2013-05-12 00:31:00,
2013-05-11 20:32:00,64.1,61.7,29.70,WNW,286,0.0,2.0,92,0.01,,,0.69,VWS V14.01,2013-05-12 00:32:00,
2013-05-11 20:33:00,64.1,61.7,29.70,WNW,286,0.0,2.0,92,0.01,,,0.69,VWS V14.01,2013-05-12 00:33:00,
2013-05-11 20:34:00,64.1,61.7,29.70,WNW,285,2.0,2.0,92,0.01,,,0.69,VWS V14.01,2013-05-12 00:34:00,
2013-05-11 20:35:00,64.1,61.7,29.70,WNW,285,0.0,2.0,92,0.01,,,0.69,VWS V14.01,2013-05-12 00:35:00,
2013-05-11 20:36:00,64.1,61.7,29.70,WNW,285,0.0,2.0,92,0.01,,,0.69,VWS V14.01,2013-05-12 00:36:00,
2013-05-11 20:37:00,64.1,61.7,29.70,WNW,285,0.0,2.0,92,0.01,,,0.69,VWS V14.01,2013-05-12 00:37:00,
2013-05-11 20:38:00,64.1,61.7,29.70,WNW,285,0.0,2.0,92,0.01,,,0.69,VWS V14.01,2013-05-12 00:38:00,
2013-05-11 20:39:00,64.0,61.6,29.70,WNW,285,0.0,2.0,92,0.01,,,0.69,VWS V14.01,2013-05-12 00:39:00,
2013-05-11 20:40:00,64.0,61.6,29.70,WNW,285,0.0,2.0,92,0.01,,,0.69,VWS V14.01,2013-05-12 00:40:00,
2013-05-11 20:41:00,64.0,61.6,29.70,WNW,285,0.0,0.0,92,0.00,,,0.69,VWS V14.01,2013-05-12 00:41:00,
2013-05-11 20:42:00,64.0,61.6,29.70,WNW,285,0.0,0.0,92,0.00,,,0.69,VWS V14.01,2013-05-12 00:42:00,
2013-05-11 20:43:00,64.0,61.6,29.70,WNW,285,0.0,1.0,92,0.00,,,0.69,VWS V14.01,2013-05-12 00:43:00,
2013-05-11 20:44:00,64.0,61.6,29.70,WNW,283,0.0,2.0,92,0.00,,,0.69,VWS V14.01,2013-05-12 00:44:00,
2013-05-11 20:45:00,64.0,61.6,29.70,WNW,283,0.0,2.0,92,0.00,,,0.69,VWS V14.01,2013-05-12 00:45:00,
2013-05-11 20:46:00,64.0,61.6,29.70,WNW,283,0.0,2.0,92,0.00,,,0.69,VWS V14.01,2013-05-12 00:46:00,
2013-05-11 20:47:00,63.9,61.5,29.70,WNW,283,0.0,2.0,92,0.00,,,0.69,VWS V14.01,2013-05-12 00:47:00,
2013-05-11 20:48:00,63.9,61.5,29.70,WNW,283,0.0,2.0,92,0.00,,,0.69,VWS V14.01,2013-05-12 00:48:00,
2013-05-11 20:49:00,63.9,61.5,29.70,WNW,283,0.0,2.0,92,0.00,,,0.69,VWS V14.01,2013-05-12 00:49:00,
2013-05-11 20:50:00,63.9,61.5,29.70,WNW,283,0.0,2.0,92,0.00,,,0.69,VWS V14.01,2013-05-12 00:50:00,
2013-05-11 20:51:00,63.9,61.8,29.70,WNW,283,0.0,0.0,93,0.00,,,0.69,VWS V14.01,2013-05-12 00:51:00,
2013-05-11 20:52:00,63.8,61.7,29.70,WNW,284,0.0,0.0,93,0.00,,,0.69,VWS V14.01,2013-05-12 00:52:00,
2013-05-11 20:53:00,63.8,61.7,29.70,WNW,284,0.0,0.0,93,0.00,,,0.69,VWS V14.01,2013-05-12 00:53:00,
2013-05-11 20:54:00,63.8,61.7,29.70,WNW,283,0.0,0.0,93,0.00,,,0.69,VWS V14.01,2013-05-12 00:54:00,
2013-05-11 20:55:00,63.8,61.7,29.70,WNW,284,1.0,1.0,93,0.00,,,0.69,VWS V14.01,2013-05-12 00:55:00,
2013-05-11 20:56:00,63.8,61.7,29.70,WNW,284,1.0,3.0,93,0.00,,,0.69,VWS V14.01,2013-05-12 00:56:00,
2013-05-11 20:57:00,63.8,61.7,29.70,WNW,284,0.0,3.0,93,0.00,,,0.69,VWS V14.01,2013-05-12 00:57:00,
2013-05-11 20:58:00,63.8,61.7,29.70,WNW,284,0.0,3.0,93,0.00,,,0.69,VWS V14.01,2013-05-12 00:58:00,
2013-05-11 20:59:00,63.8,61.7,29.70,WNW,284,2.0,3.0,93,0.00,,,0.69,VWS V14.01,2013-05-12 00:59:00,
2013-05-11 21:00:00,63.7,61.6,29.70,WNW,284,1.0,3.0,93,0.00,,,0.69,VWS V14.01,2013-05-12 01:00:00,
2013-05-11 21:01:00,63.7,61.6,29.70,WNW,284,0.0,2.0,93,0.00,,,0.69,VWS V14.01,2013-05-12 01:01:00,
2013-05-11 21:02:00,63.7,61.6,29.70,WNW,284,0.0,2.0,93,0.00,,,0.69,VWS V14.01,2013-05-12 01:02:00,
2013-05-11 21:03:00,63.7,61.6,29.70,WNW,284,0.0,2.0,93,0.00,,,0.69,VWS V14.01,2013-05-12 01:03:00,
2013-05-11 21:04:00,63.7,61.6,29.70,WNW,284,0.0,2.0,93,0.00,,,0.69,VWS V14.01,2013-05-12 01:04:00,
2013-05-11 21:05:00,63.6,61.5,29.70,WNW,284,0.0,2.0,93,0.00,,,0.69,VWS V14.01,2013-05-12 01:05:00,
2013-05-11 21:06:00,63.7,61.6,29.70,WNW,284,0.0,2.0,93,0.00,,,0.69,VWS V14.01,2013-05-12 01:06:00,
2013-05-11 21:07:00,63.6,61.5,29.70,WNW,284,2.0,3.0,93,0.00,,,0.69,VWS V14.01,2013-05-12 01:07:00,
2013-05-11 21:08:00,63.6,61.5,29.70,WNW,284,0.0,3.0,93,0.00,,,0.69,VWS V14.01,2013-05-12 01:08:00,
2013-05-11 21:09:00,63.6,61.5,29.70,WNW,284,0.0,3.0,93,0.00,,,0.69,VWS V14.01,2013-05-12 01:09:00,
2013-05-11 21:10:00,63.6,61.5,29.70,WNW,284,0.0,3.0,93,0.00,,,0.69,VWS V14.01,2013-05-12 01:10:00,
2013-05-11 21:11:00,63.6,61.5,29.70,WNW,284,0.0,0.0,93,0.00,,,0.69,VWS V14.01,2013-05-12 01:11:00,
2013-05-11 21:12:00,63.6,61.5,29.70,WNW,284,0.0,0.0,93,0.00,,,0.69,VWS V14.01,2013-05-12 01:12:00,
2013-05-11 21:13:00,63.6,61.5,29.70,WNW,284,0.0,0.0,93,0.00,,,0.69,VWS V14.01,2013-05-12 01:13:00,
2013-05-11 21:14:00,63.6,61.5,29.70,WNW,284,0.0,0.0,93,0.00,,,0.69,VWS V14.01,2013-05-12 01:14:00,
2013-05-11 21:15:00,63.6,61.5,29.71,WNW,284,0.0,0.0,93,0.00,,,0.69,VWS V14.01,2013-05-12 01:15:00,
2013-05-11 21:16:00,63.6,61.5,29.71,WNW,284,0.0,0.0,93,0.00,,,0.69,VWS V14.01,2013-05-12 01:16:00,
2013-05-11 21:17:00,63.5,61.4,29.71,WNW,284,0.0,1.0,93,0.00,,,0.69,VWS V14.01,2013-05-12 01:17:00,
2013-05-11 21:18:00,63.5,61.4,29.71,WNW,284,0.0,1.0,93,0.00,,,0.69,VWS V14.01,2013-05-12 01:18:00,
2013-05-11 21:19:00,63.5,61.4,29.71,WNW,284,0.0,1.0,93,0.00,,,0.69,VWS V14.01,2013-05-12 01:19:00,
2013-05-11 21:20:00,63.5,61.4,29.71,WNW,284,0.0,1.0,93,0.00,,,0.69,VWS V14.01,2013-05-12 01:20:00,
2013-05-11 21:21:00,63.5,61.4,29.71,WNW,284,0.0,1.0,93,0.00,,,0.69,VWS V14.01,2013-05-12 01:21:00,
2013-05-11 21:22:00,63.5,61.4,29.71,WNW,284,0.0,1.0,93,0.00,,,0.69,VWS V14.01,2013-05-12 01:22:00,
2013-05-11 21:23:00,63.4,61.3,29.71,WNW,284,0.0,1.0,93,0.00,,,0.69,VWS V14.01,2013-05-12 01:23:00,
2013-05-11 21:24:00,63.4,61.3,29.71,WNW,284,0.0,1.0,93,0.00,,,0.69,VWS V14.01,2013-05-12 01:24:00,
2013-05-11 21:25:00,63.4,61.3,29.71,WNW,284,0.0,1.0,93,0.00,,,0.69,VWS V14.01,2013-05-12 01:25:00,
2013-05-11 21:26:00,63.4,61.3,29.71,WNW,284,0.0,1.0,93,0.00,,,0.69,VWS V14.01,2013-05-12 01:26:00,
2013-05-11 21:27:00,63.4,61.3,29.71,WNW,284,0.0,2.0,93,0.00,,,0.69,VWS V14.01,2013-05-12 01:27:00,
2013-05-11 21:28:00,63.3,61.2,29.71,WNW,284,2.0,3.0,93,0.00,,,0.69,VWS V14.01,2013-05-12 01:28:00,
2013-05-11 21:29:00,63.3,61.2,29.71,WNW,284,0.0,3.0,93,0.00,,,0.69,VWS V14.01,2013-05-12 01:29:00,
2013-05-11 21:30:00,63.3,61.2,29.71,WNW,284,0.0,3.0,93,0.00,,,0.69,VWS V14.01,2013-05-12 01:30:00,
2013-05-11 21:31:00,63.2,61.2,29.71,WNW,284,0.0,0.0,93,0.00,,,0.69,VWS V14.01,2013-05-12 01:31:00,
2013-05-11 21:32:00,63.2,61.2,29.71,WNW,284,0.0,0.0,93,0.00,,,0.69,VWS V14.01,2013-05-12 01:32:00,
2013-05-11 21:33:00,63.2,61.2,29.71,WNW,284,0.0,1.0,93,0.00,,,0.69,VWS V14.01,2013-05-12 01:33:00,
2013-05-11 21:34:00,63.2,61.2,29.71,WNW,284,0.0,1.0,93,0.00,,,0.69,VWS V14.01,2013-05-12 01:34:00,
2013-05-11 21:35:00,63.1,61.0,29.71,WNW,284,0.0,1.0,93,0.00,,,0.69,VWS V14.01,2013-05-12 01:35:00,
2013-05-11 21:36:00,63.1,61.0,29.71,WNW,284,0.0,1.0,93,0.00,,,0.69,VWS V14.01,2013-05-12 01:36:00,
2013-05-11 21:37:00,63.1,61.0,29.71,West,265,4.0,4.0,93,0.00,,,0.69,VWS V14.01,2013-05-12 01:37:00,
2013-05-11 21:38:00,63.1,61.0,29.71,West,265,0.0,4.0,93,0.00,,,0.69,VWS V14.01,2013-05-12 01:38:00,
2013-05-11 21:39:00,63.0,61.0,29.71,West,265,0.0,4.0,93,0.00,,,0.69,VWS V14.01,2013-05-12 01:39:00,
2013-05-11 21:40:00,63.0,61.0,29.71,West,265,0.0,4.0,93,0.00,,,0.69,VWS V14.01,2013-05-12 01:40:00,
2013-05-11 21:41:00,62.9,60.8,29.71,West,265,0.0,0.0,93,0.00,,,0.69,VWS V14.01,2013-05-12 01:41:00,
2013-05-11 21:42:00,62.9,60.8,29.71,West,265,1.0,3.0,93,0.00,,,0.69,VWS V14.01,2013-05-12 01:42:00,
2013-05-11 21:43:00,62.9,60.8,29.71,West,265,2.0,3.0,93,0.00,,,0.69,VWS V14.01,2013-05-12 01:43:00,
2013-05-11 21:44:00,62.9,60.8,29.71,West,265,0.0,3.0,93,0.00,,,0.69,VWS V14.01,2013-05-12 01:44:00,
2013-05-11 21:45:00,62.8,60.8,29.71,West,265,1.0,3.0,93,0.00,,,0.69,VWS V14.01,2013-05-12 01:45:00,
2013-05-11 21:46:00,62.8,60.8,29.71,West,265,0.0,3.0,93,0.00,,,0.69,VWS V14.01,2013-05-12 01:46:00,
2013-05-11 21:47:00,62.8,60.8,29.71,West,265,0.0,3.0,93,0.00,,,0.69,VWS V14.01,2013-05-12 01:47:00,
2013-05-11 21:48:00,62.7,60.7,29.71,West,265,1.0,3.0,93,0.00,,,0.69,VWS V14.01,2013-05-12 01:48:00,
2013-05-11 21:49:00,62.7,60.7,29.71,West,265,2.0,3.0,93,0.00,,,0.69,VWS V14.01,2013-05-12 01:49:00,
2013-05-11 21:50:00,62.7,60.7,29.71,West,265,0.0,3.0,93,0.00,,,0.69,VWS V14.01,2013-05-12 01:50:00,
2013-05-11 21:51:00,62.6,60.5,29.71,West,265,1.0,1.0,93,0.00,,,0.69,VWS V14.01,2013-05-12 01:51:00,
2013-05-11 21:52:00,62.6,60.5,29.71,West,265,0.0,3.0,93,0.00,,,0.69,VWS V14.01,2013-05-12 01:52:00,
2013-05-11 21:53:00,62.6,60.5,29.71,West,265,0.0,3.0,93,0.00,,,0.69,VWS V14.01,2013-05-12 01:53:00,
2013-05-11 21:54:00,62.5,60.5,29.71,West,265,2.0,3.0,93,0.00,,,0.69,VWS V14.01,2013-05-12 01:54:00,
2013-05-11 21:55:00,62.5,60.5,29.71,West,264,1.0,3.0,93,0.00,,,0.69,VWS V14.01,2013-05-12 01:55:00,
2013-05-11 21:56:00,62.4,60.3,29.71,West,265,1.0,3.0,93,0.00,,,0.69,VWS V14.01,2013-05-12 01:56:00,
2013-05-11 21:57:00,62.4,60.3,29.71,West,265,0.0,3.0,93,0.00,,,0.69,VWS V14.01,2013-05-12 01:57:00,
2013-05-11 21:58:00,62.4,60.3,29.71,West,265,1.0,3.0,93,0.00,,,0.69,VWS V14.01,2013-05-12 01:58:00,
2013-05-11 21:59:00,62.4,60.3,29.71,West,265,0.0,3.0,93,0.00,,,0.69,VWS V14.01,2013-05-12 01:59:00,
2013-05-11 22:00:00,62.3,60.2,29.72,West,265,0.0,3.0,93,0.00,,,0.69,VWS V14.01,2013-05-12 02:00:00,
2013-05-11 22:01:00,62.3,60.2,29.72,West,265,0.0,0.0,93,0.00,,,0.69,VWS V14.01,2013-05-12 02:01:00,
2013-05-11 22:02:00,62.3,60.2,29.72,West,264,0.0,0.0,93,0.00,,,0.69,VWS V14.01,2013-05-12 02:02:00,
2013-05-11 22:03:00,62.3,60.2,29.72,West,265,0.0,0.0,93,0.00,,,0.69,VWS V14.01,2013-05-12 02:03:00,
2013-05-11 22:04:00,62.2,60.2,29.72,West,265,0.0,0.0,93,0.00,,,0.69,VWS V14.01,2013-05-12 02:04:00,
2013-05-11 22:05:00,62.2,60.2,29.72,West,265,0.0,0.0,93,0.00,,,0.69,VWS V14.01,2013-05-12 02:05:00,
2013-05-11 22:06:00,62.2,60.2,29.72,West,265,0.0,0.0,93,0.00,,,0.69,VWS V14.01,2013-05-12 02:06:00,
2013-05-11 22:07:00,62.2,60.2,29.72,West,264,0.0,0.0,93,0.00,,,0.69,VWS V14.01,2013-05-12 02:07:00,
2013-05-11 22:08:00,62.2,60.2,29.72,West,264,0.0,0.0,93,0.00,,,0.69,VWS V14.01,2013-05-12 02:08:00,
2013-05-11 22:09:00,62.1,60.1,29.72,West,265,0.0,0.0,93,0.00,,,0.69,VWS V14.01,2013-05-12 02:09:00,
2013-05-11 22:10:00,62.1,60.1,29.72,West,264,0.0,0.0,93,0.00,,,0.69,VWS V14.01,2013-05-12 02:10:00,
2013-05-11 22:11:00,62.1,60.1,29.72,West,264,0.0,0.0,93,0.00,,,0.69,VWS V14.01,2013-05-12 02:11:00,
2013-05-11 22:12:00,62.1,60.1,29.72,West,265,0.0,0.0,93,0.00,,,0.69,VWS V14.01,2013-05-12 02:12:00,
2013-05-11 22:13:00,62.0,60.0,29.72,West,265,0.0,0.0,93,0.00,,,0.69,VWS V14.01,2013-05-12 02:13:00,
2013-05-11 22:14:00,62.0,60.0,29.72,West,265,0.0,0.0,93,0.00,,,0.69,VWS V14.01,2013-05-12 02:14:00,
2013-05-11 22:15:00,62.0,60.0,29.71,West,265,0.0,0.0,93,0.00,,,0.69,VWS V14.01,2013-05-12 02:15:00,
2013-05-11 22:16:00,62.0,60.0,29.71,West,265,0.0,0.0,93,0.00,,,0.69,VWS V14.01,2013-05-12 02:16:00,
2013-05-11 22:17:00,61.9,59.9,29.71,West,265,0.0,0.0,93,0.00,,,0.69,VWS V14.01,2013-05-12 02:17:00,
2013-05-11 22:18:00,61.9,59.9,29.71,West,264,0.0,0.0,93,0.00,,,0.69,VWS V14.01,2013-05-12 02:18:00,
2013-05-11 22:19:00,61.9,59.9,29.71,West,265,0.0,1.0,93,0.00,,,0.69,VWS V14.01,2013-05-12 02:19:00,
2013-05-11 22:20:00,61.8,59.8,29.71,West,265,0.0,1.0,93,0.00,,,0.69,VWS V14.01,2013-05-12 02:20:00,
2013-05-11 22:21:00,61.8,59.8,29.71,West,265,0.0,0.0,93,0.00,,,0.69,VWS V14.01,2013-05-12 02:21:00,
2013-05-11 22:22:00,61.8,59.8,29.71,West,265,0.0,0.0,93,0.00,,,0.69,VWS V14.01,2013-05-12 02:22:00,
2013-05-11 22:23:00,61.8,59.8,29.71,West,265,0.0,0.0,93,0.00,,,0.69,VWS V14.01,2013-05-12 02:23:00,
2013-05-11 22:24:00,61.7,59.7,29.71,West,264,0.0,0.0,93,0.00,,,0.69,VWS V14.01,2013-05-12 02:24:00,
2013-05-11 22:25:00,61.7,59.7,29.71,West,265,0.0,0.0,93,0.00,,,0.69,VWS V14.01,2013-05-12 02:25:00,
2013-05-11 22:26:00,61.7,59.7,29.71,West,265,0.0,0.0,93,0.00,,,0.69,VWS V14.01,2013-05-12 02:26:00,
2013-05-11 22:27:00,61.6,59.6,29.71,West,264,0.0,0.0,93,0.00,,,0.69,VWS V14.01,2013-05-12 02:27:00,
2013-05-11 22:28:00,61.6,59.6,29.71,West,264,0.0,0.0,93,0.00,,,0.69,VWS V14.01,2013-05-12 02:28:00,
2013-05-11 22:29:00,61.6,59.6,29.71,West,264,0.0,0.0,93,0.00,,,0.69,VWS V14.01,2013-05-12 02:29:00,
2013-05-11 22:30:00,61.6,59.6,29.71,West,265,0.0,0.0,93,0.00,,,0.69,VWS V14.01,2013-05-12 02:30:00,
2013-05-11 22:31:00,61.6,59.6,29.71,West,265,0.0,0.0,93,0.00,,,0.69,VWS V14.01,2013-05-12 02:31:00,
2013-05-11 22:32:00,61.5,59.5,29.71,West,265,0.0,0.0,93,0.00,,,0.69,VWS V14.01,2013-05-12 02:32:00,
2013-05-11 22:33:00,61.5,59.5,29.71,West,265,0.0,0.0,93,0.00,,,0.69,VWS V14.01,2013-05-12 02:33:00,
2013-05-11 22:34:00,61.5,59.5,29.71,West,265,0.0,0.0,93,0.00,,,0.69,VWS V14.01,2013-05-12 02:34:00,
2013-05-11 22:35:00,61.4,59.4,29.71,West,265,1.0,1.0,93,0.00,,,0.69,VWS V14.01,2013-05-12 02:35:00,
2013-05-11 22:36:00,61.4,59.4,29.71,West,265,0.0,1.0,93,0.00,,,0.69,VWS V14.01,2013-05-12 02:36:00,
2013-05-11 22:37:00,61.4,59.4,29.71,West,265,0.0,1.0,93,0.00,,,0.69,VWS V14.01,2013-05-12 02:37:00,
2013-05-11 22:38:00,61.3,59.3,29.71,West,265,0.0,1.0,93,0.00,,,0.69,VWS V14.01,2013-05-12 02:38:00,
2013-05-11 22:39:00,61.3,59.3,29.71,West,265,0.0,1.0,93,0.00,,,0.69,VWS V14.01,2013-05-12 02:39:00,
2013-05-11 22:40:00,61.3,59.3,29.71,West,265,0.0,1.0,93,0.00,,,0.69,VWS V14.01,2013-05-12 02:40:00,
2013-05-11 22:41:00,61.2,59.2,29.71,West,265,0.0,0.0,93,0.00,,,0.69,VWS V14.01,2013-05-12 02:41:00,
2013-05-11 22:42:00,61.2,59.2,29.71,West,265,0.0,0.0,93,0.00,,,0.69,VWS V14.01,2013-05-12 02:42:00,
2013-05-11 22:43:00,61.2,59.2,29.71,West,264,0.0,0.0,93,0.00,,,0.69,VWS V14.01,2013-05-12 02:43:00,
2013-05-11 22:44:00,61.1,59.1,29.71,West,265,0.0,0.0,93,0.00,,,0.69,VWS V14.01,2013-05-12 02:44:00,
2013-05-11 22:45:00,61.1,59.1,29.70,West,265,0.0,0.0,93,0.00,,,0.69,VWS V14.01,2013-05-12 02:45:00,
2013-05-11 22:46:00,61.1,59.1,29.70,West,265,0.0,0.0,93,0.00,,,0.69,VWS V14.01,2013-05-12 02:46:00,
2013-05-11 22:47:00,61.0,59.0,29.70,West,265,0.0,0.0,93,0.00,,,0.69,VWS V14.01,2013-05-12 02:47:00,
2013-05-11 22:48:00,61.0,59.0,29.70,West,265,0.0,0.0,93,0.00,,,0.69,VWS V14.01,2013-05-12 02:48:00,
2013-05-11 22:49:00,61.0,59.0,29.70,West,265,0.0,0.0,93,0.00,,,0.69,VWS V14.01,2013-05-12 02:49:00,
2013-05-11 22:50:00,61.0,59.0,29.70,West,265,0.0,0.0,93,0.00,,,0.69,VWS V14.01,2013-05-12 02:50:00,
2013-05-11 22:51:00,60.9,58.9,29.70,West,265,0.0,0.0,93,0.00,,,0.69,VWS V14.01,2013-05-12 02:51:00,
2013-05-11 22:52:00,60.9,58.9,29.70,West,265,0.0,0.0,93,0.00,,,0.69,VWS V14.01,2013-05-12 02:52:00,
2013-05-11 22:53:00,60.9,58.9,29.70,West,264,0.0,0.0,93,0.00,,,0.69,VWS V14.01,2013-05-12 02:53:00,
2013-05-11 22:54:00,60.9,58.9,29.70,West,265,0.0,0.0,93,0.00,,,0.69,VWS V14.01,2013-05-12 02:54:00,
2013-05-11 22:55:00,60.8,58.8,29.70,West,265,0.0,0.0,93,0.00,,,0.69,VWS V14.01,2013-05-12 02:55:00,
2013-05-11 22:56:00,60.8,58.8,29.70,West,264,0.0,0.0,93,0.00,,,0.69,VWS V14.01,2013-05-12 02:56:00,
2013-05-11 22:57:00,60.8,58.8,29.70,West,265,1.0,1.0,93,0.00,,,0.69,VWS V14.01,2013-05-12 02:57:00,
2013-05-11 22:58:00,60.8,58.8,29.70,West,264,0.0,1.0,93,0.00,,,0.69,VWS V14.01,2013-05-12 02:58:00,
2013-05-11 22:59:00,60.7,58.7,29.70,West,264,0.0,1.0,93,0.00,,,0.69,VWS V14.01,2013-05-12 02:59:00,
2013-05-11 23:00:00,60.7,58.7,29.70,West,264,0.0,1.0,93,0.00,,,0.69,VWS V14.01,2013-05-12 03:00:00,
2013-05-11 23:01:00,60.7,59.0,29.70,West,265,0.0,0.0,94,0.00,,,0.69,VWS V14.01,2013-05-12 03:01:00,
2013-05-11 23:02:00,60.7,59.0,29.70,West,265,0.0,1.0,94,0.00,,,0.69,VWS V14.01,2013-05-12 03:02:00,
2013-05-11 23:03:00,60.7,59.0,29.70,West,265,1.0,1.0,94,0.00,,,0.69,VWS V14.01,2013-05-12 03:03:00,
2013-05-11 23:04:00,60.6,58.9,29.70,West,265,4.0,4.0,94,0.00,,,0.69,VWS V14.01,2013-05-12 03:04:00,
2013-05-11 23:05:00,60.6,58.9,29.70,West,266,0.0,4.0,94,0.00,,,0.69,VWS V14.01,2013-05-12 03:05:00,
2013-05-11 23:06:00,60.6,58.9,29.70,WSW,250,3.0,5.0,94,0.00,,,0.69,VWS V14.01,2013-05-12 03:06:00,
2013-05-11 23:07:00,60.5,58.8,29.70,WSW,255,0.0,5.0,94,0.00,,,0.69,VWS V14.01,2013-05-12 03:07:00,
2013-05-11 23:08:00,60.5,58.5,29.70,WSW,250,3.0,5.0,93,0.00,,,0.69,VWS V14.01,2013-05-12 03:08:00,
2013-05-11 23:09:00,60.4,58.4,29.70,WSW,250,0.0,5.0,93,0.00,,,0.69,VWS V14.01,2013-05-12 03:09:00,
2013-05-11 23:10:00,60.4,58.4,29.70,WSW,250,0.0,5.0,93,0.00,,,0.69,VWS V14.01,2013-05-12 03:10:00,
2013-05-11 23:11:00,60.4,58.4,29.70,WSW,250,0.0,1.0,93,0.00,,,0.69,VWS V14.01,2013-05-12 03:11:00,
2013-05-11 23:12:00,60.3,58.3,29.70,WSW,250,0.0,1.0,93,0.00,,,0.69,VWS V14.01,2013-05-12 03:12:00,
2013-05-11 23:13:00,60.3,58.3,29.70,WSW,250,0.0,1.0,93,0.00,,,0.69,VWS V14.01,2013-05-12 03:13:00,
2013-05-11 23:14:00,60.3,58.3,29.70,WSW,250,0.0,1.0,93,0.00,,,0.69,VWS V14.01,2013-05-12 03:14:00,
2013-05-11 23:15:00,60.2,58.2,29.70,WSW,250,0.0,1.0,93,0.00,,,0.69,VWS V14.01,2013-05-12 03:15:00,
2013-05-11 23:16:00,60.2,58.2,29.70,WSW,250,0.0,1.0,93,0.00,,,0.69,VWS V14.01,2013-05-12 03:16:00,
2013-05-11 23:17:00,60.2,58.2,29.70,WSW,250,0.0,1.0,93,0.00,,,0.69,VWS V14.01,2013-05-12 03:17:00,
2013-05-11 23:18:00,60.2,58.2,29.70,WSW,250,0.0,1.0,93,0.00,,,0.69,VWS V14.01,2013-05-12 03:18:00,
2013-05-11 23:19:00,60.1,58.1,29.70,WSW,250,0.0,1.0,93,0.00,,,0.69,VWS V14.01,2013-05-12 03:19:00,
2013-05-11 23:20:00,60.1,58.1,29.70,WSW,250,0.0,1.0,93,0.00,,,0.69,VWS V14.01,2013-05-12 03:20:00,
2013-05-11 23:21:00,60.0,58.0,29.70,WSW,250,0.0,0.0,93,0.00,,,0.69,VWS V14.01,2013-05-12 03:21:00,
2013-05-11 23:22:00,60.0,58.0,29.70,WSW,250,0.0,0.0,93,0.00,,,0.69,VWS V14.01,2013-05-12 03:22:00,
2013-05-11 23:23:00,60.0,58.0,29.70,WSW,250,0.0,0.0,93,0.00,,,0.69,VWS V14.01,2013-05-12 03:23:00,
2013-05-11 23:24:00,60.0,58.0,29.70,WSW,250,0.0,0.0,93,0.00,,,0.69,VWS V14.01,2013-05-12 03:24:00,
2013-05-11 23:25:00,59.9,57.9,29.70,WSW,250,0.0,0.0,93,0.00,,,0.69,VWS V14.01,2013-05-12 03:25:00,
2013-05-11 23:26:00,59.9,57.9,29.70,WSW,250,0.0,0.0,93,0.00,,,0.69,VWS V14.01,2013-05-12 03:26:00,
2013-05-11 23:27:00,59.9,57.9,29.70,WSW,250,0.0,0.0,93,0.00,,,0.69,VWS V14.01,2013-05-12 03:27:00,
2013-05-11 23:28:00,59.9,57.9,29.70,WSW,250,0.0,0.0,93,0.00,,,0.69,VWS V14.01,2013-05-12 03:28:00,
2013-05-11 23:29:00,59.8,57.8,29.70,WSW,250,0.0,0.0,93,0.00,,,0.69,VWS V14.01,2013-05-12 03:29:00,
2013-05-11 23:30:00,59.8,57.8,29.70,WSW,250,0.0,0.0,93,0.00,,,0.69,VWS V14.01,2013-05-12 03:30:00,
2013-05-11 23:31:00,59.8,57.8,29.70,WSW,250,0.0,0.0,93,0.00,,,0.69,VWS V14.01,2013-05-12 03:31:00,
2013-05-11 23:32:00,59.7,57.7,29.70,WSW,250,0.0,1.0,93,0.00,,,0.69,VWS V14.01,2013-05-12 03:32:00,
2013-05-11 23:33:00,59.6,57.6,29.70,WSW,250,0.0,1.0,93,0.00,,,0.69,VWS V14.01,2013-05-12 03:33:00,
2013-05-11 23:34:00,59.6,57.6,29.70,WSW,250,0.0,1.0,93,0.00,,,0.69,VWS V14.01,2013-05-12 03:34:00,
2013-05-11 23:35:00,59.6,57.6,29.70,WSW,250,0.0,1.0,93,0.00,,,0.69,VWS V14.01,2013-05-12 03:35:00,
2013-05-11 23:36:00,59.5,57.5,29.70,WSW,250,0.0,1.0,93,0.00,,,0.69,VWS V14.01,2013-05-12 03:36:00,
2013-05-11 23:37:00,59.5,57.5,29.70,NNW,327,0.0,2.0,93,0.00,,,0.69,VWS V14.01,2013-05-12 03:37:00,
2013-05-11 23:38:00,59.4,57.4,29.70,NNW,327,0.0,2.0,93,0.00,,,0.69,VWS V14.01,2013-05-12 03:38:00,
2013-05-11 23:39:00,59.4,57.4,29.70,NNW,327,0.0,2.0,93,0.00,,,0.69,VWS V14.01,2013-05-12 03:39:00,
2013-05-11 23:40:00,59.3,57.3,29.70,NNW,327,0.0,2.0,93,0.00,,,0.69,VWS V14.01,2013-05-12 03:40:00,
2013-05-11 23:41:00,59.3,57.3,29.70,NNW,327,0.0,0.0,93,0.00,,,0.69,VWS V14.01,2013-05-12 03:41:00,
2013-05-11 23:42:00,59.3,57.3,29.70,NNW,327,0.0,0.0,93,0.00,,,0.69,VWS V14.01,2013-05-12 03:42:00,
2013-05-11 23:43:00,59.3,57.3,29.70,NNW,327,1.0,1.0,93,0.00,,,0.69,VWS V14.01,2013-05-12 03:43:00,
2013-05-11 23:44:00,59.2,57.2,29.70,NNW,327,0.0,1.0,93,0.00,,,0.69,VWS V14.01,2013-05-12 03:44:00,
2013-05-11 23:45:00,59.2,57.2,29.71,NNW,327,0.0,1.0,93,0.00,,,0.69,VWS V14.01,2013-05-12 03:45:00,
2013-05-11 23:46:00,59.1,57.1,29.71,NNW,327,0.0,1.0,93,0.00,,,0.69,VWS V14.01,2013-05-12 03:46:00,
2013-05-11 23:47:00,59.1,57.1,29.71,NNW,327,0.0,1.0,93,0.00,,,0.69,VWS V14.01,2013-05-12 03:47:00,
2013-05-11 23:48:00,59.1,57.1,29.71,NNW,327,0.0,1.0,93,0.00,,,0.69,VWS V14.01,2013-05-12 03:48:00,
2013-05-11 23:49:00,59.0,57.0,29.71,NW,309,0.0,3.0,93,0.00,,,0.69,VWS V14.01,2013-05-12 03:49:00,
2013-05-11 23:50:00,59.0,57.0,29.71,NW,309,0.0,3.0,93,0.00,,,0.69,VWS V14.01,2013-05-12 03:50:00,
2013-05-11 23:51:00,59.0,57.0,29.71,NW,309,0.0,0.0,93,0.00,,,0.69,VWS V14.01,2013-05-12 03:51:00,
2013-05-11 23:52:00,58.9,56.9,29.71,NW,309,0.0,0.0,93,0.00,,,0.69,VWS V14.01,2013-05-12 03:52:00,
2013-05-11 23:53:00,58.9,56.9,29.71,NW,309,0.0,0.0,93,0.00,,,0.69,VWS V14.01,2013-05-12 03:53:00,
2013-05-11 23:54:00,58.9,56.9,29.71,NW,309,0.0,0.0,93,0.00,,,0.69,VWS V14.01,2013-05-12 03:54:00,
2013-05-11 23:55:00,58.9,56.9,29.71,NW,309,0.0,0.0,93,0.00,,,0.69,VWS V14.01,2013-05-12 03:55:00,
2013-05-11 23:56:00,58.9,56.9,29.71,NW,309,0.0,0.0,93,0.00,,,0.69,VWS V14.01,2013-05-12 03:56:00,
2013-05-11 23:57:00,58.9,56.9,29.71,NW,309,0.0,0.0,93,0.00,,,0.69,VWS V14.01,2013-05-12 03:57:00,
2013-05-11 23:58:00,58.8,56.8,29.71,NW,309,0.0,0.0,93,0.00,,,0.69,VWS V14.01,2013-05-12 03:58:00,
2013-05-11 23:59:00,58.8,56.8,29.71,NW,309,0.0,1.0,93,0.00,,,0.69,VWS V14.01,2013-05-12 03:59:00,